[[{"header":{"parameterUnit":"m.s-1","parameterCategory":1,"la1":30.6,"la2":28.766,"lo1":-90.7593,"lo2":-88.6598,"dy":0.0162,"dx":0.0183,"nx":116,"ny":114,"refTime":"2023-03-20T18:00:00:Z","depth":0,"parameterNumber":2,"parameterNumberName":"U-component_of_WINDS"},"data":[0.0,0.0,0.0,0.0,0.0,0.0,0.0,0.0,0.0,0.0,0.0,0.0,0.0,0.0,0.0,0.0,0.0,0.0,0.0,0.0,0.0,0.0,0.0,0.0,0.0,0.0,0.0,0.0,0.0,0.0,0.0,0.0,0.0,0.0,0.0,0.0,0.0,0.0,0.0,0.0,0.0,0.0,0.0,0.0,0.0,0.0,0.0,0.0,0.0,0.0,0.0,0.0,0.0,0.0,0.0,0.0,0.0,0.0,0.0,0.0,0.0,0.0,0.0,0.0,0.0,0.0,0.0,0.0,0.0,0.0,0.0,0.0,0.0,0.0,0.0,0.0,0.0,0.0,0.0,0.0,0.0,0.0,0.0,0.0,0.0,0.0,0.0,0.0,0.0,0.0,0.0,0.0,0.0,0.0,0.0,0.0,0.0,0.0,0.0,0.0,0.0,0.0,0.0,0.0,0.0,0.0,0.0,0.0,0.0,0.0,0.0,0.0,0.0,0.0,0.0,0.0,0.0,0.0,0.0,0.0,0.0,0.0,0.0,0.0,0.0,0.0,0.0,0.0,0.0,0.0,0.0,0.0,0.0,0.0,0.0,0.0,0.0,0.0,0.0,0.0,0.0,0.0,0.0,0.0,0.0,0.0,0.0,0.0,0.0,0.0,0.0,0.0,0.0,0.0,0.0,0.0,0.0,0.0,0.0,0.0,0.0,0.0,0.0,0.0,0.0,0.0,0.0,0.0,0.0,0.0,0.0,0.0,0.0,0.0,0.0,0.0,0.0,0.0,0.0,0.0,0.0,0.0,0.0,0.0,0.0,0.0,0.0,0.0,0.0,0.0,0.0,0.0,0.0,0.0,0.0,0.0,0.0,0.0,0.0,0.0,0.0,0.0,0.0,0.0,0.0,0.0,0.0,0.0,0.0,0.0,0.0,0.0,0.0,0.0,0.0,0.0,0.0,0.0,0.0,0.0,0.0,0.0,0.0,0.0,0.0,0.0,0.0,0.0,0.0,0.0,0.0,0.0,0.0,0.0,0.0,0.0,0.0,0.0,0.0,0.0,0.0,0.0,0.0,0.0,0.0,0.0,0.0,0.0,0.0,0.0,0.0,0.0,0.0,0.0,0.0,0.0,0.0,0.0,0.0,0.0,0.0,0.0,0.0,0.0,0.0,0.0,0.0,0.0,0.0,0.0,0.0,0.0,0.0,0.0,0.0,0.0,0.0,0.0,0.0,0.0,0.0,0.0,0.0,0.0,0.0,0.0,0.0,0.0,0.0,0.0,0.0,0.0,0.0,0.0,0.0,0.0,0.0,0.0,0.0,0.0,0.0,0.0,0.0,0.0,0.0,0.0,0.0,0.0,0.0,0.0,0.0,0.0,0.0,0.0,0.0,0.0,0.0,0.0,0.0,0.0,0.0,0.0,0.0,0.0,0.0,0.0,0.0,0.0,0.0,0.0,0.0,0.0,0.0,0.0,0.0,0.0,0.0,0.0,0.0,0.0,0.0,0.0,0.0,0.0,0.0,0.0,0.0,0.0,0.0,0.0,0.0,0.0,0.0,0.0,0.0,0.0,0.0,0.0,0.0,0.0,0.0,0.0,0.0,0.0,0.0,0.0,0.0,0.0,0.0,0.0,0.0,0.0,0.0,0.0,0.0,0.0,0.0,0.0,0.0,0.0,0.0,0.0,0.0,0.0,0.0,0.0,0.0,0.0,0.0,0.0,0.0,0.0,0.0,0.0,0.0,0.0,0.0,0.0,0.0,0.0,0.0,0.0,0.0,0.0,0.0,0.0,0.0,0.0,0.0,0.0,0.0,0.0,0.0,0.0,0.0,0.0,0.0,0.0,0.0,0.0,0.0,0.0,0.0,0.0,0.0,0.0,0.0,0.0,0.0,0.0,0.0,0.0,0.0,0.0,0.0,0.0,0.0,0.0,0.0,0.0,0.0,0.0,0.0,0.0,0.0,0.0,0.0,0.0,0.0,0.0,0.0,0.0,0.0,0.0,0.0,0.0,0.0,0.0,0.0,0.0,0.0,0.0,0.0,0.0,0.0,0.0,0.0,0.0,0.0,0.0,0.0,0.0,0.0,0.0,0.0,0.0,0.0,0.0,0.0,0.0,0.0,0.0,0.0,0.0,0.0,0.0,0.0,0.0,0.0,0.0,0.0,0.0,0.0,0.0,0.0,0.0,0.0,0.0,0.0,0.0,0.0,0.0,0.0,0.0,0.0,0.0,0.0,0.0,0.0,0.0,0.0,0.0,0.0,0.0,0.0,0.0,0.0,0.0,0.0,0.0,0.0,0.0,0.0,0.0,0.0,0.0,0.0,0.0,0.0,0.0,0.0,0.0,0.0,0.0,0.0,0.0,0.0,0.0,0.0,0.0,0.0,0.0,0.0,0.0,0.0,0.0,0.0,0.0,0.0,0.0,0.0,0.0,0.0,0.0,0.0,0.0,0.0,0.0,0.0,0.0,0.0,0.0,0.0,0.0,0.0,0.0,0.0,0.0,0.0,0.0,0.0,0.0,0.0,0.0,0.0,0.0,0.0,0.0,0.0,0.0,0.0,0.0,0.0,0.0,0.0,0.0,0.0,0.0,0.0,0.0,0.0,0.0,0.0,0.0,0.0,0.0,0.0,0.0,0.0,0.0,0.0,0.0,0.0,0.0,0.0,0.0,0.0,0.0,0.0,0.0,0.0,0.0,0.0,0.0,0.0,0.0,0.0,0.0,0.0,0.0,0.0,0.0,0.0,0.0,0.0,0.0,0.0,0.0,0.0,0.0,0.0,0.0,0.0,0.0,0.0,0.0,0.0,0.0,0.0,0.0,0.0,0.0,0.0,0.0,0.0,0.0,0.0,0.0,0.0,0.0,0.0,0.0,0.0,0.0,0.0,0.0,0.0,0.0,0.0,0.0,0.0,0.0,0.0,0.0,0.0,0.0,0.0,0.0,0.0,0.0,0.0,0.0,0.0,0.0,0.0,0.0,0.0,0.0,0.0,0.0,0.0,0.0,0.0,0.0,0.0,0.0,0.0,0.0,0.0,0.0,0.0,0.0,0.0,0.0,0.0,0.0,0.0,0.0,0.0,0.0,0.0,0.0,0.0,0.0,0.0,0.0,0.0,0.0,0.0,0.0,0.0,0.0,0.0,0.0,0.0,0.0,0.0,0.0,0.0,0.0,0.0,0.0,0.0,0.0,0.0,0.0,0.0,0.0,0.0,0.0,0.0,0.0,0.0,0.0,0.0,0.0,0.0,0.0,0.0,0.0,0.0,0.0,0.0,0.0,0.0,0.0,0.0,0.0,0.0,0.0,0.0,0.0,0.0,0.0,0.0,0.0,0.0,0.0,0.0,0.0,0.0,0.0,0.0,0.0,0.0,0.0,0.0,0.0,0.0,0.0,0.0,0.0,0.0,0.0,0.0,0.0,0.0,0.0,0.0,0.0,0.0,0.0,0.0,0.0,0.0,0.0,0.0,0.0,0.0,0.0,0.0,0.0,0.0,0.0,0.0,0.0,0.0,0.0,0.0,0.0,0.0,0.0,0.0,0.0,0.0,0.0,0.0,0.0,0.0,0.0,0.0,0.0,0.0,0.0,0.0,0.0,0.0,0.0,0.0,0.0,0.0,0.0,0.0,0.0,0.0,0.0,0.0,0.0,0.0,0.0,0.0,0.0,0.0,0.0,0.0,0.0,0.0,0.0,0.0,0.0,0.0,0.0,0.0,0.0,0.0,0.0,0.0,0.0,0.0,0.0,0.0,0.0,0.0,0.0,0.0,0.0,0.0,0.0,0.0,0.0,0.0,0.0,0.0,0.0,0.0,0.0,0.0,0.0,0.0,0.0,0.0,0.0,0.0,0.0,0.0,0.0,0.0,0.0,0.0,0.0,0.0,0.0,0.0,0.0,0.0,0.0,0.0,0.0,0.0,0.0,0.0,0.0,0.0,0.0,0.0,0.0,0.0,0.0,0.0,0.0,0.0,0.0,0.0,0.0,0.0,0.0,0.0,0.0,0.0,0.0,0.0,0.0,0.0,0.0,0.0,0.0,0.0,0.0,0.0,0.0,0.0,0.0,0.0,0.0,0.0,0.0,0.0,0.0,0.0,0.0,0.0,0.0,0.0,0.0,0.0,0.0,0.0,0.0,0.0,0.0,0.0,0.0,0.0,0.0,0.0,0.0,0.0,0.0,0.0,0.0,0.0,0.0,0.0,0.0,0.0,0.0,0.0,0.0,0.0,0.0,0.0,0.0,0.0,0.0,0.0,0.0,0.0,0.0,0.0,0.0,0.0,0.0,0.0,0.0,0.0,0.0,0.0,0.0,0.0,0.0,0.0,0.0,0.0,0.0,0.0,0.0,0.0,0.0,0.0,0.0,0.0,0.0,0.0,0.0,0.0,0.0,0.0,0.0,0.0,0.0,0.0,0.0,0.0,0.0,0.0,0.0,0.0,0.0,0.0,0.0,0.0,0.0,0.0,0.0,0.0,0.0,0.0,0.0,0.0,0.0,0.0,0.0,0.0,0.0,0.0,0.0,0.0,0.0,0.0,0.0,0.0,0.0,0.0,0.0,0.0,0.0,0.0,0.0,0.0,0.0,0.0,0.0,0.0,0.0,0.0,0.0,0.0,0.0,0.0,0.0,0.0,0.0,0.0,0.0,0.0,0.0,0.0,0.0,0.0,0.0,0.0,0.0,0.0,0.0,0.0,0.0,0.0,0.0,0.0,0.0,0.0,0.0,0.0,0.0,0.0,0.0,0.0,0.0,0.0,0.0,0.0,0.0,0.0,0.0,0.0,0.0,0.0,0.0,0.0,0.0,0.0,0.0,0.0,0.0,0.0,0.0,0.0,0.0,0.0,0.0,0.0,0.0,0.0,0.0,0.0,0.0,0.0,0.0,0.0,0.0,0.0,0.0,0.0,0.0,0.0,0.0,0.0,0.0,0.0,0.0,0.0,0.0,0.0,0.0,0.0,0.0,0.0,0.0,0.0,0.0,0.0,0.0,0.0,0.0,0.0,0.0,0.0,0.0,0.0,0.0,0.0,0.0,0.0,0.0,0.0,0.0,0.0,0.0,0.0,0.0,0.0,0.0,0.0,0.0,0.0,0.0,0.0,0.0,0.0,0.0,0.0,0.0,0.0,0.0,0.0,0.0,0.0,0.0,0.0,0.0,0.0,0.0,0.0,0.0,0.0,0.0,0.0,0.0,0.0,0.0,0.0,0.0,0.0,0.0,0.0,0.0,0.0,0.0,0.0,0.0,0.0,0.0,0.0,0.0,0.0,0.0,0.0,0.0,0.0,0.0,0.0,0.0,0.0,0.0,0.0,0.0,0.0,0.0,0.0,0.0,0.0,0.0,0.0,0.0,0.0,0.0,0.0,0.0,0.0,0.0,0.0,0.0,0.0,0.0,0.0,0.0,0.0,0.0,0.0,0.0,0.0,0.0,0.0,0.0,0.0,0.0,0.0,0.0,0.0,0.0,0.0,0.0,0.0,0.0,0.0,0.0,0.0,0.0,0.0,0.0,0.0,0.0,0.0,0.0,0.0,0.0,0.0,0.0,0.0,0.0,0.0,0.0,0.0,0.0,0.0,0.0,0.0,0.0,0.0,0.0,0.0,0.0,0.0,0.0,0.0,0.0,0.0,0.0,0.0,0.0,0.0,0.0,0.0,0.0,0.0,0.0,0.0,0.0,0.0,0.0,0.0,0.0,0.0,0.0,0.0,0.0,0.0,0.0,0.0,0.0,0.0,0.0,0.0,0.0,0.0,0.0,0.0,0.0,0.0,0.0,0.0,0.0,0.0,0.0,0.0,0.0,0.0,0.0,0.0,0.0,0.0,0.0,0.0,0.0,0.0,0.0,0.0,0.0,0.0,0.0,0.0,0.0,0.0,0.0,0.0,0.0,0.0,0.0,0.0,0.0,0.0,0.0,0.0,0.0,0.0,0.0,0.0,0.0,0.0,0.0,0.0,0.0,0.0,0.0,0.0,0.0,0.0,0.0,0.0,0.0,0.0,0.0,0.0,0.0,0.0,0.0,0.0,0.0,0.0,0.0,0.0,0.0,0.0,0.0,0.0,0.0,0.0,0.0,0.0,0.0,-7.2378,0.0,0.0,0.0,0.0,0.0,0.0,0.0,0.0,0.0,0.0,0.0,0.0,0.0,0.0,0.0,0.0,0.0,0.0,0.0,0.0,0.0,0.0,0.0,0.0,0.0,0.0,0.0,0.0,0.0,0.0,0.0,0.0,0.0,0.0,0.0,0.0,0.0,0.0,-7.9667,-7.9819,-7.9436,-7.8596,-7.7717,-7.6876,-7.6074,0.0,0.0,0.0,0.0,0.0,0.0,0.0,0.0,0.0,0.0,0.0,0.0,0.0,0.0,0.0,0.0,0.0,0.0,0.0,0.0,0.0,0.0,0.0,0.0,0.0,0.0,0.0,0.0,0.0,0.0,0.0,0.0,0.0,0.0,0.0,0.0,0.0,0.0,0.0,0.0,0.0,0.0,0.0,0.0,0.0,0.0,0.0,0.0,0.0,0.0,0.0,0.0,0.0,0.0,0.0,0.0,0.0,0.0,0.0,0.0,0.0,0.0,0.0,0.0,0.0,0.0,0.0,0.0,0.0,0.0,0.0,-7.1987,0.0,0.0,0.0,0.0,0.0,0.0,0.0,0.0,0.0,0.0,0.0,0.0,0.0,0.0,0.0,0.0,0.0,0.0,0.0,0.0,0.0,0.0,0.0,0.0,-7.6275,-7.6275,-7.6275,-7.6275,0.0,0.0,0.0,0.0,0.0,0.0,0.0,-7.9614,-8.0075,-8.0506,-8.0506,-8.0162,-7.9493,-7.8787,-7.7984,-7.7144,-7.6838,0.0,0.0,0.0,0.0,0.0,0.0,0.0,0.0,0.0,0.0,0.0,0.0,0.0,0.0,0.0,0.0,0.0,0.0,0.0,0.0,0.0,0.0,0.0,0.0,0.0,0.0,0.0,0.0,0.0,0.0,0.0,0.0,0.0,0.0,0.0,0.0,0.0,0.0,0.0,0.0,0.0,0.0,0.0,0.0,0.0,0.0,0.0,0.0,0.0,0.0,0.0,0.0,0.0,0.0,0.0,0.0,0.0,0.0,0.0,0.0,0.0,0.0,0.0,-7.4603,-7.4212,-7.554,-7.4837,-7.4486,-7.4408,-7.3041,-7.2456,-7.2497,-7.3151,0.0,0.0,0.0,0.0,0.0,0.0,0.0,0.0,0.0,0.0,0.0,0.0,0.0,0.0,0.0,0.0,0.0,0.0,0.0,0.0,0.0,-7.6072,-7.6275,-7.6275,-7.6275,-7.6275,0.0,0.0,0.0,0.0,0.0,0.0,-7.9085,-7.9806,-8.0275,-8.0506,-8.0506,-8.043,-8.0353,-8.02,-7.9742,-7.8881,-7.7373,-7.6265,-7.5518,0.0,0.0,0.0,0.0,0.0,0.0,0.0,0.0,0.0,0.0,0.0,0.0,0.0,0.0,0.0,0.0,0.0,0.0,0.0,0.0,0.0,0.0,0.0,0.0,0.0,0.0,0.0,0.0,0.0,0.0,0.0,0.0,0.0,0.0,0.0,0.0,0.0,0.0,0.0,0.0,0.0,-7.4212,-7.433,0.0,0.0,0.0,0.0,0.0,0.0,0.0,0.0,0.0,0.0,0.0,0.0,0.0,-7.7023,-7.6945,-7.6047,-7.5735,-7.5969,-7.4876,-7.4447,-7.4681,-7.4564,-7.4486,-7.4486,-7.4251,0.0,-7.4173,-7.4296,0.0,0.0,0.0,0.0,0.0,0.0,0.0,0.0,0.0,0.0,0.0,0.0,0.0,0.0,0.0,0.0,0.0,0.0,0.0,0.0,0.0,-7.6174,-7.6275,-7.6275,-7.6275,-7.6275,-7.6275,-7.6797,0.0,0.0,0.0,-7.9077,-7.9464,-7.9971,-8.0295,-8.0506,-8.0506,-8.0506,-8.0506,-8.0506,-8.0047,-7.9263,-7.7984,-7.6953,-7.615,-7.5692,0.0,0.0,0.0,0.0,0.0,0.0,0.0,0.0,0.0,0.0,0.0,0.0,0.0,0.0,0.0,0.0,0.0,0.0,0.0,0.0,0.0,0.0,0.0,0.0,0.0,0.0,0.0,0.0,0.0,0.0,0.0,0.0,0.0,0.0,0.0,0.0,0.0,0.0,0.0,-7.4681,-7.5227,-7.5227,-7.6008,-7.6516,0.0,0.0,0.0,0.0,0.0,0.0,0.0,0.0,0.0,-7.7101,-7.7101,-7.7101,-7.7101,-7.6242,-7.6047,-7.6516,-7.5657,-7.5501,-7.5969,-7.5969,-7.5969,-7.5969,-7.5969,-7.5943,-7.5923,-7.5427,-7.5233,-7.5272,0.0,0.0,0.0,0.0,-7.4874,-7.4445,0.0,0.0,0.0,0.0,0.0,0.0,0.0,0.0,0.0,0.0,0.0,0.0,-7.6242,-7.6275,-7.6275,-7.6275,-7.6275,-7.6275,-7.6275,-7.7082,0.0,0.0,-7.8828,-7.9577,-7.9908,-8.0137,-8.0354,-8.0506,-8.0506,-8.0506,-8.0506,-8.0506,-8.0162,-7.9551,-7.871,-7.7717,-7.6647,-7.5844,-7.5518,-7.5518,0.0,0.0,0.0,0.0,0.0,0.0,0.0,0.0,0.0,0.0,0.0,0.0,0.0,0.0,0.0,0.0,0.0,0.0,0.0,0.0,0.0,0.0,0.0,0.0,0.0,0.0,0.0,0.0,0.0,0.0,0.0,0.0,0.0,0.0,0.0,0.0,0.0,-7.5735,-7.6125,-7.6125,-7.6711,-7.7101,0.0,0.0,0.0,0.0,0.0,0.0,-7.7101,-7.7101,-7.7101,-7.7101,-7.7101,-7.7101,-7.7101,-7.6477,-7.6477,-7.7101,-7.6438,-7.6477,-7.7101,-7.7101,-7.7101,-7.7101,-7.7101,-7.7085,-7.7068,-7.6405,-7.613,-7.6168,-7.6786,-7.659,-7.6028,-7.6048,-7.5635,-7.5051,0.0,0.0,0.0,0.0,0.0,0.0,0.0,0.0,0.0,0.0,0.0,-7.6275,-7.6275,-7.6275,-7.6275,-7.6275,-7.6275,-7.6275,-7.6275,-7.6765,-7.7353,-7.8035,-7.8741,-7.9464,-8.0175,-8.0392,-8.0506,-8.0506,-8.0506,-8.0506,-8.0506,-8.0506,-8.0468,-8.0391,-7.9589,-7.829,-7.6647,-7.5844,-7.5518,-7.5518,-7.5566,0.0,0.0,0.0,0.0,0.0,0.0,0.0,0.0,0.0,0.0,0.0,0.0,0.0,0.0,0.0,0.0,0.0,0.0,0.0,0.0,0.0,0.0,0.0,0.0,0.0,0.0,0.0,0.0,0.0,0.0,0.0,0.0,0.0,0.0,0.0,0.0,0.0,0.0,-7.7023,-7.7062,0.0,0.0,0.0,0.0,-7.7101,-7.7101,-7.7101,-7.7101,-7.7101,-7.7101,-7.7101,-7.7101,-7.7101,-7.7101,-7.7062,-7.7062,-7.7101,-7.7062,-7.7062,-7.7101,-7.7101,-7.7101,-7.7101,-7.7101,-7.7085,-7.7106,-7.7068,-7.6986,-7.6926,-7.6993,-7.6956,-7.6927,-7.6921,-7.6921,-7.6882,0.0,0.0,0.0,0.0,0.0,0.0,0.0,0.0,0.0,-7.6275,-7.6275,-7.6275,-7.6275,-7.6275,-7.6275,-7.6275,-7.6275,-7.6275,-7.6275,-7.7051,-7.7614,-7.8063,-7.9026,-7.9789,-8.0392,-8.0468,-8.0506,-8.0506,-8.0506,-8.0506,-8.0506,-8.0506,-8.0506,-8.0468,-7.9665,-7.8634,-7.7487,-7.6647,-7.5959,-7.5518,-7.5535,-7.5566,0.0,0.0,0.0,0.0,0.0,0.0,0.0,0.0,0.0,0.0,0.0,0.0,0.0,0.0,0.0,0.0,0.0,0.0,0.0,0.0,0.0,0.0,0.0,0.0,0.0,0.0,0.0,0.0,0.0,0.0,0.0,0.0,0.0,0.0,0.0,0.0,0.0,-7.7101,-7.7101,0.0,-7.7101,-7.7101,-7.7101,-7.7101,-7.7101,-7.7101,-7.7101,-7.7101,-7.7101,-7.7101,-7.7101,-7.7101,-7.7101,-7.7101,-7.7101,-7.7101,-7.7101,-7.7101,-7.7101,-7.7101,-7.7101,-7.7101,-7.7101,-7.7085,-7.7106,-7.7106,-7.7065,-7.6993,-7.6985,-7.6989,-7.6999,-7.6999,-7.6999,-7.6999,0.0,0.0,0.0,0.0,0.0,0.0,0.0,0.0,0.0,-7.6275,-7.6275,-7.6275,-7.6275,-7.6275,-7.6275,-7.6275,-7.6442,-7.6541,-7.6541,-7.7413,-7.8072,-7.8405,-7.9464,-8.0197,-8.0506,-8.0506,-8.0506,-8.0506,-8.0506,-8.0506,-8.0506,-8.0506,-8.0506,-8.0468,-7.9933,-7.9054,-7.7946,-7.7373,-7.6494,-7.5518,-7.5518,-7.5514,-7.5599,0.0,0.0,0.0,0.0,0.0,0.0,0.0,0.0,0.0,0.0,0.0,0.0,0.0,0.0,0.0,0.0,0.0,0.0,0.0,0.0,0.0,0.0,0.0,0.0,0.0,0.0,0.0,0.0,0.0,0.0,0.0,0.0,0.0,0.0,-7.7101,-7.7101,-7.7101,-7.7101,-7.7101,-7.7101,-7.7101,-7.7101,-7.7101,-7.7101,-7.7101,-7.7101,-7.7101,-7.7101,-7.7101,-7.7101,-7.7101,-7.7101,-7.7101,-7.7101,-7.7101,-7.7101,-7.7101,-7.7101,-7.7101,-7.7101,-7.7101,-7.7101,-7.7085,-7.7106,-7.7106,-7.7065,-7.6993,-7.6985,-7.6989,-7.6999,-7.6999,-7.6999,-7.6999,0.0,0.0,0.0,0.0,0.0,0.0,0.0,-7.6275,-7.6275,-7.6275,-7.6275,-7.6275,-7.6275,-7.6275,-7.6275,-7.6275,-7.67,-7.6951,-7.7019,-7.7883,-7.8611,-7.9109,-8.002,-8.0506,-8.0506,-8.0506,-8.0506,-8.0506,-8.0506,-8.0506,-8.0506,-8.0506,-8.0506,-8.0506,-8.0506,-7.9551,-7.8022,-7.8022,-7.7029,-7.5518,-7.5518,-7.5553,-7.5599,0.0,0.0,0.0,0.0,0.0,0.0,0.0,0.0,0.0,0.0,0.0,0.0,0.0,0.0,0.0,0.0,0.0,0.0,0.0,0.0,0.0,0.0,0.0,0.0,0.0,0.0,0.0,0.0,0.0,0.0,0.0,0.0,0.0,-7.7101,-7.7101,-7.7101,-7.7101,-7.7101,-7.7101,-7.7101,-7.7101,-7.7101,-7.7101,-7.7101,-7.7101,-7.7101,-7.7101,-7.7101,-7.7101,-7.7101,-7.7101,-7.7101,-7.7101,-7.7101,-7.7101,-7.7101,-7.7101,-7.7101,-7.7101,-7.7101,-7.7101,-7.7101,-7.7085,-7.7105,-7.7105,-7.7065,-7.6997,-7.6997,-7.6995,-7.6999,-7.6999,-7.6999,-7.6999,0.0,0.0,0.0,0.0,0.0,0.0,0.0,-7.6275,-7.6275,-7.6275,-7.6275,-7.6275,-7.6275,-7.6275,-7.6275,-7.6275,-7.6409,-7.6636,-7.6988,-7.7731,-7.8677,-7.9849,-8.0276,-8.0506,-8.0506,-8.0506,-8.0506,-8.0506,-8.0506,-8.0506,-8.0506,-8.0506,-8.0506,-8.0506,-8.0506,-7.9551,-7.8022,-7.8022,-7.7029,-7.5518,-7.5518,-7.5518,-7.5514,0.0,0.0,0.0,0.0,0.0,0.0,0.0,0.0,0.0,0.0,0.0,0.0,0.0,0.0,0.0,0.0,0.0,0.0,0.0,0.0,0.0,0.0,0.0,0.0,0.0,0.0,0.0,0.0,0.0,0.0,0.0,-7.7101,-7.7101,-7.7101,-7.7101,-7.7101,-7.7101,-7.7101,-7.7101,-7.7101,-7.7101,-7.7101,-7.7101,-7.7101,-7.7101,-7.7101,-7.7101,-7.7101,-7.7101,-7.7101,-7.7101,-7.7101,-7.7101,-7.7101,-7.7101,-7.7101,-7.7101,-7.7101,-7.7101,-7.7101,-7.7101,-7.7101,-7.7107,-7.7081,-7.7101,-7.7069,-7.7005,-7.7011,-7.6995,-7.6999,-7.6999,-7.6999,-7.6999,0.0,0.0,0.0,0.0,0.0,0.0,0.0,-7.6275,-7.6275,-7.6275,-7.6275,-7.6275,-7.6275,-7.6275,-7.6376,-7.6607,-7.657,-7.6893,-7.7563,-7.8336,-7.9232,-8.0175,-8.0392,-8.0506,-8.0506,-8.0506,-8.0506,-8.0506,-8.0506,-8.0506,-8.0506,-8.0506,-8.0506,-8.0506,-8.0506,-7.9551,-7.8022,-7.8022,-7.7029,-7.5518,-7.5518,-7.5518,-7.5518,-7.5532,-7.5566,-7.5599,-7.5649,-7.566,-7.5708,-7.5794,0.0,0.0,0.0,0.0,0.0,0.0,0.0,0.0,0.0,0.0,0.0,0.0,0.0,0.0,0.0,0.0,0.0,0.0,0.0,0.0,0.0,0.0,0.0,0.0,-7.7101,-7.7101,-7.7101,-7.7101,-7.7101,-7.7101,-7.7101,-7.7101,-7.7101,-7.7101,-7.7101,-7.7101,-7.7101,-7.7101,-7.7101,-7.7101,-7.7101,-7.7101,-7.7101,-7.7101,-7.7101,-7.7101,-7.7101,-7.7101,-7.7101,-7.7101,-7.7101,-7.7101,-7.7101,0.0,-7.7101,-7.7101,-7.7104,-7.7099,-7.707,0.0,0.0,0.0,0.0,0.0,-7.6999,-7.6999,0.0,0.0,0.0,0.0,0.0,0.0,0.0,-7.6275,-7.6275,-7.6275,-7.6275,-7.6275,-7.6275,-7.6275,-7.6508,-7.6956,-7.7019,-7.7443,-7.8437,-7.934,-7.9971,-8.0235,-8.0411,-8.0506,-8.0506,-8.0506,-8.0506,-8.0506,-8.0506,-8.0506,-8.0506,-8.0506,-8.0506,-8.0506,-8.0391,-7.9474,-7.7984,-7.7908,-7.6953,-7.5518,-7.5518,-7.5518,-7.5518,-7.5518,-7.5553,-7.5583,-7.5583,-7.5633,-7.566,-7.5676,0.0,0.0,0.0,0.0,0.0,0.0,0.0,0.0,0.0,0.0,0.0,0.0,0.0,0.0,0.0,0.0,0.0,0.0,0.0,0.0,0.0,0.0,0.0,0.0,-7.7101,-7.7101,-7.7101,-7.7101,-7.7101,-7.7101,-7.7101,-7.7101,-7.7101,-7.7101,-7.7101,-7.7101,-7.7101,-7.7101,-7.7101,0.0,0.0,0.0,0.0,-7.7101,-7.7101,-7.7101,-7.7101,-7.7101,-7.7101,-7.7101,-7.7101,-7.7101,-7.7101,-7.7101,-7.7101,-7.7101,-7.7104,-7.7101,-7.7069,-7.7009,-7.7007,-7.6985,-7.6999,-7.6999,-7.6999,-7.6999,0.0,0.0,0.0,0.0,0.0,0.0,0.0,-7.6275,-7.6275,-7.6275,-7.6275,-7.6275,-7.6275,-7.6275,-7.6508,-7.6956,-7.7019,-7.7548,-7.8866,-7.9681,-8.0235,-8.045,-8.0487,-8.0506,-8.0506,-8.0506,-8.0506,-8.0506,-8.0506,-8.0506,-8.0506,-8.0506,-8.0506,-8.0468,-7.9818,-7.8939,-7.7946,-7.7258,-7.6379,-7.5518,-7.5518,-7.5518,-7.5518,-7.5518,-7.5518,-7.5535,-7.5535,-7.5553,-7.5532,-7.5599,-7.5633,-7.5666,-7.5733,-7.5918,0.0,0.0,0.0,0.0,0.0,0.0,0.0,0.0,0.0,0.0,0.0,0.0,0.0,0.0,0.0,0.0,0.0,0.0,0.0,-7.7101,-7.7101,-7.7101,-7.7101,-7.7101,-7.7101,-7.7101,-7.7101,-7.7101,-7.7101,-7.7101,-7.7101,-7.7101,-7.7101,-7.7101,-7.7101,-7.7101,-7.7101,-7.7101,-7.7101,-7.7101,-7.7101,-7.7101,-7.7101,-7.7101,0.0,0.0,-7.7101,-7.7101,-7.7101,-7.7101,-7.7101,-7.7101,-7.7107,-7.7031,-7.6995,-7.7009,-7.6994,-7.7017,-7.6999,-7.6999,-7.6999,-7.6999,0.0,0.0,0.0,0.0,0.0,0.0,0.0,-7.6275,-7.6275,-7.6275,-7.6275,-7.6275,-7.6275,-7.6275,-7.6508,-7.6956,-7.7555,-7.8255,-7.9037,-7.9768,-8.0295,-8.0506,-8.0506,-8.0506,-8.0506,-8.0506,-8.0506,-8.0506,-8.0506,-8.0506,-8.0506,-8.0506,-8.0506,-8.0468,-7.9665,-7.8825,-7.7946,-7.7067,-7.6227,-7.5518,-7.5518,-7.5518,-7.5518,-7.5518,-7.5518,-7.5518,-7.5518,-7.5518,-7.5518,-7.5553,-7.5599,-7.5666,-7.5676,-7.5855,-7.6056,0.0,0.0,0.0,0.0,0.0,0.0,0.0,0.0,0.0,0.0,0.0,0.0,0.0,0.0,-7.7101,-7.7101,0.0,-7.7101,-7.7101,-7.7101,-7.7101,-7.7101,-7.7101,-7.7101,-7.7101,-7.7101,-7.7101,-7.7101,-7.7101,-7.7101,-7.7101,-7.7101,-7.7101,-7.7101,-7.7101,-7.7101,-7.7101,-7.7101,-7.7101,-7.7101,-7.7101,-7.7101,-7.7101,-7.7101,-7.7101,-7.7101,-7.7101,-7.7101,-7.7101,-7.7101,-7.7101,-7.7107,-7.7031,-7.699,-7.7019,-7.7017,-7.6999,-7.6999,-7.6999,-7.6999,-7.6999,0.0,0.0,0.0,0.0,0.0,0.0,0.0,0.0,0.0,-7.6275,-7.6275,-7.6275,-7.6275,-7.6275,-7.6574,-7.7169,-7.8319,-7.9088,-7.9288,-7.9912,-8.0334,-8.0506,-8.0506,-8.0506,-8.0506,-8.0506,-8.0506,-8.0506,-8.0506,-8.0506,-8.0506,-8.0353,-8.0277,-8.02,-7.9245,-7.8404,-7.7678,-7.6838,-7.6074,-7.5518,-7.5518,-7.5518,-7.5518,-7.5518,-7.5518,-7.5518,-7.5518,-7.5518,-7.5518,-7.5518,-7.5566,-7.5644,-7.5644,-7.5794,-7.5976,-7.6147,-7.6222,0.0,0.0,0.0,0.0,0.0,0.0,0.0,0.0,-7.7101,-7.7101,-7.7101,-7.7101,-7.7101,-7.7101,-7.7101,-7.7101,-7.7101,-7.7101,-7.7101,-7.7101,-7.7101,-7.7101,-7.7101,-7.7101,-7.7101,-7.7101,-7.7101,-7.7101,-7.7101,-7.7101,-7.7101,-7.7101,-7.7101,-7.7101,-7.7101,-7.7101,-7.7101,-7.7101,-7.7101,-7.7101,-7.7101,-7.7101,-7.7101,-7.7101,-7.7101,-7.7101,-7.7101,-7.7101,-7.7107,-7.712,-7.7031,-7.7007,-7.6989,-7.7009,-7.7017,-7.6999,-7.6999,-7.6999,-7.6999,0.0,0.0,0.0,0.0,0.0,0.0,0.0,0.0,0.0,-7.6275,-7.6275,-7.6275,-7.6275,-7.6275,-7.6728,-7.7866,-7.904,-7.9784,-8.0055,-8.0296,-8.0487,-8.0506,-8.0506,-8.0506,-8.0506,-8.0506,-8.0506,-8.0506,-8.0506,-8.0506,-8.0468,-7.978,-7.9454,-7.9378,-7.7717,-7.6953,-7.68,-7.5959,-7.5594,-7.5518,-7.5518,-7.5518,-7.5518,-7.5518,-7.5518,-7.5518,-7.5518,-7.5518,-7.5518,-7.5518,-7.5518,-7.5497,-7.5497,-7.5616,-7.5724,-7.5772,-7.6041,-7.635,-7.6552,-7.6843,-7.7036,-7.6882,-7.6973,-7.7101,0.0,-7.7101,-7.7101,-7.7101,-7.7101,-7.7101,-7.7101,-7.7101,-7.7101,-7.7101,-7.7101,-7.7101,-7.7101,-7.7101,-7.7101,-7.7101,-7.7101,-7.7101,-7.7101,-7.7101,-7.7101,-7.7101,-7.7101,-7.7101,-7.7101,-7.7101,-7.7101,-7.7101,-7.7101,-7.7101,-7.7101,-7.7101,-7.7101,-7.7101,-7.7101,-7.7101,-7.7101,-7.7101,-7.7101,-7.7101,-7.7101,-7.7083,-7.7104,-7.7107,-7.7062,-7.6993,-7.6989,-7.6985,-7.6999,-7.6999,-7.6999,-7.6999,0.0,0.0,0.0,0.0,0.0,0.0,0.0,0.0,0.0,0.0,0.0,-7.6275,-7.6275,-7.6538,-7.7076,-7.8007,-7.8904,-7.9636,-8.0175,-8.0392,-8.0506,-8.0506,-8.0506,-8.0506,-8.0506,-8.0506,-8.0506,-8.0506,-8.0506,-8.0238,-7.978,-7.9454,-7.9016,-7.8481,-7.7258,-7.6685,-7.6647,-7.5844,-7.5518,-7.5518,-7.5518,-7.5518,-7.5518,-7.5518,-7.5518,-7.5518,-7.5518,-7.5535,0.0,-7.5535,-7.5549,-7.5616,-7.5566,-7.5666,-7.581,-7.581,-7.5938,-7.6186,-7.6372,-7.6605,-7.6819,-7.6799,-7.6838,-7.6965,-7.7053,-7.7101,-7.7101,-7.7101,-7.7101,-7.7101,-7.7101,-7.7101,-7.7101,-7.7101,-7.7101,-7.7101,-7.7101,-7.7101,-7.7101,-7.7101,-7.7101,-7.7101,-7.7101,-7.7101,-7.7101,-7.7101,-7.7101,-7.7101,-7.7101,-7.7101,-7.7101,-7.7101,-7.7101,-7.7101,-7.7101,-7.7101,-7.7101,-7.7101,-7.7101,-7.7101,-7.7101,-7.7101,-7.7101,-7.7101,-7.7101,-7.7112,-7.7089,-7.7103,-7.707,-7.7061,-7.702,-7.7016,-7.6985,-7.7017,-7.6999,-7.6999,0.0,0.0,0.0,0.0,0.0,0.0,0.0,0.0,0.0,0.0,0.0,0.0,0.0,-7.6797,-7.7376,-7.82,-7.8854,-7.9487,-8.0217,-8.0431,-8.0506,-8.0506,-8.0506,-8.0506,-8.0506,-8.0277,-8.0162,-8.0162,-7.9933,-7.9513,-7.8939,-7.871,-7.8252,-7.7602,-7.6761,-7.6379,-7.6341,-7.573,-7.5518,-7.5518,-7.5518,-7.5518,-7.5518,-7.5518,-7.5518,-7.5518,-7.5518,-7.5532,-7.5583,-7.5532,-7.5616,-7.5676,-7.5649,-7.5731,-7.5895,-7.5895,-7.5976,-7.6093,-7.6186,-7.6415,-7.6596,-7.6669,-7.6748,-7.6827,-7.6977,-7.705,-7.7101,-7.7101,-7.7101,-7.7101,-7.7101,-7.7101,-7.7101,-7.7101,-7.7101,-7.7101,-7.7101,-7.7101,-7.7101,-7.7101,-7.7101,-7.7101,-7.7101,-7.7101,-7.7101,-7.7101,-7.7101,-7.7101,-7.7101,-7.7101,-7.7101,-7.7101,-7.7101,-7.7101,-7.7101,-7.7101,-7.7101,-7.7101,-7.7101,-7.7101,-7.7101,-7.7101,-7.7101,-7.7101,-7.7101,-7.7101,-7.7104,-7.7091,-7.7103,-7.7108,-7.7055,-7.702,-7.6989,-7.7019,-7.6983,-7.6999,0.0,0.0,0.0,0.0,0.0,0.0,0.0,0.0,0.0,0.0,0.0,0.0,0.0,0.0,-7.768,-7.8588,-7.9112,-7.9681,-8.045,-8.0506,-8.0506,-8.0506,-8.0506,-8.0506,-8.0506,-7.9742,-7.934,-7.934,-7.8481,-7.8061,-7.8022,-7.7182,-7.6761,-7.6685,-7.5883,-7.5556,-7.5556,-7.5518,-7.5518,-7.5518,-7.5518,-7.5518,-7.5518,-7.5518,-7.5518,-7.5518,-7.5518,-7.5532,-7.5599,-7.5599,-7.5649,-7.5692,-7.5692,-7.5779,-7.5895,-7.5895,-7.6079,-7.626,-7.6062,-7.6281,-7.6534,-7.6361,-7.654,-7.6804,-7.6804,-7.6969,-7.7101,-7.7101,-7.7101,-7.7101,-7.7101,-7.7101,-7.7101,-7.7101,-7.7101,-7.7101,-7.7101,-7.7101,-7.7101,-7.7101,-7.7101,-7.7101,0.0,-7.7101,-7.7101,-7.7101,-7.7101,-7.7101,-7.7101,-7.7101,-7.7101,-7.7101,-7.7101,-7.7101,-7.7101,-7.7101,-7.7101,-7.7101,-7.7101,-7.7101,-7.7101,-7.7101,-7.7101,-7.7101,-7.7101,-7.7101,-7.7101,-7.7101,-7.7087,-7.7106,-7.7107,-7.7062,-7.6993,-7.6993,-7.699,-7.6999,0.0,0.0,0.0,0.0,0.0,0.0,0.0,0.0,0.0,0.0,0.0,0.0,0.0,0.0,0.0,0.0,-7.9026,-7.9702,-8.043,-8.0506,-8.0506,-8.0506,-8.0506,-8.0238,-7.9704,-7.9454,-7.9016,-7.8443,-7.8137,-7.7717,-7.7144,-7.6838,-7.6418,-7.5883,-7.5633,-7.5518,-7.5518,-7.5518,-7.5518,-7.5518,-7.5518,-7.5518,-7.5518,-7.5518,-7.5518,-7.5518,0.0,-7.5532,-7.5599,-7.5599,-7.5649,-7.5692,-7.5692,-7.5794,-7.5895,-7.5955,-7.6034,-7.6104,-7.6005,-7.6093,-7.626,-7.6457,-7.657,-7.6713,-7.696,-7.7046,-7.7101,-7.7101,-7.7101,-7.7101,-7.7101,-7.7101,-7.7101,-7.7101,-7.7101,-7.7101,-7.7101,-7.7101,-7.7101,-7.7101,-7.7101,0.0,0.0,0.0,0.0,-7.7101,-7.7101,-7.7101,-7.7101,-7.7101,-7.7101,-7.7101,-7.7101,-7.7101,-7.7101,-7.7101,-7.7101,-7.7101,-7.7101,-7.7101,-7.7101,-7.7101,-7.7101,-7.7101,-7.7101,-7.7101,-7.7101,-7.7101,-7.711,-7.7085,-7.7103,-7.7109,-7.7065,-7.7023,-7.6981,-7.6995,0.0,0.0,0.0,0.0,0.0,0.0,0.0,0.0,0.0,0.0,0.0,0.0,0.0,0.0,0.0,0.0,0.0,-7.9614,-8.043,-8.0506,-8.0353,-8.0086,-8.0047,-7.9665,-7.8825,-7.8519,-7.8099,-7.7526,-7.7258,-7.68,-7.6265,-7.6265,-7.5997,-7.5518,-7.5518,-7.5518,-7.5518,-7.5518,-7.5518,-7.5518,-7.5518,-7.5518,-7.5518,-7.5518,-7.5518,0.0,-7.5518,-7.5553,-7.5566,-7.5633,-7.5699,-7.5779,-7.581,-7.5856,-7.594,-7.6,-7.6015,-7.6015,-7.6015,-7.6015,-7.6076,-7.6316,-7.6507,-7.6676,-7.6861,-7.7024,-7.7101,-7.7101,-7.7101,-7.7101,-7.7101,-7.7101,-7.7101,-7.7101,-7.7101,-7.7101,-7.7101,-7.7101,-7.7101,-7.7101,-7.7101,-7.7101,0.0,0.0,0.0,-7.7101,-7.7101,-7.7101,-7.7101,-7.7101,-7.7101,-7.7101,-7.7101,-7.7101,-7.7101,-7.7101,-7.7101,-7.7101,-7.7101,-7.7101,-7.7101,-7.7101,-7.7101,-7.7101,-7.7101,-7.7101,-7.7101,-7.7101,-7.7101,-7.7104,-7.7089,-7.7101,-7.7108,-7.706,-7.7029,-7.6985,0.0,0.0,0.0,0.0,0.0,0.0,0.0,0.0,0.0,0.0,0.0,0.0,0.0,0.0,0.0,0.0,0.0,0.0,-8.0411,-8.0506,-8.0124,-7.934,-7.9302,-7.8863,-7.7946,-7.7105,-7.6685,-7.6647,-7.5844,-7.5518,-7.5518,-7.5518,-7.5518,-7.5518,-7.5518,-7.5518,-7.5518,-7.5518,-7.5518,-7.5518,-7.5518,-7.5518,-7.5518,-7.5518,-7.5518,-7.5518,-7.5518,-7.5518,-7.5535,-7.5644,-7.5794,-7.591,-7.5985,-7.6015,-7.6015,-7.6015,-7.6015,-7.6015,-7.6015,-7.6015,-7.6015,-7.5991,-7.6293,-7.6609,-7.6626,-7.6849,-7.7098,-7.7101,-7.7101,-7.7101,-7.7101,-7.7101,-7.7101,-7.7101,-7.7101,-7.7101,-7.7101,-7.7101,-7.7101,-7.7101,-7.7101,-7.7101,-7.7101,-7.7101,0.0,-7.7101,0.0,-7.7101,-7.7101,-7.7101,-7.7101,-7.7101,-7.7101,-7.7101,-7.7101,-7.7101,-7.7101,-7.7101,-7.7101,-7.7101,-7.7101,-7.7101,-7.7101,-7.7101,-7.7101,-7.7101,-7.7101,-7.7101,-7.7101,-7.7101,-7.7101,-7.7085,-7.7105,-7.7105,-7.7065,-7.6997,0.0,0.0,0.0,0.0,0.0,0.0,0.0,0.0,0.0,0.0,0.0,0.0,0.0,0.0,0.0,0.0,0.0,0.0,-8.0468,-8.0506,0.0,0.0,0.0,0.0,0.0,-7.68,-7.6418,-7.5806,-7.5577,-7.5518,-7.5518,-7.5518,-7.5518,-7.5518,-7.5518,-7.5518,-7.5518,-7.5518,-7.5518,-7.5518,-7.5518,-7.5518,-7.5518,-7.5518,-7.5518,-7.5518,-7.5518,-7.5518,-7.5535,-7.5644,-7.5826,-7.597,-7.594,-7.597,-7.6015,-7.6015,-7.6015,-7.6015,-7.6015,-7.6015,-7.6034,-7.6173,-7.6281,-7.6428,-7.6706,-7.6804,-7.6907,-7.7053,-7.7101,-7.7101,-7.7101,-7.7101,-7.7101,-7.7101,-7.7101,-7.7101,-7.7101,-7.7101,-7.7101,-7.7101,-7.7101,-7.7101,-7.7101,-7.7101,0.0,0.0,-7.7101,-7.7101,-7.7101,-7.7101,-7.7101,-7.7101,-7.7101,-7.7101,-7.7101,-7.7101,-7.7101,-7.7101,-7.7101,-7.7101,-7.7101,-7.7101,-7.7101,-7.7101,-7.7101,-7.7101,-7.7101,-7.7101,-7.7101,-7.7101,-7.7101,-7.7107,-7.7081,-7.7101,-7.7109,-7.7067,0.0,0.0,0.0,0.0,0.0,0.0,0.0,0.0,0.0,0.0,0.0,0.0,0.0,0.0,0.0,0.0,0.0,0.0,0.0,-8.0162,0.0,0.0,0.0,0.0,0.0,0.0,-7.5959,-7.5518,-7.5518,-7.5518,-7.5518,-7.5518,-7.5518,-7.5518,-7.5518,-7.5518,-7.5518,-7.5518,-7.5518,0.0,0.0,-7.5518,-7.5518,-7.5518,-7.5518,-7.5518,-7.5518,-7.5535,-7.5549,-7.5649,-7.5794,-7.5955,-7.591,-7.594,-7.6015,-7.6015,-7.6015,-7.6015,-7.6015,-7.6015,-7.602,-7.6147,-7.6236,-7.635,-7.6552,-7.6675,-7.6822,-7.696,-7.7039,-7.7101,-7.7101,-7.7101,-7.7101,-7.7101,-7.7101,-7.7101,-7.7101,-7.7101,-7.7101,-7.7101,-7.7101,-7.7101,-7.7101,-7.7101,-7.7101,0.0,-7.7101,-7.7101,-7.7101,-7.7101,-7.7101,-7.7101,-7.7101,-7.7101,-7.7101,-7.7101,-7.7101,-7.7101,-7.7101,-7.7101,-7.7101,-7.7101,-7.7101,-7.7101,0.0,-7.7101,-7.7101,-7.7101,-7.7101,-7.7101,-7.7101,-7.7101,-7.7104,-7.7087,-7.71,-7.7108,0.0,0.0,0.0,0.0,0.0,0.0,0.0,0.0,0.0,0.0,0.0,0.0,0.0,0.0,0.0,0.0,0.0,0.0,0.0,0.0,0.0,0.0,0.0,0.0,-7.5518,-7.5518,-7.5518,-7.5518,-7.5518,-7.5518,-7.5518,-7.5518,-7.5518,-7.5518,-7.5518,-7.5518,-7.5518,-7.5518,-7.5518,-7.5518,-7.5518,-7.5518,-7.5518,0.0,0.0,-7.5518,-7.5518,-7.5553,-7.5583,-7.5599,-7.5715,-7.5895,-7.5895,-7.594,-7.6015,-7.6015,-7.6015,-7.6015,-7.6015,-7.6015,-7.6015,-7.6015,-7.6133,-7.6285,-7.6281,-7.6561,-7.678,-7.6799,-7.6969,-7.7101,-7.7101,-7.7101,-7.7101,-7.7101,-7.7101,-7.7101,-7.7101,-7.7101,-7.7101,-7.7101,-7.7101,-7.7101,-7.7101,-7.7101,-7.7101,-7.7101,-7.7101,-7.7101,-7.7101,-7.7101,-7.7101,-7.7101,-7.7101,-7.7101,-7.7101,-7.7101,-7.7101,-7.7101,-7.7101,-7.7101,-7.7101,-7.7101,-7.7101,-7.7101,0.0,0.0,-7.7101,-7.7101,-7.7101,-7.7101,-7.7101,-7.7101,-7.7101,-7.7101,-7.7085,-7.7104,0.0,0.0,0.0,0.0,0.0,0.0,0.0,0.0,0.0,0.0,-7.821,-7.8299,0.0,0.0,0.0,0.0,0.0,0.0,0.0,0.0,0.0,0.0,0.0,0.0,-7.5518,-7.5518,-7.5518,-7.5518,-7.5518,-7.5518,-7.5518,-7.5518,-7.5518,-7.5518,-7.5518,-7.5518,-7.5518,-7.5518,-7.5518,-7.5518,-7.5518,-7.5518,-7.5518,0.0,0.0,0.0,-7.5518,-7.5518,-7.5535,-7.5566,-7.5715,-7.5895,-7.5895,-7.594,-7.6015,-7.6015,-7.6015,-7.6015,-7.6015,-7.6015,-7.6015,-7.6015,-7.602,-7.6079,-7.6273,-7.6458,-7.6661,-7.678,-7.6969,-7.7101,-7.7101,-7.7101,-7.7101,-7.7101,-7.7101,-7.7101,-7.7101,-7.7101,-7.7101,-7.7101,-7.7101,-7.7101,-7.7101,-7.7101,0.0,0.0,0.0,-7.7101,-7.7101,-7.7101,-7.7101,-7.7101,-7.7101,-7.7101,-7.7101,-7.7101,-7.7101,-7.7101,-7.7101,-7.7101,-7.7101,-7.7101,-7.7101,-7.7101,-7.7101,0.0,-7.7101,-7.7101,-7.7101,-7.7101,-7.7101,-7.7101,-7.7101,-7.7101,-7.7107,-7.7117,0.0,0.0,0.0,0.0,0.0,0.0,0.0,-7.8192,-7.8506,-7.9246,-7.9232,-7.9372,-7.9811,-7.9958,-8.0159,0.0,0.0,0.0,0.0,0.0,0.0,0.0,0.0,0.0,0.0,-7.5518,-7.5518,-7.5518,0.0,-7.5518,-7.5518,-7.5518,-7.5518,-7.5518,-7.5518,-7.5518,-7.5518,-7.5518,-7.5518,-7.5518,-7.5518,-7.5518,0.0,0.0,0.0,0.0,0.0,-7.5518,-7.5518,-7.5566,-7.5682,-7.5794,-7.5879,-7.594,-7.6015,-7.6015,-7.6015,-7.6015,-7.6015,-7.6015,-7.6015,-7.6015,-7.6015,-7.602,-7.612,-7.6383,-7.6635,-7.6677,-7.6892,-7.7101,-7.7101,-7.7101,-7.7101,-7.7101,-7.7101,-7.7101,-7.7101,-7.7101,-7.7101,-7.7101,-7.7101,-7.7101,-7.7101,-7.7101,-7.7101,-7.7101,0.0,-7.7101,-7.7101,-7.7101,-7.7101,-7.7101,-7.7101,-7.7101,-7.7101,-7.7101,-7.7101,-7.7101,-7.7101,-7.7101,-7.7101,-7.7101,-7.7101,-7.7101,-7.7101,0.0,-7.7101,-7.7101,-7.7101,-7.7101,-7.7101,-7.7101,-7.7101,-7.7101,-7.7101,-7.7104,0.0,0.0,0.0,0.0,0.0,0.0,0.0,-7.8777,-7.915,-7.9718,-8.0013,-8.0215,-8.0255,-8.0411,-8.0506,0.0,0.0,0.0,0.0,0.0,0.0,0.0,0.0,0.0,0.0,0.0,0.0,-7.5518,-7.5518,0.0,0.0,0.0,0.0,0.0,-7.5518,-7.5518,-7.5518,-7.5518,-7.5518,0.0,0.0,-7.5518,0.0,0.0,0.0,0.0,0.0,-7.5518,-7.5518,-7.5566,-7.5649,-7.5676,-7.5864,-7.594,-7.6015,-7.6015,-7.6015,-7.6015,-7.6015,-7.6015,-7.6015,-7.6015,-7.6015,-7.6015,-7.6015,-7.6297,-7.6564,-7.6609,-7.6838,-7.7043,-7.7098,-7.7101,-7.7101,-7.7101,-7.7101,-7.7101,-7.7101,-7.7101,-7.7101,-7.7101,-7.7101,-7.7101,-7.7101,-7.7101,0.0,-7.7101,0.0,0.0,-7.7101,-7.7101,-7.7101,-7.7101,-7.7101,-7.7101,-7.7101,-7.7101,-7.7101,-7.7101,-7.7101,-7.7101,-7.7101,-7.7101,-7.7101,-7.7101,-7.7101,0.0,0.0,-7.7101,-7.7101,-7.7101,-7.7101,-7.7101,-7.7101,-7.7101,-7.7101,-7.7101,0.0,0.0,0.0,0.0,0.0,0.0,0.0,-7.9249,-7.9509,-7.9778,-8.0013,-8.0275,-8.0468,-8.0506,-8.0506,0.0,0.0,0.0,0.0,0.0,0.0,0.0,0.0,0.0,0.0,0.0,0.0,-7.5518,-7.5518,0.0,0.0,0.0,0.0,0.0,0.0,-7.5518,-7.5518,-7.5518,0.0,0.0,0.0,0.0,0.0,0.0,0.0,0.0,0.0,-7.5518,-7.5518,-7.5566,-7.5599,-7.5633,-7.5833,-7.594,-7.6015,-7.6015,-7.6015,-7.6015,-7.6015,-7.6015,-7.6015,-7.6015,-7.6015,-7.6015,-7.6015,-7.6147,-7.6383,-7.6582,-7.6721,-7.6892,-7.705,-7.7101,-7.7101,-7.7101,-7.7101,-7.7101,-7.7101,-7.7101,-7.7101,-7.7101,-7.7101,0.0,-7.7101,-7.7101,-7.7101,-7.7101,0.0,0.0,-7.7101,-7.7101,-7.7101,-7.7101,-7.7101,-7.7101,-7.7101,-7.7101,-7.7101,-7.7101,-7.7101,-7.7101,-7.7101,-7.7101,-7.7101,-7.7101,-7.7101,0.0,0.0,-7.7101,-7.7101,-7.7101,-7.7101,-7.7101,-7.7101,-7.7101,-7.7101,-7.7101,0.0,0.0,0.0,0.0,0.0,0.0,-7.9004,-7.9439,-7.9712,-7.98,-8.0137,-8.0411,-8.0506,-8.0506,-8.0506,-8.0506,0.0,0.0,0.0,0.0,0.0,0.0,0.0,0.0,0.0,0.0,-7.5518,-7.5518,-7.5518,0.0,0.0,0.0,0.0,0.0,0.0,-7.5518,-7.5518,-7.5518,0.0,0.0,0.0,0.0,0.0,0.0,0.0,0.0,0.0,0.0,-7.5518,-7.5553,-7.5549,-7.5616,-7.5747,-7.5841,-7.5955,-7.6,-7.6015,-7.6015,-7.6015,-7.6015,-7.6015,-7.6015,-7.6015,-7.6015,-7.6015,-7.6173,-7.635,-7.6573,-7.6706,-7.6877,-7.705,-7.7101,-7.7101,-7.7101,-7.7101,-7.7101,-7.7101,-7.7101,-7.7101,-7.7101,-7.7101,-7.7101,0.0,0.0,-7.7101,0.0,0.0,0.0,-7.7101,-7.7101,-7.7101,-7.7101,-7.7101,-7.7101,-7.7101,-7.7101,-7.7101,-7.7101,-7.7101,-7.7101,-7.7101,-7.7101,-7.7101,-7.7101,-7.7101,0.0,0.0,-7.7101,-7.7101,-7.7101,-7.7101,-7.7101,-7.7101,-7.7101,-7.7101,-7.7101,0.0,0.0,0.0,0.0,0.0,-7.8712,-7.9029,-7.9509,-7.9784,-7.9784,-8.0217,-8.0506,-8.0506,-8.0506,-8.0506,-8.0506,-8.0506,0.0,0.0,0.0,0.0,0.0,0.0,0.0,0.0,0.0,-7.5518,-7.5518,-7.5518,-7.5518,0.0,0.0,-7.5518,-7.5518,0.0,0.0,0.0,0.0,0.0,0.0,0.0,0.0,0.0,0.0,0.0,0.0,0.0,0.0,0.0,0.0,0.0,-7.5583,-7.566,-7.5779,-7.5879,-7.5985,-7.6015,-7.6015,-7.6015,-7.6015,-7.6015,-7.6015,-7.6015,-7.6015,-7.6015,-7.6106,-7.6285,-7.6487,-7.6638,-7.6786,-7.6973,-7.705,-7.7101,-7.7101,-7.7101,-7.7101,-7.7101,-7.7101,-7.7101,-7.7101,0.0,-7.7101,0.0,-7.7101,-7.7101,0.0,0.0,0.0,-7.7101,-7.7101,-7.7101,-7.7101,-7.7101,-7.7101,-7.7101,-7.7101,-7.7101,-7.7101,-7.7101,-7.7101,-7.7101,-7.7101,-7.7101,-7.7101,0.0,0.0,0.0,-7.7101,-7.7101,-7.7101,-7.7101,-7.7101,-7.7101,-7.7101,-7.7101,-7.7101,0.0,0.0,0.0,0.0,0.0,0.0,-7.9116,-7.9509,-7.9784,-7.9784,-8.0217,-8.0506,-8.0506,-8.0506,-8.0506,-8.0506,-8.0506,0.0,0.0,0.0,0.0,0.0,0.0,0.0,0.0,0.0,-7.5518,-7.5518,-7.5518,-7.5518,-7.5518,-7.5518,-7.5518,-7.5518,0.0,0.0,0.0,0.0,0.0,0.0,0.0,0.0,0.0,0.0,0.0,0.0,0.0,0.0,0.0,0.0,0.0,0.0,0.0,-7.5692,-7.5724,-7.5932,-7.6015,-7.6015,-7.6015,-7.6015,-7.6015,-7.6015,-7.6015,-7.6015,-7.6015,-7.6015,-7.6062,-7.6273,-7.6477,-7.6629,-7.678,-7.6969,-7.7101,-7.7101,-7.7101,0.0,-7.7101,-7.7101,-7.7101,0.0,0.0,-7.7101,-7.7101,-7.7101,0.0,0.0,0.0,0.0,-7.7101,-7.7101,-7.7101,-7.7101,-7.7101,-7.7101,-7.7101,-7.7101,-7.7101,-7.7101,-7.7101,-7.7101,-7.7101,-7.7101,-7.7101,0.0,0.0,0.0,0.0,-7.7101,-7.7101,-7.7101,-7.7101,-7.7101,-7.7101,-7.7101,-7.7101,-7.7101,0.0,0.0,0.0,0.0,0.0,0.0,0.0,-7.9509,-7.9784,-7.9784,-8.0217,-8.0506,-8.0506,-8.0506,-8.0506,-8.0506,-8.0506,0.0,0.0,0.0,0.0,0.0,0.0,0.0,0.0,-7.5518,-7.5518,-7.5518,-7.5518,-7.5518,-7.5518,-7.5518,-7.5518,-7.5518,-7.5518,-7.5518,0.0,0.0,0.0,0.0,0.0,0.0,0.0,0.0,0.0,0.0,0.0,0.0,0.0,0.0,0.0,0.0,0.0,0.0,0.0,-7.5932,-7.6015,-7.6015,-7.6015,-7.6015,-7.6015,-7.6015,-7.6015,-7.6015,-7.6015,-7.6015,-7.6062,-7.6273,-7.635,-7.6468,-7.6761,-7.6833,-7.696,-7.7095,-7.7101,0.0,0.0,0.0,0.0,-7.7101,-7.7101,-7.7101,0.0,0.0,0.0,0.0,0.0,0.0,-7.7101,-7.7101,-7.7101,-7.7101,-7.7101,-7.7101,-7.7101,-7.7101,-7.7101,-7.7101,-7.7101,-7.7101,-7.7101,-7.7101,0.0,0.0,0.0,0.0,0.0,-7.7101,-7.7101,-7.7101,-7.7101,-7.7101,-7.7101,-7.7101,-7.7101,-7.7101,0.0,0.0,0.0,0.0,0.0,0.0,0.0,-7.9509,-7.9784,-7.9784,-8.0217,-8.0506,-8.0506,-8.0506,-8.0506,-8.0506,-8.02,0.0,0.0,0.0,0.0,0.0,0.0,0.0,-7.5518,-7.5518,-7.5518,-7.5518,-7.5518,-7.5518,-7.5518,-7.5518,-7.5518,-7.5518,-7.5518,-7.5518,0.0,0.0,0.0,0.0,0.0,0.0,-7.5518,0.0,0.0,0.0,0.0,0.0,0.0,0.0,0.0,0.0,0.0,0.0,0.0,0.0,-7.6938,-7.6861,-7.6553,-7.6245,-7.6092,-7.6399,-7.6245,-7.6015,-7.6015,-7.6015,-7.6034,-7.6173,-7.626,-7.6405,-7.6684,-7.6768,-7.6882,-7.705,-7.7101,-7.7101,0.0,0.0,0.0,-7.7101,0.0,0.0,0.0,0.0,0.0,0.0,0.0,0.0,-7.7101,-7.7101,-7.7101,-7.7101,-7.7101,-7.7101,-7.7101,-7.7101,-7.7101,-7.7101,-7.7101,-7.7101,-7.7101,-7.7101,0.0,0.0,0.0,0.0,0.0,-7.7101,-7.7101,-7.7101,-7.7101,-7.7101,-7.7101,-7.7101,-7.7101,-7.7101,0.0,0.0,0.0,0.0,0.0,0.0,0.0,-7.9532,-7.9822,-7.9843,-8.0217,-8.0506,-8.0506,-8.0506,-8.0506,-8.0506,0.0,0.0,0.0,0.0,0.0,0.0,0.0,0.0,-7.5518,-7.5518,-7.5518,-7.5518,-7.5518,-7.5518,-7.5518,-7.5518,-7.5518,-7.5518,-7.5518,-7.5518,0.0,0.0,0.0,0.0,-7.5518,-7.5518,0.0,0.0,0.0,0.0,0.0,0.0,0.0,0.0,0.0,0.0,0.0,0.0,0.0,0.0,0.0,0.0,0.0,-7.6784,-7.6284,-7.7092,-7.663,-7.6015,-7.6015,-7.6015,0.0,-7.6015,-7.616,-7.6339,-7.6573,-7.6699,-7.6833,-7.7089,-7.7101,0.0,0.0,-7.7101,0.0,0.0,-7.7101,0.0,-7.7101,0.0,0.0,0.0,0.0,0.0,0.0,-7.7101,-7.7101,-7.7101,-7.7101,-7.7101,-7.7101,-7.7101,-7.7101,-7.7101,-7.7101,-7.7101,-7.7101,-7.7101,0.0,0.0,0.0,0.0,0.0,-7.7101,-7.7101,-7.7101,-7.7101,-7.7101,-7.7101,-7.7101,-7.7101,-7.7101,0.0,0.0,0.0,0.0,0.0,0.0,0.0,0.0,0.0,0.0,-8.0354,-8.0506,-8.0506,-8.0506,-8.0506,0.0,0.0,0.0,0.0,0.0,0.0,0.0,0.0,0.0,-7.5518,-7.5518,-7.5518,-7.5518,-7.5518,-7.5518,-7.5518,-7.5518,-7.5518,-7.5518,-7.5518,-7.5518,0.0,0.0,0.0,0.0,-7.5518,-7.5518,0.0,0.0,0.0,0.0,-7.6188,-7.6418,0.0,0.0,0.0,0.0,0.0,0.0,0.0,0.0,-7.8477,-7.8592,-7.9092,0.0,-7.7053,-7.7246,-7.663,-7.6015,0.0,-7.6015,-7.6015,-7.6015,-7.6034,-7.616,-7.6516,-7.6652,-7.6767,-7.7043,-7.7101,-7.7101,-7.7101,-7.7101,0.0,-7.7101,-7.7101,-7.7101,0.0,0.0,0.0,0.0,0.0,-7.7101,0.0,-7.7101,-7.7101,-7.7101,-7.7101,-7.7101,-7.7101,-7.7101,-7.7101,-7.7101,-7.7101,-7.7101,-7.7101,-7.7101,0.0,0.0,0.0,0.0,-7.7101,-7.7101,-7.7101,-7.7101,-7.7101,-7.7101,-7.7101,-7.7101,-7.7101,-7.7101,0.0,0.0,0.0,0.0,0.0,0.0,0.0,0.0,0.0,0.0,0.0,0.0,0.0,0.0,0.0,0.0,0.0,0.0,0.0,0.0,0.0,0.0,0.0,-7.5518,-7.5518,-7.5518,-7.5518,-7.5518,-7.5518,-7.5518,-7.5518,-7.5518,-7.5518,-7.5518,-7.5518,-7.5518,-7.5518,-7.5518,-7.5518,-7.5518,-7.5518,0.0,0.0,0.0,0.0,0.0,-7.6532,-7.6953,0.0,-7.829,-7.865,-7.8794,0.0,0.0,0.0,0.0,-7.9669,-7.9785,-8.0285,-7.8861,-7.74,-7.7746,-7.6899,-7.6015,-7.6015,-7.6015,-7.6015,-7.6015,-7.6015,-7.6079,-7.6415,-7.6555,-7.6661,-7.6907,-7.7039,0.0,0.0,0.0,-7.7101,-7.7101,-7.7101,0.0,0.0,0.0,0.0,0.0,0.0,0.0,0.0,-7.7101,-7.7101,-7.7101,-7.7101,-7.7101,-7.7101,-7.7101,-7.7101,-7.7101,-7.7101,-7.7101,-7.7101,-7.7101,-7.7101,0.0,0.0,0.0,-7.7101,-7.7101,-7.7101,-7.7101,-7.7101,-7.7101,-7.7101,-7.7101,-7.7101,-7.7101,0.0,0.0,0.0,0.0,0.0,0.0,0.0,0.0,0.0,0.0,0.0,0.0,0.0,0.0,0.0,0.0,0.0,0.0,0.0,0.0,0.0,0.0,-7.5518,-7.5518,-7.5518,-7.5518,-7.5518,-7.5518,-7.5518,-7.5518,-7.5518,-7.5518,-7.5518,-7.5518,-7.5518,-7.5518,-7.5518,-7.5518,-7.5518,-7.5518,-7.5518,0.0,0.0,0.0,0.0,0.0,0.0,0.0,0.0,-7.9169,-7.9563,-7.9778,-8.0562,0.0,0.0,0.0,0.0,0.0,-8.1093,-7.9323,-7.763,-7.8323,-7.7323,-7.6169,-7.6015,-7.6015,-7.6015,-7.6015,-7.6015,-7.6076,-7.6273,-7.6447,-7.6605,-7.678,-7.6973,0.0,-7.7101,-7.7101,-7.7101,-7.7101,-7.7101,0.0,0.0,0.0,0.0,0.0,0.0,0.0,0.0,-7.7101,-7.7101,-7.7101,-7.7101,-7.7101,-7.7101,-7.7101,-7.7101,-7.7101,-7.7101,-7.7101,-7.7101,-7.7101,-7.7101,0.0,0.0,0.0,-7.7101,-7.7101,-7.7101,-7.7101,-7.7101,-7.7101,-7.7101,-7.7101,-7.7101,-7.7101,0.0,0.0,0.0,0.0,0.0,0.0,0.0,0.0,0.0,0.0,0.0,0.0,0.0,0.0,0.0,0.0,0.0,0.0,0.0,0.0,0.0,-7.5518,-7.5518,-7.5518,-7.5518,-7.5518,-7.5518,-7.5518,-7.5518,-7.5518,-7.5518,-7.5518,-7.5518,-7.5518,-7.5518,-7.5518,-7.5518,-7.5518,-7.5518,-7.5518,-7.5518,0.0,0.0,0.0,0.0,0.0,0.0,0.0,0.0,-8.0047,-8.035,-8.0458,-8.0737,0.0,0.0,0.0,0.0,0.0,-8.1093,-7.9746,-7.8376,-7.8492,-7.7784,-7.6899,-7.6169,-7.6015,-7.6015,-7.6015,-7.6015,-7.6076,-7.6273,-7.6316,-7.6438,-7.6761,-7.6973,-7.7101,0.0,0.0,-7.7101,-7.7101,0.0,0.0,0.0,0.0,0.0,0.0,0.0,0.0,0.0,-7.7101,-7.7101,-7.7101,-7.7101,-7.7101,-7.7101,-7.7101,-7.7101,-7.7101,-7.7101,-7.7101,-7.7101,-7.7101,-7.7101,0.0,0.0,-7.7101,-7.7101,-7.7101,-7.7101,-7.7101,-7.7101,-7.7101,-7.7101,-7.7101,-7.7101,-7.7101,0.0,0.0,0.0,0.0,0.0,0.0,0.0,0.0,0.0,0.0,0.0,0.0,0.0,0.0,0.0,0.0,0.0,0.0,0.0,0.0,-7.5959,-7.5518,-7.5518,-7.5518,-7.5518,-7.5518,-7.5518,-7.5518,-7.5518,-7.5518,-7.5518,-7.5518,-7.5518,-7.5518,-7.5518,-7.5518,-7.5518,-7.5518,-7.5518,-7.5518,0.0,0.0,0.0,0.0,0.0,0.0,0.0,0.0,0.0,0.0,-8.0616,-8.0741,-8.0775,0.0,0.0,0.0,0.0,0.0,-8.1093,-8.0169,-7.9092,-7.8631,-7.7553,-7.6476,-7.6092,-7.6015,-7.6015,-7.6015,-7.6015,-7.6076,-7.6273,-7.6394,-7.657,-7.6897,0.0,-7.7101,-7.7101,-7.7101,-7.7101,0.0,0.0,0.0,0.0,0.0,0.0,0.0,0.0,0.0,0.0,0.0,-7.7101,-7.7101,-7.7101,-7.7101,-7.7101,-7.7101,-7.7101,-7.7101,-7.7101,-7.7101,-7.7101,-7.7101,-7.7101,-7.7101,0.0,-7.7101,-7.7101,-7.7101,-7.7101,-7.7101,-7.7101,-7.7101,-7.7101,-7.7101,-7.7101,-7.7101,0.0,0.0,0.0,0.0,0.0,0.0,0.0,0.0,0.0,0.0,0.0,0.0,0.0,0.0,0.0,0.0,0.0,0.0,0.0,-7.7182,-7.6341,-7.5556,-7.5518,-7.5518,-7.5518,-7.5518,-7.5518,-7.5518,-7.5518,-7.5518,-7.5518,-7.5518,-7.5518,-7.5518,-7.5518,-7.5518,-7.5518,-7.5518,-7.5518,-7.5518,0.0,0.0,0.0,0.0,0.0,0.0,0.0,0.0,0.0,0.0,0.0,0.0,0.0,0.0,0.0,-8.1093,-8.1093,-8.1093,-8.1093,-8.0323,-7.9323,-7.8669,-7.74,-7.6245,-7.6053,-7.6015,-7.6015,-7.6015,-7.6015,-7.6048,-7.6199,-7.6447,-7.6677,-7.6973,-7.7053,-7.7101,-7.7101,-7.7101,-7.7101,0.0,0.0,0.0,0.0,0.0,0.0,0.0,0.0,0.0,0.0,0.0,-7.7101,-7.7101,-7.7101,-7.7101,-7.7101,-7.7101,-7.7101,-7.7101,-7.7101,-7.7101,-7.7101,-7.7101,-7.7101,-7.7101,-7.7101,-7.7101,-7.7101,-7.7101,-7.7101,-7.7101,-7.7101,-7.7101,-7.7101,-7.7101,-7.7101,-7.7101,0.0,0.0,0.0,0.0,0.0,0.0,0.0,0.0,0.0,0.0,0.0,0.0,0.0,0.0,0.0,0.0,0.0,0.0,0.0,-7.7182,-7.6341,-7.5556,-7.5518,-7.5518,-7.5518,-7.5518,-7.5518,-7.5518,-7.5518,-7.5518,-7.5518,-7.5518,-7.5518,-7.5518,-7.5518,-7.5518,-7.5518,-7.5518,-7.5518,-7.5577,-7.6303,0.0,0.0,0.0,0.0,0.0,0.0,0.0,0.0,0.0,0.0,0.0,0.0,0.0,-8.1093,-8.1093,-8.1093,-8.1093,-8.1093,-7.9862,-7.8592,-7.853,-7.7861,-7.6976,-7.6169,-7.6015,-7.6015,-7.6015,-7.6015,-7.5976,-7.6005,-7.6327,-7.6638,-7.6793,-7.6977,-7.7101,-7.7101,0.0,0.0,0.0,0.0,0.0,0.0,0.0,0.0,0.0,0.0,0.0,0.0,0.0,0.0,-7.7101,-7.7101,-7.7101,-7.7101,-7.7101,-7.7101,-7.7101,-7.7101,-7.7101,-7.7101,-7.7101,-7.7101,-7.7101,-7.7101,-7.7101,-7.7101,-7.7101,-7.7101,-7.7101,-7.7101,-7.7101,-7.7101,-7.7101,-7.7101,-7.7101,0.0,0.0,0.0,0.0,0.0,0.0,0.0,0.0,0.0,0.0,0.0,0.0,0.0,0.0,0.0,0.0,0.0,0.0,0.0,-7.7678,-7.6914,-7.5556,-7.5518,-7.5518,-7.5518,-7.5518,-7.5518,-7.5518,-7.5518,-7.5518,-7.5518,-7.5518,-7.5518,-7.5518,-7.5518,-7.5518,-7.5518,-7.5518,-7.5768,-7.6265,-7.657,-7.7335,0.0,0.0,0.0,0.0,0.0,0.0,0.0,0.0,-8.0758,-8.0843,-8.0877,-8.0959,-8.1093,-8.1093,-8.1093,-8.1093,-8.1093,-7.9823,-7.8477,-7.8477,-7.7476,-7.6399,-7.6092,-7.6015,-7.6015,-7.6015,-7.6015,-7.6034,-7.6147,-7.6488,-7.6741,-7.6793,-7.6973,-7.7101,0.0,0.0,0.0,0.0,0.0,0.0,0.0,0.0,0.0,0.0,0.0,0.0,0.0,0.0,0.0,-7.7101,-7.7101,-7.7101,-7.7101,-7.7101,-7.7101,-7.7101,-7.7101,-7.7101,-7.7101,-7.7101,-7.7101,-7.7101,-7.7101,-7.7101,-7.7101,-7.7101,-7.7101,-7.7101,-7.7101,-7.7101,-7.7101,-7.7101,-7.7101,-7.7101,0.0,0.0,0.0,0.0,0.0,0.0,0.0,0.0,0.0,0.0,0.0,0.0,0.0,0.0,0.0,0.0,0.0,0.0,-7.8099,-7.8022,-7.7258,-7.5577,-7.5518,-7.5518,-7.5518,-7.5518,-7.5518,-7.5518,-7.5518,-7.5518,-7.5518,-7.5518,-7.5518,-7.5518,-7.5518,-7.5518,-7.5518,-7.5768,-7.6188,-7.6761,-7.7296,-7.8252,0.0,0.0,0.0,0.0,0.0,0.0,0.0,0.0,-8.0826,-8.0877,-8.091,-8.0991,-8.1093,-8.1093,-8.1093,-8.1054,-8.0746,-7.9631,-7.8438,-7.8169,-7.7053,-7.6015,-7.6015,-7.6015,-7.6015,-7.6015,-7.6015,-7.6066,-7.6339,-7.6588,-7.6768,0.0,-7.7028,0.0,0.0,0.0,0.0,0.0,0.0,0.0,0.0,0.0,0.0,0.0,0.0,0.0,0.0,0.0,0.0,0.0,-7.7101,-7.7101,-7.7101,-7.7101,-7.7101,-7.7101,-7.7101,-7.7101,-7.7101,-7.7101,-7.7101,-7.7101,-7.7101,-7.7101,-7.7101,-7.7101,-7.7101,-7.7101,-7.7101,-7.7101,-7.7101,-7.7101,-7.7101,-7.7101,0.0,0.0,0.0,0.0,0.0,0.0,0.0,0.0,0.0,0.0,0.0,0.0,0.0,0.0,0.0,0.0,0.0,0.0,-7.8099,-7.8022,-7.7258,-7.5577,-7.5518,-7.5518,-7.5518,-7.5518,-7.5518,-7.5518,-7.5518,-7.5518,-7.5518,-7.5518,-7.5518,-7.5518,-7.5518,-7.5518,-7.5539,-7.6341,-7.6723,-7.6876,-7.8596,-7.9302,-7.9416,0.0,0.0,0.0,0.0,0.0,0.0,0.0,-8.091,-8.1077,-8.0959,-8.0991,-8.1093,-8.1093,-8.1093,-8.09,-8.0054,-7.9169,-7.8284,-7.7476,-7.663,-7.6015,-7.6015,-7.6015,-7.6015,-7.6015,-7.6015,-7.612,-7.6497,-7.6618,-7.6731,-7.7039,-7.7101,0.0,0.0,0.0,0.0,0.0,0.0,0.0,0.0,0.0,0.0,0.0,0.0,0.0,0.0,0.0,0.0,0.0,-7.7101,-7.7101,-7.7101,-7.7101,-7.7101,-7.7101,-7.7101,-7.7101,-7.7101,-7.7101,-7.7101,-7.7101,-7.7101,-7.7101,-7.7101,-7.7101,-7.7101,-7.7101,-7.7101,-7.7101,-7.7101,-7.7101,-7.7101,-7.7101,0.0,0.0,0.0,0.0,0.0,0.0,0.0,0.0,0.0,0.0,0.0,0.0,0.0,0.0,0.0,0.0,0.0,0.0,-7.8099,-7.8022,-7.7258,-7.5577,-7.5518,-7.5518,-7.5518,-7.5518,-7.5518,-7.5518,-7.5518,-7.5518,-7.5518,-7.5518,-7.5518,-7.5518,-7.5518,-7.5806,-7.6341,-7.6609,-7.7411,-7.8557,-7.9111,-7.9646,-8.0181,0.0,0.0,0.0,0.0,0.0,0.0,0.0,0.0,0.0,-8.1007,-8.1077,-8.1093,-8.1093,-8.1093,-8.09,-8.0054,-7.9169,-7.8284,-7.7476,-7.663,-7.6015,-7.6015,-7.6015,-7.6015,-7.6015,-7.6106,-7.626,-7.6361,-7.6588,-7.6774,-7.6882,-7.7028,0.0,0.0,0.0,0.0,0.0,0.0,0.0,0.0,0.0,0.0,0.0,0.0,0.0,0.0,0.0,0.0,0.0,-7.7101,-7.7101,-7.7101,-7.7101,-7.7101,-7.7101,-7.7101,-7.7101,-7.7101,-7.7101,-7.7101,-7.7101,-7.7101,-7.7101,-7.7101,-7.7101,-7.7101,-7.7101,-7.7101,-7.7101,-7.7101,-7.7101,-7.7101,-7.7101,0.0,0.0,0.0,0.0,0.0,0.0,0.0,0.0,0.0,0.0,-8.0506,-8.0506,0.0,0.0,0.0,0.0,0.0,0.0,0.0,-7.8519,-7.7755,-7.6036,-7.5959,-7.5806,-7.5518,-7.5518,-7.5518,-7.5518,-7.5518,-7.5518,-7.5518,-7.5518,-7.5518,-7.5518,-7.5806,-7.6265,-7.6761,-7.7449,-7.8328,-7.934,-7.9627,-8.0047,-8.0525,0.0,0.0,0.0,0.0,0.0,0.0,0.0,0.0,0.0,-8.1077,-8.1093,-8.1093,-8.1093,-8.0862,-8.04,-7.9515,-7.8669,-7.7823,-7.6976,-7.6399,-7.6015,-7.6015,-7.6015,-7.6015,-7.6015,-7.6173,-7.6316,-7.6415,-7.6646,0.0,-7.6902,-7.7032,0.0,0.0,0.0,0.0,0.0,0.0,0.0,0.0,0.0,0.0,0.0,0.0,0.0,0.0,0.0,0.0,0.0,-7.7101,-7.7101,-7.7101,-7.7101,-7.7101,-7.7101,-7.7101,-7.7101,-7.7101,-7.7101,-7.7101,-7.7101,-7.7101,-7.7101,-7.7101,-7.7101,-7.7101,-7.7101,-7.7101,-7.7101,-7.7101,-7.7101,-7.7101,-7.7101,0.0,0.0,0.0,0.0,0.0,0.0,0.0,0.0,0.0,0.0,-8.0506,-8.0506,0.0,0.0,0.0,0.0,0.0,0.0,0.0,-7.9302,-7.8557,-7.6876,-7.6838,-7.6418,-7.5633,-7.5615,-7.5577,-7.5518,-7.5518,-7.5518,-7.5518,-7.5518,-7.5556,-7.5615,-7.6379,-7.68,-7.7029,-7.8634,-7.934,-7.9493,-8.0219,-8.0525,-8.0525,-8.0596,0.0,0.0,0.0,0.0,0.0,0.0,0.0,0.0,-8.1093,-8.1093,-8.1093,-8.1093,-8.0477,-7.9631,-7.8746,-7.79,-7.7092,-7.6207,-7.6015,-7.6015,-7.6015,-7.6015,-7.6029,-7.602,-7.6173,-7.6394,-7.6561,-7.6728,-7.6892,-7.7053,0.0,0.0,0.0,0.0,0.0,0.0,0.0,0.0,0.0,0.0,0.0,0.0,0.0,0.0,0.0,0.0,0.0,-7.7101,-7.7101,-7.7101,-7.7101,-7.7101,-7.7101,0.0,-7.7101,-7.7101,-7.7101,-7.7101,-7.7101,-7.7101,-7.7101,-7.7101,-7.7101,-7.7101,-7.7101,-7.7101,-7.7101,-7.7101,-7.7101,-7.7101,-7.7101,-7.7101,0.0,0.0,0.0,0.0,0.0,0.0,0.0,0.0,0.0,0.0,0.0,0.0,0.0,0.0,0.0,0.0,0.0,0.0,0.0,-7.9302,-7.8825,-7.7755,-7.7717,-7.7335,-7.6456,-7.6456,-7.6112,-7.5518,-7.5518,-7.5518,-7.5518,-7.5518,-7.5844,-7.6456,-7.6609,-7.7449,-7.8748,-7.9149,-7.9665,-8.0257,-8.0483,-8.0578,-8.0596,-8.0723,-8.0775,0.0,0.0,0.0,0.0,0.0,0.0,0.0,-8.1093,-8.1093,-8.1093,-8.1093,-8.0477,-7.9631,-7.8746,-7.79,-7.7092,-7.6207,-7.6015,-7.6015,-7.6015,-7.6015,-7.6048,-7.6199,-7.6405,-7.657,-7.6734,-7.6902,-7.7046,0.0,0.0,0.0,0.0,0.0,0.0,0.0,0.0,0.0,0.0,0.0,0.0,0.0,0.0,0.0,0.0,0.0,0.0,-7.7101,-7.7101,-7.7101,-7.7101,-7.7101,-7.7101,0.0,-7.7101,-7.7101,-7.7101,-7.7101,-7.7101,-7.7101,-7.7101,-7.7101,-7.7101,-7.7101,-7.7101,-7.7101,-7.7101,-7.7101,-7.7101,-7.7101,-7.7101,-7.7101,0.0,0.0,0.0,0.0,0.0,0.0,0.0,0.0,0.0,0.0,0.0,0.0,0.0,0.0,0.0,0.0,0.0,0.0,0.0,0.0,-7.9513,-7.8672,-7.8213,-7.7793,-7.7335,-7.7335,-7.7105,-7.6685,-7.6685,-7.6303,-7.5518,-7.5883,-7.6303,-7.6723,-7.7564,-7.8443,-7.934,-7.9704,-8.0161,-8.0542,-8.0596,-8.0632,-8.0685,-8.0826,-8.086,-8.0877,-8.0959,0.0,0.0,0.0,0.0,0.0,0.0,0.0,-8.1093,-8.1093,-8.0477,-7.9631,-7.8746,-7.79,-7.7092,-7.6207,-7.6015,-7.6015,-7.6015,-7.6015,-7.6066,-7.6383,-7.6545,-7.6629,-7.678,-7.6969,0.0,0.0,0.0,0.0,0.0,0.0,0.0,0.0,0.0,0.0,0.0,0.0,0.0,0.0,0.0,0.0,0.0,-7.7101,-7.7101,-7.7101,-7.7101,-7.7101,-7.7101,-7.7101,-7.7101,-7.7101,-7.7101,-7.7101,-7.7101,-7.7101,-7.7101,-7.7101,-7.7101,-7.7101,-7.7101,-7.7101,-7.7101,-7.7101,-7.7101,-7.7101,-7.7101,-7.7101,-7.7101,-7.7101,0.0,0.0,0.0,0.0,0.0,0.0,0.0,0.0,0.0,0.0,0.0,0.0,0.0,0.0,0.0,0.0,0.0,0.0,0.0,0.0,0.0,-7.9531,-7.8825,-7.8366,-7.8213,-7.8213,-7.8137,-7.8022,-7.8022,-7.7296,-7.5959,-7.6609,-7.6991,-7.722,-7.8634,-7.9378,-7.9569,-8.02,-8.0523,-8.0614,-8.0632,-8.0702,-8.0826,-8.091,-8.0943,-8.0959,-8.1061,-8.1093,-8.1093,-8.1093,0.0,0.0,0.0,0.0,-8.1093,-8.1093,-8.04,-7.9438,-7.8707,-7.7784,-7.6899,-7.6169,-7.6015,-7.6015,-7.6015,-7.602,-7.6173,-7.6497,-7.6618,-7.6638,-7.681,0.0,0.0,0.0,0.0,0.0,0.0,0.0,0.0,0.0,0.0,0.0,0.0,0.0,0.0,0.0,0.0,0.0,-7.7101,-7.7101,-7.7101,-7.7101,-7.7101,-7.7101,-7.7101,-7.7101,-7.7101,-7.7101,-7.7101,-7.7101,-7.7101,-7.7101,-7.7101,-7.7101,-7.7101,-7.7101,-7.7101,-7.7101,-7.7101,-7.7101,-7.7101,-7.7101,-7.7101,-7.7101,-7.7101,-7.7101,0.0,0.0,0.0,0.0,0.0,0.0,0.0,0.0,0.0,0.0,-8.0506,-8.0506,0.0,0.0,0.0,0.0,0.0,0.0,0.0,0.0,0.0,-8.0353,-8.0238,-7.9818,-7.913,-7.9149,-7.8748,-7.8022,-7.8022,-7.7908,-7.7678,-7.7793,-7.8213,-7.8939,-7.9225,-7.9665,-8.0353,-8.043,-8.0523,-8.0614,-8.0741,-8.0826,-8.091,-8.1045,-8.1077,-8.1077,-8.1093,-8.1093,-8.1093,-8.1093,-8.1093,0.0,0.0,0.0,-8.1093,-8.1093,-7.9939,-7.8631,-7.8515,-7.7361,-7.613,-7.6015,-7.6015,-7.6015,-7.6015,-7.6133,-7.6316,0.0,-7.6618,-7.6677,0.0,0.0,0.0,0.0,0.0,0.0,0.0,0.0,0.0,0.0,0.0,0.0,0.0,0.0,0.0,0.0,0.0,0.0,-7.7101,-7.7101,-7.7101,-7.7101,-7.7101,-7.7101,-7.7101,-7.7101,-7.7101,-7.7101,-7.7101,-7.7101,-7.7101,-7.7101,-7.7101,-7.7101,-7.7101,-7.7101,-7.7101,-7.7101,-7.7101,-7.7101,-7.7101,-7.7101,-7.7101,-7.7101,-7.7101,-7.7101,0.0,0.0,0.0,0.0,0.0,0.0,0.0,0.0,0.0,0.0,0.0,-8.0506,0.0,0.0,0.0,0.0,0.0,0.0,0.0,0.0,0.0,-8.0506,-8.0506,-8.0315,-7.9971,-7.9971,-7.978,-7.9398,-7.9398,-7.9398,-7.9398,-7.9398,-7.936,-7.934,-7.978,-8.0162,-8.0506,-8.0506,-8.0598,-8.0685,-8.0685,-8.0826,-8.0991,-8.0991,-8.1007,-8.1093,-8.1093,-8.1093,-8.1093,-8.1093,-8.1093,-8.1093,-8.1093,0.0,0.0,0.0,-8.0208,-7.9015,-7.8092,-7.6938,-7.6015,-7.6015,-7.6015,-7.602,-7.6147,-7.6236,-7.6394,-7.6661,-7.6713,0.0,0.0,0.0,0.0,0.0,0.0,0.0,0.0,0.0,0.0,0.0,0.0,0.0,0.0,0.0,0.0,0.0,0.0,-7.7101,-7.7101,-7.7101,-7.7101,-7.7101,-7.7101,-7.7101,-7.7101,-7.7101,-7.7101,-7.7101,-7.7101,-7.7101,-7.7101,-7.7101,-7.7101,-7.7101,-7.7101,-7.7101,-7.7101,-7.7101,-7.7101,-7.7101,-7.7101,-7.7101,-7.7101,-7.7101,-7.7101,-7.7101,0.0,0.0,0.0,0.0,0.0,0.0,0.0,0.0,0.0,0.0,0.0,0.0,0.0,0.0,0.0,0.0,0.0,0.0,0.0,0.0,0.0,0.0,0.0,-8.0506,-8.0506,-8.0506,-8.0506,-8.0506,-8.0506,-8.0506,-8.0506,-8.0506,-8.0162,-7.9646,-8.0238,-8.0506,-8.0506,-8.0506,-8.0598,-8.0758,-8.065,-8.0771,-8.1045,-8.0943,-8.0975,-8.1093,-8.1093,-8.1093,-8.1093,-8.1093,-8.1093,-8.1093,-8.1093,-8.1093,0.0,0.0,0.0,-7.9092,-7.74,-7.6515,-7.6015,-7.6015,-7.6034,-7.6106,0.0,0.0,-7.6507,0.0,0.0,0.0,0.0,0.0,0.0,0.0,0.0,0.0,0.0,0.0,0.0,0.0,0.0,0.0,0.0,0.0,0.0,0.0,0.0,-7.7101,-7.7101,-7.7101,-7.7101,-7.7101,-7.7101,-7.7101,-7.7101,-7.7101,-7.7101,-7.7101,-7.7101,-7.7101,-7.7101,-7.7101,-7.7101,-7.7101,-7.7101,-7.7101,-7.7101,-7.7101,-7.7101,-7.7101,-7.7101,-7.7101,-7.7101,-7.7101,-7.7101,-7.7101,0.0,0.0,0.0,0.0,0.0,0.0,0.0,0.0,0.0,0.0,0.0,0.0,-8.0506,-8.0506,-8.0506,-8.0506,0.0,0.0,0.0,0.0,0.0,0.0,0.0,0.0,-8.0506,-8.0506,-8.0506,-8.0506,-8.0506,-8.0506,-8.0506,-8.0506,-8.0468,-8.043,-8.0468,-8.0506,-8.0506,-8.0506,-8.0523,-8.0614,-8.0614,-8.0737,-8.0888,-8.0888,-8.0975,-8.1093,-8.1093,-8.1093,-8.1093,-8.1093,-8.1093,-8.1093,-8.1093,-8.1093,-8.1093,0.0,0.0,0.0,-7.6515,-7.6015,-7.6015,-7.6015,-7.6147,-7.6308,0.0,0.0,0.0,0.0,0.0,0.0,0.0,0.0,0.0,0.0,0.0,0.0,0.0,0.0,0.0,0.0,0.0,0.0,0.0,0.0,0.0,0.0,0.0,-7.7101,-7.7101,-7.7101,-7.7101,-7.7101,-7.7101,-7.7101,-7.7101,-7.7101,-7.7101,-7.7101,-7.7101,-7.7101,-7.7101,-7.7101,-7.7101,-7.7101,-7.7101,-7.7101,-7.7101,-7.7101,-7.7101,-7.7101,-7.7101,-7.7101,-7.7101,-7.7101,-7.7101,-7.7101,0.0,0.0,0.0,0.0,0.0,0.0,0.0,0.0,0.0,0.0,0.0,0.0,0.0,-8.0506,-8.0506,-8.0506,-8.0506,0.0,0.0,0.0,0.0,0.0,0.0,0.0,-8.0506,-8.0506,-8.0506,-8.0506,-8.0506,-8.0506,-8.0506,-8.0506,-8.0506,-8.0506,-8.0506,-8.0506,-8.0506,-8.0506,-8.0598,-8.0741,-8.0578,-8.0741,-8.0991,-8.0877,-8.0926,-8.1093,-8.1093,-8.1093,-8.1093,-8.1093,-8.1093,-8.1093,-8.1093,-8.1093,-8.0862,-7.9746,-7.8631,-7.7476,-7.6322,-7.6015,-7.6015,-7.6015,-7.616,-7.6327,-7.6477,-7.6661,0.0,0.0,0.0,0.0,0.0,0.0,0.0,0.0,0.0,0.0,0.0,0.0,0.0,0.0,0.0,0.0,0.0,0.0,0.0,0.0,0.0,0.0,-7.7101,-7.7101,-7.7101,-7.7101,-7.7101,-7.7101,-7.7101,-7.7101,-7.7101,-7.7101,-7.7101,-7.7101,-7.7101,-7.7101,-7.7101,-7.7101,-7.7101,-7.7101,-7.7101,-7.7101,-7.7101,-7.7101,-7.7101,-7.7101,-7.7101,-7.7101,-7.7101,-7.7101,0.0,0.0,0.0,0.0,0.0,0.0,0.0,0.0,-8.0506,-8.0506,0.0,0.0,0.0,0.0,-8.0506,-8.0506,-8.0506,-8.0506,-8.0506,-8.0506,0.0,0.0,0.0,0.0,-8.0506,-8.0238,-8.0238,-8.0506,-8.0238,-8.0238,-8.0506,-8.0505,-8.0505,-8.0506,-8.0505,-8.0505,-8.0468,-8.0237,-8.0366,-8.0702,-8.031,-8.0472,-8.1029,-8.0843,-8.091,-8.1093,-8.1093,-8.1093,-8.1093,-8.1093,-8.09,-8.0708,-8.1016,-8.09,-8.0323,-7.8592,-7.7707,-7.7092,-7.6245,-7.6015,-7.6015,-7.6015,-7.616,-7.635,-7.6534,0.0,0.0,0.0,0.0,0.0,0.0,0.0,0.0,0.0,0.0,0.0,0.0,0.0,0.0,0.0,0.0,0.0,0.0,0.0,0.0,0.0,0.0,0.0,-7.7101,-7.7101,-7.7101,-7.7101,-7.7101,-7.7101,-7.7101,-7.7101,-7.7101,-7.7101,-7.7101,-7.7101,-7.7101,-7.7101,-7.7101,-7.7101,-7.7101,-7.7101,-7.7101,-7.7101,-7.7101,-7.7101,-7.7101,-7.7101,-7.7101,-7.7101,-7.7101,-7.7101,0.0,0.0,0.0,0.0,0.0,0.0,0.0,0.0,-8.0506,-8.0506,0.0,0.0,0.0,0.0,0.0,-8.0506,-8.0506,-8.0506,-8.0506,-8.0506,0.0,0.0,0.0,0.0,-8.0506,-7.9704,-7.9704,-8.0506,-7.9704,-7.976,-8.0506,-8.0578,-8.056,-8.0525,-8.0578,-8.056,-8.041,-7.968,-7.9848,-8.0461,-7.9695,-7.9953,-8.0849,-8.0788,-8.091,-8.1093,-8.1093,-8.1093,-8.1093,-8.1093,-8.0554,-7.9977,-8.0785,-8.0454,-7.9415,-7.7761,-7.7275,-7.7083,0.0,0.0,0.0,-7.6005,0.0,0.0,-7.6543,0.0,0.0,0.0,0.0,0.0,0.0,0.0,0.0,0.0,0.0,0.0,0.0,0.0,0.0,0.0,0.0,0.0,0.0,0.0,0.0,0.0,0.0,-7.7101,-7.7101,-7.7101,-7.7101,-7.7101,-7.7101,-7.7101,-7.7101,-7.7101,-7.7101,-7.7101,-7.7101,-7.7101,-7.7101,-7.7101,-7.7101,-7.7101,-7.7101,-7.7101,-7.7101,-7.7101,-7.7101,-7.7101,-7.7101,-7.7101,-7.7101,-7.7101,-7.7101,-7.7101,0.0,0.0,0.0,0.0,0.0,0.0,-8.0506,-8.0506,-8.0506,0.0,0.0,0.0,-8.0506,-8.0506,-8.0506,-8.0506,-8.0506,-8.0506,-8.0506,-8.0506,-8.0506,-8.0506,-8.0506,-8.0506,-8.0506,-8.0277,-8.0277,-8.0506,-8.0277,-8.0314,-8.0578,-8.0596,-8.0596,-8.0578,-8.0667,-8.0361,-7.968,-7.9486,-7.9233,-7.8918,-7.8671,-7.921,-8.0084,-8.0043,-8.0459,-8.1093,-8.1093,-8.1093,-8.1093,-8.1093,-8.0939,-8.0669,-8.0285,-7.9339,-7.8215,-7.7613,-7.7156,-7.6757,-7.6485,0.0,0.0,0.0,0.0,0.0,0.0,0.0,0.0,0.0,0.0,0.0,0.0,0.0,0.0,0.0,0.0,0.0,0.0,0.0,0.0,0.0,0.0,0.0,0.0,0.0,0.0,0.0,-7.7101,-7.7101,-7.7101,-7.7101,-7.7101,-7.7101,-7.7101,-7.7101,-7.7101,-7.7101,-7.7101,-7.7101,-7.7101,-7.7101,-7.7101,-7.7101,-7.7101,-7.7101,-7.7101,-7.7101,-7.7101,-7.7101,-7.7101,-7.7101,-7.7101,-7.7101,-7.7101,-7.7101,-7.7101,-7.7101,0.0,0.0,0.0,0.0,0.0,-8.0506,-8.0506,-8.0506,-8.0506,0.0,0.0,0.0,-8.0506,-8.0506,-8.0506,-8.0506,-8.0506,-8.0506,-8.0506,-8.0506,-8.0506,-8.0506,-8.0506,-8.0506,-8.0506,-8.0162,-8.0162,-8.0506,-8.0199,-8.0216,-8.0614,-8.0702,-8.0685,-8.0576,-8.0409,-7.9778,-7.8853,-7.8539,-7.8415,-7.8349,-7.8349,-7.8929,-7.9846,-8.0114,-8.0552,-8.1093,-8.1093,-8.1093,-8.1054,-8.0669,-8.0361,-7.9938,-7.8704,-7.8108,-7.7699,-7.7243,-7.6866,-7.6618,-7.6618,-7.6618,-7.6618,-7.6618,0.0,0.0,-7.6793,-7.6892,0.0,0.0,0.0,0.0,0.0,0.0,0.0,0.0,0.0,0.0,0.0,0.0,0.0,0.0,0.0,0.0,0.0,0.0,0.0,-7.7101,-7.7101,-7.7101,-7.7101,-7.7101,-7.7101,-7.7101,-7.7101,-7.7101,-7.7101,-7.7101,-7.7101,-7.7101,-7.7101,-7.7101,-7.7101,-7.7101,-7.7101,-7.7101,-7.7101,-7.7101,-7.7101,-7.7101,-7.7101,-7.7101,-7.7101,-7.7101,-7.7101,-7.7101,-7.7101,-7.7101,0.0,0.0,0.0,0.0,0.0,-8.0506,-8.0506,-8.0506,-8.0506,0.0,-8.0506,-8.0506,-8.0506,-8.0506,-8.0506,-8.0506,-8.0506,-8.0506,-8.0506,-8.0506,-8.0506,-8.0506,-8.0525,-8.0525,-8.0525,-7.9817,-7.9817,-8.0543,-7.9869,-7.9922,-8.065,-8.0805,-8.0805,-8.0611,-8.0093,-7.9193,-7.8084,-7.7499,-7.7639,-7.8276,-7.8276,-7.8823,-7.9731,-8.0514,-8.0914,-8.1093,-8.0977,-8.0977,-8.0823,-7.9969,-7.926,-7.8433,-7.6935,-7.703,-7.7593,-7.6838,-7.666,-7.6676,-7.6676,-7.6676,-7.6676,-7.6676,-7.6676,0.0,-7.6799,-7.6822,-7.6892,0.0,0.0,0.0,0.0,0.0,0.0,0.0,0.0,0.0,0.0,0.0,0.0,0.0,0.0,0.0,0.0,-7.7101,-7.7101,-7.7101,-7.7101,-7.7101,-7.7101,-7.7101,-7.7101,-7.7101,-7.7101,-7.7101,-7.7101,-7.7101,-7.7101,-7.7101,-7.7101,-7.7101,-7.7101,-7.7101,-7.7101,-7.7101,-7.7101,-7.7101,-7.7101,-7.7101,-7.7101,-7.7101,-7.7101,-7.7101,-7.7101,-7.7101,-7.7101,-7.7101,0.0,0.0,0.0,0.0,0.0,0.0,-8.0506,-8.0506,-8.0506,-8.0506,-8.0506,-8.0506,-8.0506,-8.0506,-8.0506,-8.0506,-8.0506,-8.0506,-8.0506,-8.0506,-8.0506,-8.0506,-8.0542,-8.0578,-8.0578,-8.0552,-8.0587,-8.0741,-8.0605,-8.0618,-8.0838,-8.0871,-8.0871,-8.0838,-8.0837,-7.9899,-7.8343,-7.8262,-7.7962,-7.7485,-7.7485,-7.8,-7.8861,-7.9692,-8.0462,-8.1016,-8.0323,-8.0054,-7.9931,-7.9248,-7.8568,-7.7933,-7.7632,-7.7382,-7.716,-7.6838,-7.6877,-7.702,-7.702,-7.702,-7.702,-7.702,-7.702,0.0,-7.7039,-7.7043,-7.7046,0.0,0.0,0.0,0.0,0.0,0.0,0.0,0.0,0.0,0.0,0.0,0.0,0.0,0.0,0.0,0.0,-7.7101,-7.7101,-7.7101,-7.7101,-7.7101,-7.7101,-7.7101,-7.7101,-7.7101,-7.7101,-7.7101,-7.7101,-7.7101,-7.7101,-7.7101,-7.7101,-7.7101,-7.7101,-7.7101,-7.7101,-7.7101,-7.7101,-7.7101,-7.7101,-7.7101,-7.7101,-7.7101,-7.7101,-7.7101,-7.7101,-7.7101,-7.7101,-7.7101,-8.0506,-8.0506,0.0,0.0,0.0,0.0,-8.0506,-8.0506,-8.0506,-8.0506,-8.0506,-8.0506,-8.0506,-8.0506,-8.0506,-8.0506,-8.0506,-8.0506,-8.0506,-8.0506,-8.0506,-8.0506,-8.056,-8.0614,-8.0614,-8.0741,-8.0792,-8.0792,-8.0843,-8.0877,-8.0888,-8.0975,-8.0943,-8.0822,-8.0568,-7.9668,-7.8327,-7.8047,-7.74,-7.6707,-7.7553,-7.84,-7.9246,-8.0131,-8.0439,-8.0416,-8.0063,-7.9481,-7.8757,-7.8419,-7.7864,-7.7314,-7.7314,-7.7222,-7.7095,-7.6977,-7.7032,-7.7101,-7.7101,-7.7101,-7.7101,-7.7101,-7.7101,0.0,0.0,-7.7101,-7.7101,0.0,0.0,0.0,0.0,0.0,0.0,0.0,0.0,0.0,0.0,0.0,0.0,0.0,0.0,0.0,0.0,-7.7101,-7.7101,-7.7101,-7.7101,-7.7101,-7.7101,-7.7101,-7.7101,-7.7101,-7.7101,-7.7101,-7.7101,-7.7101,-7.7101,-7.7101,-7.7101,-7.7101,-7.7101,-7.7101,-7.7101,-7.7101,-7.7101,-7.7101,-7.7101,-7.7101,-7.7101,-7.7101,-7.7101,-7.7101,-7.7101,-7.7101,-7.7101,-7.7101,-8.0506,-8.0506,-8.0506,0.0,0.0,0.0,0.0,0.0,-8.0506,-8.0506,-8.0506,-8.0506,-8.0506,-8.0506,-8.0506,-8.0506,-8.0506,-8.0506,-8.0506,-8.0506,-8.0506,-8.0506,-8.056,-8.0614,-8.0632,-8.0775,-8.0826,-8.0843,-8.091,-8.0943,-8.0959,-8.1061,-8.1013,-8.0822,-8.0299,-7.9399,-7.8311,-7.7762,-7.713,-7.6592,-7.7938,-7.8823,-7.94,-8.0285,-8.0169,-7.9561,-7.9572,-7.8701,-7.758,-7.7615,-7.7251,-7.6804,-7.6872,-7.6973,-7.7101,-7.7101,-7.7101,-7.7101,-7.7101,-7.7101,-7.7101,-7.7101,-7.7101,-7.7101,0.0,0.0,0.0,0.0,0.0,0.0,0.0,0.0,0.0,0.0,0.0,0.0,0.0,0.0,0.0,0.0,0.0,0.0,0.0,-7.6594,-7.6672,-7.6828,-7.6867,-7.6906,-7.7101,-7.7101,-7.7101,-7.7101,-7.7101,-7.7101,-7.7101,-7.7101,-7.7101,-7.7101,-7.7101,-7.7101,-7.7101,-7.7101,-7.7101,-7.7101,-7.7101,-7.7101,-7.7101,-7.7101,-7.7101,-7.7101,-7.7101,-7.7101,-7.7101,-7.7101,-7.7101,-7.7101,-8.0506,-8.0506,-8.0506,-8.0506,0.0,0.0,0.0,0.0,-8.0506,-8.0506,-8.0506,-8.0506,-8.0506,-8.0506,-8.0506,-8.0506,-8.0506,-8.0506,-8.0506,-8.0506,-8.0506,-8.0506,-8.056,-8.065,-8.0775,-8.086,-8.0943,-8.1061,-8.1077,-8.1077,-8.1077,-8.1093,-8.1077,-8.1061,-8.1,-8.0038,-7.8462,-7.84,-7.8284,-7.8207,-7.84,-7.813,-7.7669,-7.8477,-7.8707,-7.856,-7.8001,-7.7328,-7.6752,0.0,-7.687,-7.6822,0.0,-7.7095,-7.7101,-7.7101,-7.7101,-7.7101,-7.7101,-7.7101,-7.7101,-7.7101,-7.7101,-7.7101,-7.7101,0.0,-7.7101,-7.7101,0.0,0.0,0.0,0.0,0.0,0.0,0.0,0.0,0.0,0.0,0.0,0.0,0.0,0.0,0.0,0.0,-7.511,-7.5891,-7.593,-7.6281,-7.7062,-7.7101,-7.7101,-7.7101,-7.7101,-7.7101,-7.7101,-7.7101,-7.7101,-7.7101,-7.7101,-7.7101,-7.7101,-7.7101,-7.7101,-7.7101,-7.7101,-7.7101,-7.7101,-7.7101,-7.7101,-7.7101,-7.7101,-7.7101,-7.7101,-7.7101,-7.7101,-7.7101,-8.0506,-8.0506,-8.0506,-8.0506,0.0,0.0,0.0,0.0,-8.0506,-8.0506,-8.0506,-8.0506,-8.0506,-8.0506,-8.0506,-8.0506,-8.0506,-8.0506,-8.0506,-8.0506,-8.0506,-8.0506,-8.0652,-8.0758,-8.0792,-8.0926,-8.1061,-8.1093,-8.1093,-8.1093,-8.1093,-8.1093,-8.1061,-8.0991,-8.1077,-8.0369,-7.9184,-7.8692,-7.8207,-7.7784,-7.7784,-7.7284,0.0,-7.8554,-7.877,-7.8026,-7.732,-7.6993,-7.6882,0.0,-7.6973,0.0,0.0,0.0,0.0,-7.7101,0.0,0.0,0.0,0.0,0.0,0.0,0.0,0.0,-7.7101,0.0,-7.7101,0.0,0.0,0.0,0.0,0.0,0.0,0.0,0.0,0.0,0.0,0.0,0.0,0.0,0.0,0.0,0.0,0.0,0.0,0.0,0.0,-7.5423,-7.6281,-7.636,-7.6594,-7.7062,-7.7101,-7.7101,-7.7101,-7.7101,-7.7101,-7.7101,-7.7101,-7.7101,-7.7101,-7.7101,-7.7101,-7.7101,-7.7101,-7.7101,-7.7101,-7.7101,-7.7101,-7.7101,-7.7101,-7.7101,-7.7101,-7.7101,-7.7101,-7.7101,-8.0506,-8.0506,-8.0506,-8.0506,0.0,0.0,0.0,0.0,-8.0506,-8.0506,-8.0506,-8.0506,-8.0506,-8.0506,-8.0506,-8.0506,-8.0506,-8.0506,-8.0506,-8.0735,-8.0735,-8.0506,-8.09,-8.0988,-8.0792,-8.0943,-8.1061,-8.1093,-8.1093,-8.1093,-8.1093,-8.1093,-8.1061,-8.0959,-8.1061,-8.06,-7.9691,-7.91,-7.8515,-7.7938,-7.7707,-7.715,-7.6605,-7.8209,-7.8278,-7.747,-7.6962,-7.6917,-7.7101,-7.7101,-7.7101,0.0,-7.7101,0.0,-7.7101,0.0,0.0,0.0,-7.7101,0.0,0.0,0.0,0.0,0.0,0.0,0.0,0.0,0.0,0.0,0.0,0.0,0.0,0.0,0.0,0.0,0.0,0.0,0.0,0.0,0.0,0.0,0.0,0.0,0.0,0.0,-7.4134,-7.4173,-7.4525,-7.5384,-7.566,-7.6086,-7.6711,-7.6984,-7.7101,-7.7101,-7.7101,-7.7101,-7.7101,-7.7101,-7.7101,-7.7101,-7.7101,-7.7101,-7.7101,-7.7101,-7.7101,-7.7101,-7.7101,-7.7101,-7.7101,-7.7101,-7.7101,-7.7101,-7.7101,-7.7101,-7.7101,-8.0506,-8.0506,-8.0506,-8.0506,-8.0506,0.0,0.0,-8.0506,-8.0506,-8.0506,-8.0506,-8.0506,-8.0506,-8.0506,-8.0506,-8.0506,-8.0506,-8.0506,-8.0506,-8.1308,-8.1385,-8.0544,-8.1363,-8.153,-8.0831,-8.0877,-8.0975,-8.1093,-8.1093,-8.1093,-8.1093,-8.1093,-8.1093,-8.1093,-8.1093,-8.0631,-7.9808,-7.9785,-7.9746,-7.9669,-7.8784,-7.8048,-7.7391,0.0,-7.6594,-7.6838,-7.6799,0.0,0.0,-7.7101,-7.7101,0.0,0.0,0.0,0.0,0.0,0.0,0.0,0.0,0.0,0.0,-7.7101,0.0,0.0,0.0,0.0,-7.7101,0.0,0.0,0.0,0.0,0.0,0.0,-7.3432,0.0,0.0,0.0,0.0,0.0,0.0,0.0,0.0,0.0,0.0,0.0,-7.3275,-7.3354,-7.3705,-7.4486,-7.5345,-7.5816,-7.5855,-7.6672,-7.7101,-7.7101,-7.7101,-7.7101,-7.7101,-7.7101,-7.7101,-7.7101,-7.7101,-7.7101,-7.7101,-7.7101,-7.7101,-7.7101,-7.7101,-7.7101,-7.7101,-7.7101,-7.7101,-7.7101,-7.7101,-7.7101,-7.7101,-8.0506,-8.0506,-8.0506,-8.0506,-8.0506,-8.0506,-8.0506,-8.0506,-8.0506,-8.0506,-8.0506,-8.0735,-8.1308,-8.1347,-8.1576,-8.2111,-8.1652,-8.1347,-8.1347,-8.1652,-8.1423,-8.0544,-8.1418,-8.1601,-8.0831,-8.1084,-8.1269,-8.1283,-8.1424,-8.1507,-8.1469,-8.0926,-8.0655,-8.0616,-8.0024,-7.9543,-7.9107,-7.8541,-7.8241,-7.8068,0.0,-7.7401,-7.7812,0.0,-7.6682,-7.6816,-7.6965,-7.7043,0.0,-7.7101,-7.7101,-7.7101,-7.7101,-7.7101,-7.7101,-7.7101,-7.7101,0.0,0.0,0.0,-7.7101,-7.7101,0.0,0.0,0.0,0.0,0.0,0.0,0.0,0.0,0.0,0.0,0.0,0.0,0.0,0.0,0.0,0.0,0.0,0.0,0.0,0.0,0.0,0.0,0.0,-7.2417,-7.2456,-7.2807,0.0,-7.3978,-7.4642,-7.5777,-7.6086,-7.6516,-7.7101,-7.7101,-7.7101,-7.7101,-7.7101,-7.7101,-7.7101,-7.7101,-7.7101,-7.7101,-7.7101,-7.7101,-7.7101,-7.7101,-7.7101,-7.7101,-7.7101,-7.7101,-7.7101,-7.7101,-7.7101,-7.7101,-8.0506,-8.0506,-8.0506,-8.0506,-8.0506,-8.0506,-8.0506,-8.0506,-8.0621,-8.0926,-8.0964,-8.127,-8.2111,-8.2225,-8.2302,-8.2531,-8.2111,-8.1805,-8.1805,-8.1805,-8.1538,-8.1003,-8.1609,-8.1584,-8.0741,-8.1133,-8.1324,-8.1324,-8.1269,-8.1232,-8.1232,-8.0329,-7.9941,-7.9902,-7.9349,-7.8998,-7.8784,-7.8203,-7.7923,-7.7792,0.0,-7.7213,0.0,0.0,-7.6902,-7.6912,0.0,-7.7101,-7.7101,-7.7101,-7.7101,-7.7101,-7.7101,-7.7101,-7.7101,-7.7101,-7.7101,-7.7101,-7.7101,-7.7101,0.0,-7.7101,-7.7101,0.0,-7.7101,0.0,0.0,0.0,0.0,0.0,0.0,0.0,0.0,0.0,0.0,0.0,0.0,-7.1987,0.0,0.0,0.0,0.0,0.0,0.0,-7.1987,-7.1987,-7.1987,-7.226,0.0,0.0,-7.3783,-7.4876,-7.5188,-7.5774,-7.6633,-7.6633,-7.6789,-7.7101,-7.7101,-7.7101,-7.7101,-7.7101,-7.7101,-7.7101,-7.7101,-7.7101,-7.7101,-7.7101,-7.7101,-7.7101,-7.7101,-7.7101,-7.7101,-7.7101,-7.7101,-7.7101,-8.0506,-8.0506,-8.0506,-8.0506,-8.0506,-8.0506,-8.0544,-8.0544,-8.0888,-8.1767,-8.1843,-8.2187,-8.299,-8.3028,-8.2722,-8.1996,-8.1843,-8.1805,-8.1805,-8.1805,-8.1767,-8.1729,-8.186,-8.1494,-8.0614,-8.0998,-8.1195,-8.1195,-8.0697,-8.0443,0.0,0.0,-7.9066,-7.9066,-7.9027,-7.8874,-7.868,-7.8692,-7.8704,-7.8661,-7.8202,-7.7545,-7.6822,-7.7036,-7.7101,-7.7101,-7.7101,-7.7101,-7.7101,-7.7101,-7.7101,-7.7101,-7.7101,-7.7101,-7.7101,-7.7101,-7.7101,-7.7101,-7.7101,-7.7101,-7.7101,-7.7101,0.0,0.0,0.0,0.0,-7.7101,0.0,0.0,0.0,0.0,0.0,0.0,0.0,0.0,0.0,0.0,0.0,0.0,0.0,0.0,0.0,0.0,-7.1987,-7.1987,-7.1987,-7.1987,-7.1987,0.0,0.0,-7.3275,-7.3312,-7.4056,-7.4876,-7.5738,-7.5777,-7.6203,-7.7023,-7.7062,-7.7101,-7.7101,-7.7101,-7.7101,-7.7101,-7.7101,-7.7101,-7.7101,-7.7101,-7.7101,-7.7101,-7.7101,-7.7062,-7.7023,-7.7062,-7.7101,-7.7101,-8.0506,-8.0506,-8.0506,-8.0506,-8.0506,-8.0735,-8.1385,-8.1461,-8.1767,-8.2569,-8.2684,-8.3028,-8.3868,-8.3372,-8.3181,-8.3601,-8.2531,-8.1805,-8.1805,-8.1805,-8.1499,-8.085,-8.1516,-8.1494,-8.0614,-8.1155,-8.142,-8.142,-8.1059,-8.0865,-8.0826,0.0,0.0,0.0,0.0,-7.743,-7.7166,-7.726,-7.7314,-7.7322,-7.7164,-7.7087,-7.7036,0.0,-7.7101,-7.7101,-7.7101,-7.7101,-7.7101,-7.7101,-7.7101,-7.7101,-7.7101,-7.7101,-7.7101,-7.7101,-7.7101,-7.7101,-7.7101,-7.7101,-7.7101,-7.7101,-7.7101,-7.7101,0.0,0.0,0.0,0.0,0.0,0.0,0.0,0.0,0.0,0.0,0.0,0.0,0.0,0.0,0.0,-7.1987,0.0,0.0,0.0,-7.1987,-7.1987,-7.1987,-7.1987,0.0,0.0,0.0,0.0,-7.3275,-7.351,-7.4017,-7.4837,-7.5462,-7.5894,-7.6125,-7.6789,-7.7101,-7.7101,-7.7101,-7.7101,-7.7101,-7.7101,-7.7101,-7.7101,-7.7101,-7.7101,-7.7101,-7.7101,-7.6711,-7.6203,-7.6867,-7.7101,-7.7101,-8.0506,-8.0812,-8.1079,-8.1079,-8.1347,-8.1652,-8.1767,-8.2111,-8.2607,-8.3448,-8.3563,-8.3754,-8.425,-8.3868,-8.3448,-8.3219,-8.234,-8.1805,-8.1805,-8.1423,-8.1194,-8.1079,-8.1283,-8.1197,-8.0698,-8.1259,-8.1369,-8.1028,-8.0619,-8.0211,-7.9834,0.0,0.0,0.0,0.0,-7.6951,-7.6692,-7.6774,-7.6804,-7.6804,-7.6897,-7.6985,0.0,-7.7101,-7.7101,-7.7101,-7.7101,-7.7101,-7.7101,-7.7101,-7.7101,-7.7101,-7.7101,-7.7101,-7.7101,-7.7101,-7.7101,-7.7101,-7.7101,-7.7101,-7.7101,-7.7101,-7.7101,-7.7101,-7.7101,-7.7101,-7.7101,0.0,0.0,0.0,0.0,0.0,0.0,0.0,0.0,0.0,0.0,0.0,0.0,0.0,-7.1987,0.0,0.0,-7.1987,-7.1987,-7.1987,0.0,0.0,0.0,0.0,0.0,-7.2729,-7.2729,-7.3119,-7.3978,-7.4447,-7.5071,-7.5816,-7.6281,-7.6711,-7.7101,-7.7101,-7.7101,-7.7101,-7.7101,-7.7101,-7.7101,-7.7101,-7.6867,-7.6477,-7.6125,-7.5657,-7.5305,-7.5774,-7.5969,-7.6008,-8.0812,-8.1423,-8.1958,-8.1958,-8.2607,-8.2913,-8.2225,-8.2722,-8.3448,-8.4212,-8.4289,-8.425,-8.4136,-8.4021,-8.3372,-8.192,-8.169,-8.1614,-8.1614,-8.0926,-8.085,-8.1614,-8.1082,-8.0811,-8.0811,-8.1335,-8.1204,-8.0401,-7.9856,0.0,0.0,0.0,0.0,0.0,0.0,0.0,0.0,-7.6849,-7.6888,-7.6994,-7.7075,-7.7101,-7.7101,-7.7101,-7.7101,-7.7101,-7.7101,-7.7101,-7.7101,-7.7101,-7.7101,-7.7101,-7.7101,-7.7101,-7.7101,-7.7101,-7.7101,-7.7101,-7.7101,-7.7101,-7.7101,-7.7101,-7.7101,-7.7101,-7.7101,-7.7101,-7.7101,-7.7101,-7.7101,-7.6789,0.0,0.0,0.0,0.0,0.0,0.0,0.0,-7.1987,-7.1987,-7.1987,0.0,0.0,0.0,0.0,0.0,0.0,0.0,0.0,0.0,0.0,0.0,-7.1987,-7.1987,0.0,-7.3119,0.0,-7.4017,-7.5462,-7.5579,-7.6047,-7.675,-7.675,-7.675,-7.675,-7.675,-7.675,-7.675,-7.675,-7.632,-7.554,-7.4681,-7.433,-7.433,-7.4212,-7.4173,-7.429,-8.2416,-8.2684,-8.2798,-8.2798,-8.3486,-8.4021,-8.3868,-8.3983,-8.4136,-8.4289,-8.4289,-8.4021,-8.3295,-8.2646,-8.2111,-8.1843,-8.1156,-8.0735,-8.0735,-8.0582,-8.0582,-8.0735,-8.0775,-8.0811,-8.0811,-8.1335,-8.1204,-8.0401,0.0,0.0,0.0,0.0,0.0,0.0,0.0,0.0,-7.8058,-7.7194,0.0,-7.8061,-7.7372,-7.7101,-7.7101,-7.7101,-7.7101,-7.7101,-7.7101,-7.7101,-7.7101,-7.7101,-7.7101,-7.7101,-7.7101,-7.7101,-7.7101,-7.7101,-7.7101,-7.7101,-7.7101,-7.7101,-7.7101,-7.7101,-7.7101,-7.7101,-7.7101,-7.7101,-7.7101,-7.7101,-7.7101,-7.6594,-7.5032,0.0,0.0,0.0,0.0,0.0,0.0,0.0,-7.1987,-7.1987,0.0,-7.1987,0.0,0.0,0.0,0.0,0.0,0.0,0.0,0.0,0.0,0.0,-7.1987,0.0,0.0,0.0,-7.3432,-7.3744,-7.4408,-7.4798,-7.4954,-7.4954,-7.4954,-7.4954,-7.4954,-7.4954,-7.4954,-7.4954,-7.4876,-7.4642,-7.3822,-7.351,-7.3432,-7.269,-7.2456,-7.2651,-8.2913,-8.3333,-8.3677,-8.3677,-8.4021,-8.4289,0.0,-8.3907,-8.3792,-8.425,-8.3907,-8.3295,-8.2455,-8.2034,-8.1614,-8.1156,-8.0735,-8.0506,-8.0506,-8.0506,-8.0542,-8.0646,-8.0876,-8.106,-8.1151,-8.1115,-8.0686,-7.992,0.0,0.0,0.0,0.0,0.0,0.0,0.0,-7.7765,0.0,0.0,0.0,-7.7687,-7.7257,-7.7101,-7.7101,-7.7101,-7.7101,-7.7101,-7.7101,-7.7101,-7.7101,-7.7101,-7.7101,-7.7101,-7.7101,-7.7101,-7.7101,-7.7101,-7.7101,-7.7101,-7.7101,-7.7101,-7.7101,-7.7101,-7.7101,-7.7101,-7.7101,-7.7101,-7.7101,-7.7101,-7.675,-7.5891,-7.4173,-7.2846,0.0,0.0,0.0,0.0,0.0,0.0,-7.1987,0.0,0.0,0.0,0.0,0.0,0.0,0.0,0.0,0.0,0.0,0.0,0.0,0.0,0.0,0.0,0.0,0.0,0.0,-7.3312,-7.3705,-7.4095,-7.4486,-7.4486,-7.4486,-7.4486,-7.4486,-7.4486,-7.4486,-7.4056,-7.3861,-7.3783,-7.2963,-7.2612,-7.2573,-7.2143,-7.1987,-7.2182,-8.3524,-8.4059,-8.448,-8.4327,-8.4289,-8.425,-8.4059,-8.3295,-8.299,-8.3677,-8.3181,-8.2416,-8.1614,-8.1538,-8.1232,-8.0544,-8.0506,-8.0506,-8.0506,-8.0523,-8.0629,-8.0795,-8.109,-8.1247,-8.1213,-8.0805,-8.0154,0.0,0.0,0.0,0.0,0.0,0.0,0.0,0.0,0.0,0.0,0.0,-7.7999,-7.7375,-7.7179,-7.7101,-7.7101,-7.7101,-7.7101,-7.7101,-7.7101,-7.7101,-7.7101,-7.7101,-7.7101,-7.7101,-7.7101,-7.7101,-7.7101,-7.7101,-7.7101,-7.7101,-7.7101,-7.7101,-7.7101,-7.7101,-7.7101,-7.7101,-7.7101,-7.7101,-7.7101,-7.7101,-7.6242,-7.5071,-7.3588,-7.2573,0.0,0.0,0.0,0.0,0.0,0.0,-7.1987,0.0,0.0,0.0,-7.1987,0.0,0.0,0.0,0.0,0.0,0.0,0.0,0.0,0.0,0.0,-7.1987,-7.1987,0.0,-7.2339,0.0,-7.3002,-7.3354,-7.3978,-7.3978,-7.3978,-7.3978,-7.3978,-7.3978,-7.3939,-7.3275,-7.3002,-7.2963,-7.226,-7.1987,-7.1987,-7.1987,-7.1987,-7.2104,-8.5282,-8.532,-8.5167,-8.4441,0.0,-8.4021,-8.3219,-8.2416,-8.1958,-8.2034,-8.1958,-8.1576,-8.0735,-8.0621,-8.0582,-8.0506,-8.0506,-8.0506,-8.0506,-8.0664,-8.0778,-8.0811,-8.1206,-8.1124,-8.0361,-8.0485,-7.9843,0.0,0.0,-7.7409,0.0,0.0,0.0,0.0,0.0,0.0,0.0,-7.8702,-7.835,-7.8194,-7.7414,-7.7101,-7.7101,-7.7101,-7.7101,-7.7101,-7.7101,-7.7101,-7.7101,-7.7101,-7.7101,-7.7101,-7.7101,-7.7101,-7.7101,-7.7101,-7.7101,-7.7101,-7.7101,-7.7101,-7.7101,-7.7101,-7.7101,-7.7101,-7.7101,-7.7101,-7.7101,-7.7101,-7.5774,-7.4369,-7.3471,-7.2573,-7.1987,0.0,0.0,0.0,0.0,0.0,-7.1987,-7.1987,0.0,0.0,0.0,-7.1987,0.0,0.0,0.0,0.0,0.0,0.0,0.0,-7.1987,0.0,-7.1987,-7.1987,-7.1987,-7.2026,-7.2104,-7.2104,-7.2143,-7.2221,-7.2221,-7.2221,-7.2221,-7.2221,-7.2221,-7.2221,-7.2143,-7.2104,-7.2104,-7.2026,-7.1987,-7.1987,-7.1987,-7.1987,-7.2026,0.0,0.0,0.0,0.0,0.0,0.0,0.0,-8.1576,-8.1003,-8.1003,-8.1003,-8.0888,-8.0544,-8.0506,-8.0506,-8.0506,-8.0506,-8.0506,-8.0506,-8.0698,-8.0876,-8.103,-8.0834,-8.0639,-8.0436,-7.9541,-7.88,0.0,0.0,0.0,0.0,0.0,0.0,0.0,0.0,-7.9561,-7.8936,-7.9092,-7.8585,-7.7609,-7.7257,-7.7101,-7.7101,-7.7101,-7.7101,-7.7101,-7.7101,-7.7101,-7.7101,-7.7101,-7.7101,-7.7101,-7.7101,-7.7101,-7.7101,-7.7101,-7.7101,-7.7101,-7.7101,-7.7101,-7.7101,-7.7101,-7.7101,-7.7101,-7.7101,-7.7101,-7.6945,-7.6438,-7.4954,-7.351,-7.269,-7.2221,-7.1987,0.0,0.0,0.0,0.0,0.0,0.0,-7.1987,0.0,-7.1987,0.0,0.0,0.0,0.0,0.0,0.0,0.0,0.0,0.0,-7.1987,0.0,-7.1987,-7.1987,-7.1987,-7.1987,-7.1987,-7.1987,-7.1987,-7.1987,-7.1987,-7.1987,-7.1987,-7.1987,-7.1987,-7.1987,-7.1987,-7.1987,-7.1987,-7.1987,-7.1987,-7.1987,-7.1987,-7.1987,-7.1987,-8.5511,0.0,-8.4212,0.0,-8.2722,-8.1729,-8.1461,-8.0888,-8.0506,-8.0506,-8.0506,-8.0506,-8.0506,-8.0506,-8.0506,-8.0506,-8.0506,-8.0506,-8.0506,-8.0767,-8.1,-8.12,-8.0612,0.0,-8.0222,-7.8831,-7.8019,-7.7818,-7.7253,0.0,0.0,0.0,0.0,0.0,-8.0185,-7.9912,-7.8819,-7.917,-7.8468,-7.7101,-7.7101,-7.7101,-7.7101,-7.7101,-7.7101,-7.7101,-7.7101,-7.7101,-7.7101,-7.7101,-7.7101,-7.7101,-7.7101,-7.7101,-7.7101,-7.7101,-7.7101,-7.7101,-7.7101,-7.7101,-7.7101,-7.7101,-7.7101,-7.7101,-7.7101,-7.6906,-7.6399,-7.5305,-7.4134,-7.3041,-7.2143,-7.1987,-7.1987,-7.1987,0.0,0.0,0.0,-7.1987,0.0,-7.1987,-7.1987,-7.1987,-7.1987,-7.1987,0.0,0.0,0.0,0.0,0.0,0.0,0.0,0.0,0.0,0.0,0.0,-7.1987,-7.1987,-7.1987,-7.1987,-7.1987,-7.1987,-7.1987,-7.1987,-7.1987,-7.1987,-7.1987,-7.1987,-7.1987,-7.1987,-7.1987,-7.1987,-7.1987,-7.1987,-7.1987,-7.1987,-7.1987,-8.5511,-8.4862,-8.4021,-8.3181,-8.234,-8.1499,-8.0659,-8.0506,-8.0506,-8.0506,-8.0506,-8.0506,-8.0506,-8.0506,-8.0506,-8.0506,-8.0506,-8.0506,-8.0506,-8.0946,-8.12,0.0,0.0,-8.0183,-7.9328,-7.852,-7.7708,-7.6921,0.0,0.0,-7.5816,0.0,-7.8468,-8.0927,-8.0107,-7.9717,-7.9639,-7.878,-7.7921,-7.7101,-7.7101,-7.7101,-7.7101,-7.7101,-7.7101,-7.7101,-7.7101,-7.7101,-7.7101,-7.7101,-7.7101,-7.7101,-7.7101,-7.7101,-7.7101,-7.7101,-7.7101,-7.7101,-7.7101,-7.7101,-7.7101,-7.7101,-7.7101,-7.7101,-7.7101,-7.6438,-7.5345,-7.3666,-7.3315,-7.3041,-7.2143,-7.1987,-7.1987,-7.1987,0.0,0.0,0.0,0.0,0.0,-7.1987,-7.1987,-7.1987,-7.1987,-7.1987,0.0,0.0,0.0,0.0,0.0,0.0,0.0,-7.1987,-7.1987,0.0,-7.1987,-7.1987,-7.1987,-7.1987,-7.1987,-7.1987,-7.1987,-7.1987,-7.1987,-7.1987,-7.1987,-7.1987,-7.1987,-7.1987,-7.1987,-7.1987,-7.1987,-7.1987,-7.1987,-7.1987,-7.1987,-7.199,-8.4785,-8.3983,-8.3142,-8.234,-8.1461,-8.0812,-8.0544,-8.0506,-8.0506,-8.0506,-8.0506,-8.0506,-8.0506,-8.0506,-8.0506,0.0,-8.0506,-8.0506,0.0,-8.0946,-8.0944,-8.0351,-7.9936,-7.929,-7.8435,-7.7679,-7.717,-7.6882,0.0,0.0,0.0,-7.9053,-8.0185,-8.1005,-8.0693,-8.0263,-7.9639,-7.878,-7.7882,-7.7101,-7.7101,-7.7101,-7.7101,-7.7101,-7.7101,-7.7101,-7.7101,-7.7101,-7.7101,-7.7101,-7.7101,-7.7101,-7.7101,-7.7101,-7.7101,-7.7101,-7.7101,-7.7101,-7.7101,-7.7101,-7.7101,-7.7101,-7.7101,-7.6945,-7.636,-7.511,-7.3939,-7.3393,-7.2846,-7.2339,-7.2065,-7.1987,-7.1987,-7.1987,-7.1987,0.0,0.0,0.0,0.0,-7.1987,-7.1987,-7.1987,0.0,-7.1987,0.0,0.0,0.0,0.0,0.0,0.0,0.0,0.0,-7.1987,0.0,-7.1987,-7.1987,-7.1987,-7.1987,-7.1987,-7.1987,-7.1987,-7.1987,-7.1987,-7.1987,-7.1987,-7.1987,-7.1987,-7.1987,-7.1987,-7.1987,-7.1987,-7.1987,-7.1987,-7.1987,-7.1993,-7.2002,-8.4403,-8.3333,-8.2378,-8.1881,-8.1079,-8.0506,-8.0506,-8.0506,-8.0506,-8.0506,-8.0506,-8.0506,-8.0506,-8.0506,0.0,-8.0506,-8.0506,-8.0409,-8.0193,-8.0493,-8.0354,-7.9585,-7.9076,-7.8552,-7.8008,-7.728,0.0,-7.6882,-7.7379,-7.8194,-7.9405,-8.0498,-8.1161,-8.1474,-8.081,-8.0224,-7.9639,-7.8429,-7.7609,-7.7101,-7.7101,-7.7101,-7.7101,-7.7101,-7.7101,-7.7101,-7.7101,-7.7101,-7.7101,-7.7101,-7.7101,-7.7101,-7.7101,-7.7101,-7.7101,-7.7101,-7.7101,-7.7101,-7.7101,-7.7101,-7.7023,-7.6672,-7.6594,-7.6281,-7.511,-7.4056,-7.3197,-7.2885,-7.2378,-7.1987,-7.1987,-7.1987,-7.1987,-7.1987,-7.1987,-7.1987,-7.1987,0.0,0.0,0.0,0.0,0.0,0.0,-7.1987,-7.1987,0.0,0.0,0.0,0.0,0.0,0.0,-7.1987,-7.1987,0.0,-7.1987,-7.1987,-7.1987,-7.1987,-7.1987,-7.1987,-7.1987,-7.1987,-7.1987,-7.1987,-7.1987,-7.1987,-7.1987,-7.1987,-7.1987,-7.1987,-7.1987,-7.1987,-7.1987,-7.1987,-7.1995,-7.2006,-8.4136,-8.2875,-8.1767,0.0,-8.1041,0.0,-8.0506,-8.0506,-8.0506,-8.0506,-8.0506,-8.0506,-8.0506,-8.0506,-8.0468,-8.043,0.0,0.0,0.0,-7.9721,-7.952,-7.8944,-7.8311,-7.7969,-7.7891,-7.7241,-7.6921,-7.7011,-7.8047,-7.9405,-8.1005,-8.1044,-8.1474,-8.2137,-8.0459,-7.9678,-7.9483,-7.7804,-7.7101,-7.7101,-7.7101,-7.7101,-7.7101,-7.7101,-7.7101,-7.7101,-7.7101,-7.7101,-7.7101,-7.7101,-7.7101,-7.7101,-7.7101,-7.7101,-7.7101,-7.7101,-7.7101,-7.7101,-7.7023,-7.7023,-7.6789,-7.593,-7.566,-7.5227,-7.3666,-7.3236,-7.2963,-7.2182,-7.1987,-7.1987,-7.1987,-7.1987,-7.1987,-7.1987,-7.1987,-7.1987,-7.1987,0.0,0.0,0.0,0.0,0.0,0.0,-7.1987,-7.1987,0.0,0.0,0.0,0.0,0.0,-7.1987,-7.1987,-7.1987,-7.1987,-7.1987,-7.1987,-7.1987,-7.1987,-7.1987,-7.1987,-7.1987,-7.1987,-7.1987,-7.1987,-7.1987,-7.1987,-7.1987,-7.1987,-7.1987,-7.1987,-7.1987,-7.1987,-7.1987,-7.199,-7.1997,-7.2008,0.0,0.0,-8.1576,-8.0926,-8.0621,-8.0506,-8.0506,-8.0506,-8.0506,-8.0506,-8.0506,-8.0506,-8.0506,-8.0506,-8.0238,-7.9646,-7.9589,-7.9601,-7.961,-7.9182,-7.8632,-7.8015,-7.8001,-7.7697,-7.7036,-7.6929,-7.7277,-7.8054,-7.9633,-8.0615,-8.1005,-8.1669,-8.1747,-8.1278,-8.0185,-7.9326,-7.8624,-7.757,-7.7101,-7.7101,-7.7101,-7.7101,-7.7101,-7.7101,-7.7101,-7.7101,-7.7101,-7.7101,-7.7101,-7.7101,-7.7101,-7.7101,-7.7101,-7.7101,-7.7101,-7.7101,-7.7101,-7.6945,-7.6281,-7.6125,-7.5891,-7.5032,-7.4369,-7.3783,-7.3393,-7.2807,-7.226,-7.2026,-7.1987,-7.1987,-7.1987,-7.1987,-7.1987,-7.1987,-7.1987,-7.1987,-7.1987,-7.1987,0.0,0.0,-7.1987,-7.1987,-7.1987,-7.1987,-7.1987,0.0,0.0,0.0,0.0,-7.1987,-7.1987,-7.1987,-7.1987,-7.1987,-7.1987,-7.1987,-7.1987,-7.1987,-7.1987,-7.1987,-7.1987,-7.1987,-7.1987,-7.1987,-7.1987,-7.1987,-7.1987,-7.1987,-7.1987,-7.1987,-7.1987,-7.1987,-7.199,-7.2,-7.2008,-7.2017,-8.1996,-8.1499,-8.1041,-8.0582,-8.0506,-8.0506,-8.0506,-8.0506,-8.0506,-8.0506,-8.0506,-8.0506,-8.0506,-8.0162,-7.978,-7.934,-7.9302,-7.9118,-7.8631,-7.8238,-7.7794,-7.7281,-7.7341,-7.7192,-7.6726,-7.7202,-7.8189,-7.96,-8.0537,-8.12,-8.1591,-8.2098,-8.1825,-8.0966,-8.0107,-7.9209,-7.835,-7.7453,-7.7101,-7.7101,-7.7101,-7.7101,-7.7101,-7.7101,-7.7101,-7.7101,-7.7101,-7.7101,-7.7101,-7.7101,-7.7101,-7.7023,-7.6633,-7.6516,-7.6438,-7.6047,-7.6203,-7.632,-7.5423,-7.5227,-7.4993,-7.4173,-7.3315,-7.2729,-7.2729,-7.2339,-7.1987,-7.1987,-7.1987,-7.1987,-7.1987,-7.1987,-7.1987,-7.1987,-7.1987,-7.1987,-7.1987,-7.1987,0.0,-7.1987,-7.1987,-7.1987,-7.1987,-7.1987,-7.1987,-7.1987,-7.1987,0.0,-7.1987,-7.1987,-7.1987,-7.1987,-7.1987,-7.1987,-7.1987,-7.1987,-7.1987,-7.1987,-7.1987,-7.1987,-7.1987,-7.1987,-7.1987,-7.1987,-7.1987,-7.1987,-7.1987,-7.1987,-7.1987,-7.1987,-7.1987,-7.1993,-7.1997,-7.2004,-7.2016,-7.1986,-8.1614,-8.1003,-8.0506,-8.0506,-8.0506,-8.0506,-8.0506,-8.0506,-8.0506,-8.0506,-8.0391,-8.0315,-8.0315,-7.9589,-7.9054,-7.8901,-7.8956,-7.853,-7.7483,-7.7279,-7.707,-7.6708,-7.6687,-7.6764,-7.6881,-7.8026,-7.9393,-8.0999,-8.1119,-8.1552,-8.2293,-8.2293,-8.1747,-8.0771,-8.0029,-7.9131,-7.8155,-7.7414,-7.7101,-7.7101,-7.7101,-7.7101,-7.7101,-7.7101,-7.7101,-7.7101,-7.7101,-7.7101,-7.7062,-7.6945,-7.6906,-7.675,-7.5891,-7.5618,-7.5423,-7.4564,-7.4837,-7.5266,-7.4525,-7.4212,-7.3978,-7.3275,-7.2534,-7.1987,-7.1987,-7.1987,-7.1987,-7.1987,-7.1987,-7.1987,-7.1987,-7.1987,-7.1987,-7.1987,-7.1987,-7.1987,-7.1987,0.0,-7.1987,-7.1987,-7.1987,-7.1987,-7.1987,-7.1987,-7.1987,-7.1987,-7.1987,-7.1987,-7.1987,-7.1987,-7.1987,-7.1987,-7.1987,-7.1987,-7.1987,-7.1987,-7.1987,-7.1987,-7.1987,-7.1987,-7.1987,-7.1987,-7.1987,-7.1987,-7.1987,-7.1987,-7.1987,-7.1987,-7.1987,-7.1987,-7.1987,-7.1995,-7.2006,-7.2008,-7.1981,-7.1989,-8.085,-8.0582,-8.0506,-8.0506,-8.0506,-8.0506,-8.0506,-8.0506,-8.0506,-8.0506,-7.9895,-7.9493,-7.9493,-7.871,-7.7908,-7.7182,-7.7313,-7.7416,-7.7406,-7.67,-7.6413,-7.6708,-7.6687,-7.7036,-7.7775,-7.9506,-8.058,-8.0913,-8.1691,-8.2176,-8.2293,-8.2293,-8.1435,-7.9912,-7.9756,-7.8819,-7.7296,-7.7179,-7.7101,-7.7101,-7.7101,-7.7101,-7.7101,-7.7101,-7.7101,-7.7101,-7.7101,-7.7101,-7.6984,-7.6242,-7.6008,-7.5852,-7.4993,-7.4681,-7.4525,-7.3744,-7.3588,-7.3666,-7.351,-7.2963,-7.2378,-7.2221,-7.2104,-7.1987,-7.1987,-7.1987,-7.1987,-7.1987,-7.1987,-7.1987,-7.1987,-7.1987,-7.1987,-7.1987,-7.1987,-7.1987,-7.1987,0.0,-7.1987,-7.1987,-7.1987,-7.1987,-7.1987,-7.1987,-7.1987,-7.1987,-7.1987,-7.1987,-7.1987,-7.1987,-7.1987,-7.1987,-7.1987,-7.1987,-7.1987,-7.1987,-7.1987,-7.1987,-7.1987,-7.1987,-7.1987,-7.1987,-7.1987,-7.1987,-7.1987,-7.1987,-7.1987,-7.1987,-7.1987,-7.1987,-7.1987,-7.1995,-7.2006,-7.2016,-7.1985,-7.199,-8.0582,-8.0506,-8.0506,-8.0506,-8.0506,-8.0506,-8.0506,-8.0506,-8.0353,-7.9895,-7.9513,-7.9111,-7.8634,-7.7831,-7.7197,-7.693,-7.66,-7.6506,-7.684,-7.6466,-7.64,-7.6678,-7.6687,-7.7335,-7.8707,-8.0111,-8.1048,-8.1607,-8.2078,-8.2293,-8.2293,-8.2293,-8.1356,-7.9717,-7.9717,-7.8741,-7.7101,-7.7101,-7.7101,-7.7101,-7.7101,-7.7101,-7.7101,-7.7101,-7.7101,-7.7023,-7.6555,-7.6399,-7.6281,-7.5384,-7.511,-7.4954,-7.4134,-7.3861,-7.3705,-7.2846,-7.2612,-7.2612,-7.2612,-7.23,-7.1987,-7.1987,-7.1987,-7.1987,-7.1987,-7.1987,-7.1987,-7.1987,-7.1987,-7.1987,-7.1987,-7.1987,-7.1987,-7.1987,-7.1987,0.0,0.0,-7.1987,-7.1987,-7.1987,-7.1987,-7.1987,-7.1987,-7.1987,-7.1987,-7.1987,-7.1987,-7.1987,-7.1987,-7.1987,-7.1987,-7.1987,-7.1987,-7.1987,-7.1987,-7.1987,-7.1987,-7.1987,-7.1987,-7.1987,-7.1987,-7.1987,-7.1987,-7.1987,-7.1987,-7.1987,-7.1987,-7.1987,-7.1987,-7.1987,-7.1995,-7.2004,-7.2016,-7.1984,-7.1989,-7.1992,-8.0506,-8.0506,-8.0506,-8.0506,-8.0506,-8.0506,-8.0506,-8.0353,-8.0009,-7.9378,-7.8958,-7.8443,-7.7755,-7.6914,-7.6539,-7.6801,-7.6225,-7.6041,-7.6389,-7.6443,-7.6526,-7.6678,-7.6881,-7.774,-7.9345,-8.0319,-8.1243,-8.2192,-8.2277,-8.2293,-8.2293,-8.2098,-8.1161,-7.9678,-7.9483,-7.8546,-7.7101,-7.7101,-7.7101,-7.7101,-7.7101,-7.7101,-7.7101,-7.7101,-7.6984,-7.6711,-7.6047,-7.566,-7.5384,-7.4525,-7.4212,-7.4095,-7.3275,-7.3002,-7.2885,-7.2182,-7.1987,-7.1987,-7.1987,-7.1987,-7.1987,-7.1987,-7.1987,-7.1987,-7.1987,-7.1987,-7.1987,-7.1987,-7.1987,-7.1987,-7.1987,-7.1987,-7.1987,-7.1987,0.0,0.0,0.0,-7.1987,-7.1987,-7.1987,-7.1987,-7.1987,-7.1987,-7.1987,-7.1987,-7.1987,-7.1987,-7.1987,-7.1987,-7.1987,-7.1987,-7.1987,-7.1987,-7.1987,-7.1987,-7.1987,-7.1987,-7.1987,-7.1987,-7.1987,-7.1987,-7.1987,-7.1987,-7.1987,-7.1987,-7.1987,-7.1987,-7.1987,-7.1987,-7.199,-7.2002,-7.2012,-7.1981,-7.1988,-7.1991,-7.1992,-8.0506,-8.0506,-8.0506,-8.0506,-8.0506,-8.0506,-8.0506,-7.9856,-7.9378,-7.9302,-7.787,-7.6876,-7.68,-7.6074,-7.5659,-7.5879,-7.6024,-7.6186,-7.6389,-7.6546,-7.6669,-7.6678,-7.7464,-7.8362,-7.9384,-8.0319,-8.1243,-8.2192,-8.2277,-8.2293,-8.2293,-8.1474,-8.0615,-7.9678,-7.8858,-7.796,-7.7101,-7.7101,-7.7101,-7.7101,-7.7101,-7.7101,-7.7101,-7.7101,-7.6594,-7.5894,-7.5816,-7.5266,-7.4486,-7.3666,-7.3393,-7.3236,-7.2378,-7.2104,-7.2065,-7.2026,-7.1987,-7.1987,-7.1987,-7.1987,-7.1987,-7.1987,-7.1987,-7.1987,-7.1987,-7.1987,-7.1987,-7.1987,-7.1987,-7.1987,-7.1987,-7.1987,-7.1987,-7.1987,0.0,0.0,-7.1987,-7.1987,-7.1987,-7.1987,-7.1987,-7.1987,-7.1987,-7.1987,-7.1987,-7.1987,-7.1987,-7.1987,-7.1987,-7.1987,-7.1987,-7.1987,-7.1987,-7.1987,-7.1987,-7.1987,-7.1987,-7.1987,-7.1987,-7.1987,-7.1987,-7.1987,-7.1987,-7.1987,-7.1987,-7.1987,-7.1987,-7.1987,-7.1987,-7.199,-7.2002,-7.2012,-7.1981,-7.1988,-7.1991,-7.1992,-8.0506,-8.0506,-8.0506,-8.0506,-8.0506,-8.0315,-7.9818,-7.9493,-7.8901,-7.7831,-7.7105,-7.6494,-7.5997,-7.5653,-7.5583,-7.5787,-7.5985,-7.6199,-7.6389,-7.6604,-7.6687,-7.6687,-7.7541,-7.844,-7.9384,-8.0319,-8.1243,-8.2192,-8.2277,-8.2293,-8.2293,-8.1396,-8.0537,-7.9678,-7.878,-7.7921,-7.7101,-7.7101,-7.7101,-7.7101,-7.7101,-7.6789,-7.6281,-7.6281,-7.5735,-7.4915,-7.4447,-7.4056,-7.3627,-7.2768,-7.2495,-7.2456,-7.2104,-7.1987,-7.1987,-7.1987,-7.1987,-7.1987,-7.1987,-7.1987,-7.1987,-7.1987,-7.1987,-7.1987,-7.1987,-7.1987,-7.1987,-7.1987,-7.1987,-7.1987,-7.1987,-7.1987,-7.1987,-7.1987,0.0,-7.1987,-7.1987,-7.1987,-7.1987,-7.1987,-7.1987,-7.1987,-7.1987,-7.1987,-7.1987,-7.1987,-7.1987,-7.1987,-7.1987,-7.1987,-7.1987,-7.1987,-7.1987,-7.1987,-7.1987,-7.1987,-7.1987,-7.1987,-7.1987,-7.1987,-7.1987,-7.1987,-7.1987,-7.1987,-7.1987,-7.1987,-7.1987,-7.1997,-7.2,-7.2002,-7.2019,-7.1985,-7.1987,-7.1989,-7.1991,-7.1992,-8.0506,-8.0506,-8.0506,-8.0506,-8.0506,-8.0238,-7.9416,-7.9072,-7.8366,-7.6876,-7.6494,-7.6112,-7.5539,-7.5518,-7.5616,-7.5855,-7.6027,-7.6185,-7.6475,-7.6623,-7.6687,-7.6687,-7.727,-7.8029,-7.8993,-7.9669,-8.0586,-8.1824,-8.1851,-8.202,-8.2254,-8.1122,-8.0263,-7.9639,-7.8507,-7.7648,-7.7101,-7.7101,-7.7101,-7.7062,-7.6789,-7.632,-7.5777,-7.5501,-7.4876,-7.4056,-7.351,-7.3119,-7.2807,-7.2182,-7.1987,-7.1987,-7.1987,-7.1987,-7.1987,-7.1987,-7.1987,-7.1987,-7.1987,-7.1987,-7.1987,-7.1987,-7.1987,-7.1987,-7.1987,-7.1987,-7.1987,-7.1987,-7.1987,-7.1987,-7.1987,-7.1987,-7.1987,-7.1987,-7.1987,-7.1987,-7.1987,-7.1987,-7.1987,-7.1987,-7.1987,-7.1987,-7.1987,-7.1987,-7.1987,-7.1987,-7.1987,-7.1987,-7.1987,-7.1987,-7.1987,-7.1987,-7.1987,-7.1987,-7.1987,-7.1987,-7.1987,-7.1987,-7.1987,-7.1987,-7.1987,-7.1987,-7.1987,-7.1987,-7.1993,-7.1995,-7.1995,-7.2002,-7.2006,-7.2008,-7.1981,-7.1985,-7.1985,-7.1987,-7.199,-7.1992,-8.0506,-8.0506,-8.0506,-8.0506,-8.0506,-8.02,-7.9416,-7.8557,-7.7678,-7.68,-7.5997,-7.5518,-7.5518,-7.5518,-7.5644,-7.6081,-7.6108,-7.6285,-7.666,-7.6687,-7.6687,-7.6687,-7.6687,-7.7159,-7.8168,-7.8213,-7.9125,-8.1005,-8.1005,-8.1435,-8.2254,-8.0498,-7.9717,-7.96,-7.7882,-7.7101,-7.7101,-7.7101,-7.7101,-7.7023,-7.6164,-7.5777,-7.5699,-7.4837,-7.3978,-7.3275,-7.3275,-7.2729,-7.1987,-7.1987,-7.1987,-7.1987,-7.1987,-7.1987,-7.1987,-7.1987,-7.1987,-7.1987,-7.1987,-7.1987,-7.1987,-7.1987,-7.1987,-7.1987,-7.1987,-7.1987,-7.1987,-7.1987,-7.1987,-7.1987,-7.1987,-7.1987,-7.1987,-7.1987,-7.1987,-7.1987,-7.1987,-7.1987,-7.1987,-7.1987,-7.1987,-7.1987,-7.1987,-7.1987,-7.1987,-7.1987,-7.1987,-7.1987,-7.1987,-7.1987,-7.1987,-7.1987,-7.1987,-7.1987,-7.1987,-7.1987,-7.1987,-7.1987,-7.1987,-7.1987,-7.1987,-7.1987,-7.1987,-7.1987,-7.2002,-7.2006,-7.2006,-7.2006,-7.2006,-7.2006,-7.2006,-7.2006,-7.2006,-7.2017,-7.1985,-7.1989,-8.0506,-8.0506,-8.0506,-8.0506,-8.0009,-7.936,-7.8519,-7.764,-7.68,-7.5959,-7.5653,-7.5518,-7.5518,-7.5649,-7.5772,-7.5885,-7.6173,-7.6422,-7.6669,-7.6687,-7.6713,-7.6778,-7.6778,-7.7219,-7.8168,-7.8252,-7.8885,-8.0107,-8.0693,-8.081,-8.0459,-7.9951,-7.9366,-7.8741,-7.7609,-7.7101,-7.7101,-7.7101,-7.675,-7.6164,-7.5894,-7.511,-7.4017,-7.3744,-7.3119,-7.2378,-7.2378,-7.2221,-7.1987,-7.1987,-7.1987,-7.1987,-7.1987,-7.1987,-7.1987,-7.1987,-7.1987,-7.1987,-7.1987,-7.1987,-7.1987,-7.1987,-7.1987,-7.1987,-7.1987,-7.1987,-7.1987,-7.1987,-7.1987,-7.1987,-7.1987,-7.1987,-7.1987,-7.1987,-7.1987,-7.1987,-7.1987,-7.1987,-7.1987,-7.1987,-7.1987,-7.1987,-7.1987,-7.1987,-7.1987,-7.1987,-7.1987,-7.1987,-7.1987,-7.1987,-7.1987,-7.1987,-7.1987,-7.1987,-7.1987,-7.1987,-7.1987,-7.1987,-7.1987,-7.1987,-7.1987,-7.1987,-7.1987,-7.1987,-7.1993,-7.1993,-7.1995,-7.2002,-7.2006,-7.2006,-7.2014,-7.2016,-7.2016,-7.2019,-7.1985,-7.1989,-8.0506,-8.0506,-8.0391,-8.0086,-7.9627,-7.8863,-7.7678,-7.7029,-7.6418,-7.5615,-7.5518,-7.5518,-7.5518,-7.5616,-7.5756,-7.5914,-7.6308,-7.6585,-7.6678,-7.6687,-7.673,-7.6816,-7.6844,-7.7131,-7.7701,-7.777,-7.8234,-7.917,-7.9717,-7.9873,-7.9678,-7.9366,-7.8897,-7.835,-7.7492,-7.7101,-7.7101,-7.7101,-7.6594,-7.5777,-7.5423,-7.4486,-7.3275,-7.2924,-7.2456,-7.1987,-7.1987,-7.1987,-7.1987,-7.1987,-7.1987,-7.1987,-7.1987,-7.1987,-7.1987,-7.1987,-7.1987,-7.1987,-7.1987,-7.1987,-7.1987,-7.1987,-7.1987,-7.1987,-7.1987,-7.1987,-7.1987,-7.1987,-7.1987,-7.1987,-7.1987,-7.1987,-7.1987,-7.1987,-7.1987,-7.1987,-7.1987,-7.1987,-7.1987,-7.1987,-7.1987,-7.1987,-7.1987,-7.1987,-7.1987,-7.1987,-7.1987,-7.1987,-7.1987,-7.1987,-7.1987,-7.1987,-7.1987,-7.1987,-7.1987,-7.1987,-7.1987,-7.1987,-7.1987,-7.1987,-7.1987,-7.1987,-7.1987,-7.1987,-7.1993,-7.1995,-7.1995,-7.2004,-7.2006,-7.2006,-7.2012,-7.2014,-7.2016,-7.2019,-7.1985,-7.1989,-8.0506,-8.0506,-8.0238,-7.9454,-7.9263,-7.8596,-7.6953,-7.6647,-7.6341,-7.5594,-7.5518,-7.5518,-7.5518,-7.5514,-7.5692,-7.6081,-7.6465,-7.6687,-7.6687,-7.6687,-7.673,-7.6823,-7.6891,-7.6911,-7.7012,-7.7012,-7.7422,-7.8272,-7.835,-7.878,-7.9444,-7.8741,-7.835,-7.8233,-7.7453,-7.7101,-7.7101,-7.7023,-7.6477,-7.5618,-7.4759,-7.39,-7.3119,-7.23,-7.1987,-7.1987,-7.1987,-7.1987,-7.1987,-7.1987,-7.1987,-7.1987,-7.1987,-7.1987,-7.1987,-7.1987,-7.1987,-7.1987,-7.1987,-7.1987,-7.1987,-7.1987,-7.1987,-7.1987,-7.1987,-7.1987,-7.1987,-7.1987,-7.1987,-7.1987,-7.1987,-7.1987,-7.1987,-7.1987,-7.1987,-7.1987,-7.1987,-7.1987,-7.1987,-7.1987,-7.1987,-7.1987,-7.1987,-7.1987,-7.1987,-7.1987,-7.1987,-7.1987,-7.1987,-7.1987,-7.1987,-7.1987,-7.1987,-7.1987,-7.1987,-7.1987,-7.1987,-7.1987,-7.1987,-7.1987,-7.1987,-7.1987,-7.1987,-7.1987,-7.2,-7.2004,-7.2004,-7.2004,-7.2004,-7.2006,-7.2006,-7.2006,-7.2008,-7.2017,-7.1986,-7.1989,-8.0506,-8.0506,-8.0238,-7.9454,-7.8748,-7.7908,-7.6876,-7.615,-7.5692,-7.5501,-7.5518,-7.5518,-7.5518,-7.5803,-7.6013,-7.6108,-7.6465,-7.6687,-7.6687,-7.6687,-7.6754,-7.6858,-7.6876,-7.697,-7.7089,-7.7092,-7.7173,-7.7375,-7.8077,-7.8155,-7.7687,-7.8155,-7.8038,-7.7375,-7.7179,-7.7101,-7.7062,-7.636,-7.5579,-7.472,-7.39,-7.3041,-7.226,-7.2065,-7.1987,-7.1987,-7.1987,-7.1987,-7.1987,-7.1987,-7.1987,-7.1987,-7.1987,-7.1987,-7.1987,-7.1987,-7.1987,-7.1987,-7.1987,-7.1987,-7.1987,-7.1987,-7.1987,-7.1987,-7.1987,-7.1987,-7.1987,-7.1987,-7.1987,-7.1987,-7.1987,-7.1987,-7.1987,-7.1987,-7.1987,-7.1987,-7.1987,-7.1987,-7.1987,-7.1987,-7.1987,-7.1987,-7.1987,-7.1987,-7.1987,-7.1987,-7.1987,-7.1987,-7.1987,-7.1987,-7.1987,-7.1987,-7.1987,-7.1987,-7.1987,-7.1987,-7.1987,-7.1987,-7.1987,-7.1987,-7.1987,-7.1987,-7.1987,-7.1987,-7.199,-7.1993,-7.1993,-7.1993,-7.1997,-7.2006,-7.2006,-7.201,-7.2017,-7.1986,-7.1989,-7.199,-8.0506,-8.02,-7.9665,-7.8825,-7.7946,-7.7105,-7.6265,-7.5768,-7.5518,-7.5518,-7.5518,-7.5518,-7.5518,-7.5787,-7.6041,-7.6248,-7.6506,-7.6687,-7.6687,-7.6687,-7.6762,-7.6876,-7.6882,-7.6975,-7.7098,-7.7101,-7.7101,-7.7101,-7.757,-7.7531,-7.7101,-7.757,-7.7531,-7.7101,-7.7101,-7.6867,-7.6438,-7.5969,-7.5071,-7.39,-7.3471,-7.2768,-7.1987,-7.1987,-7.1987,-7.1987,-7.1987,-7.1987,-7.1987,-7.1987,-7.1987,-7.1987,-7.1987,-7.1987,-7.1987,-7.1987,-7.1987,-7.1987,-7.1987,-7.1987,-7.1987,-7.1987,-7.1987,-7.1987,-7.1987,-7.1987,-7.1987,-7.1987,-7.1987,-7.1987,-7.1987,-7.1987,-7.1987,-7.1987,-7.1987,-7.1987,-7.1987,-7.1987,-7.1987,-7.1987,-7.1987,-7.1987,-7.1987,-7.1987,-7.1987,-7.1987,-7.1987,-7.1987,-7.1987,-7.1987,-7.1987,-7.1987,-7.1987,-7.1987,-7.1987,-7.1987,-7.1987,-7.1987,-7.1987,-7.1987,-7.1987,-7.1987,-7.1987,-7.1987,-7.1987,-7.1987,-7.1987,-7.1995,-7.2,-7.2006,-7.2017,-7.1982,-7.1986,-7.199,-7.1991,-7.1991,-8.0506,-7.9856,-7.9016,-7.8137,-7.7296,-7.6418,-7.5633,-7.5518,-7.5518,-7.5518,-7.5518,-7.5518,-7.5518,-7.5708,-7.6013,-7.6422,-7.6614,-7.6687,-7.6687,-7.6687,-7.6762,-7.6876,-7.6882,-7.6975,-7.7098,-7.7101,-7.7101,-7.7101,-7.7101,-7.7101,-7.7101,-7.7101,-7.7101,-7.7101,-7.7101,-7.6633,-7.5777,-7.566,-7.4681,-7.3275,-7.3158,-7.2651,-7.1987,-7.1987,-7.1987,-7.1987,-7.1987,-7.1987,-7.1987,-7.1987,-7.1987,-7.1987,-7.1987,-7.1987,-7.1987,-7.1987,-7.1987,-7.1987,-7.1987,-7.1987,-7.1987,-7.1987,-7.1987,-7.1987,-7.1987,-7.1987,-7.1987,-7.1987,-7.1987,-7.1987,-7.1987,-7.1987,-7.1987,-7.1987,-7.1987,-7.1987,-7.1987,-7.1987,-7.1987,-7.1987,-7.1987,-7.1987,-7.1987,-7.1987,-7.1987,-7.1987,-7.1987,-7.1987,-7.1987,-7.1987,-7.1987,-7.1987,-7.1987,-7.1987,-7.1987,-7.1987,-7.1987,-7.1987,-7.1987,-7.1987,-7.1987,-7.1987,-7.1987,-7.1987,-7.1987,-7.199,-7.1993,-7.2002,-7.2008,-7.2014,-7.1987,-7.199,-7.199,-7.1992,-7.1992,-7.1992,-8.0506,-7.9856,-7.9016,-7.8137,-7.7296,-7.6418,-7.5633,-7.5518,-7.5518,-7.5518,-7.5518,-7.5518,-7.5518,-7.5825,-7.6236,-7.6623,-7.6669,-7.6687,-7.6687,-7.6687,-7.6762,-7.6876,-7.6882,-7.6975,-7.7098,-7.7101,-7.7101,-7.7101,-7.7101,-7.7101,-7.7101,-7.7101,-7.7101,-7.7101,-7.7101,-7.6633,-7.5738,-7.4993,-7.4134,-7.3236,-7.2495,-7.2104,-7.1987,-7.1987,-7.1987,-7.1987,-7.1987,-7.1987,-7.1987,-7.1987,-7.1987,-7.1987,-7.1987,-7.1987,-7.1987,-7.1987,-7.1987,-7.1987,-7.1987,-7.1987,-7.1987,-7.1987,-7.1987,-7.1987,-7.1987,-7.1987,-7.1987,-7.1987,-7.1987,-7.1987,-7.1987,-7.1987,-7.1987,-7.1987,-7.1987,-7.1987,-7.1987,-7.1987,-7.1987,-7.1987,-7.1987,-7.1987,-7.1987,-7.1987,-7.1987,-7.1987,-7.1987,-7.1987,-7.1987,-7.1987,-7.1987,-7.1987,-7.1987,-7.1987,-7.1987,-7.1987,-7.1987,-7.1987,-7.1987,-7.1987,-7.1987,-7.1987,-7.1987,-7.1987,-7.1987,-7.1995,-7.2004,-7.2006,-7.2016,-7.1988,-7.1989,-7.1991,-7.1992,-7.1992,-7.1992,-7.1992,-7.9895,-7.913,-7.829,-7.7449,-7.657,-7.5921,-7.5556,-7.5518,-7.5518,-7.5518,-7.5518,-7.5532,-7.5644,-7.6041,-7.6389,-7.6669,-7.6687,-7.6687,-7.6687,-7.6687,-7.6762,-7.6876,-7.6882,-7.6975,-7.7098,-7.7101,-7.7101,-7.7101,-7.7101,-7.7101,-7.7101,-7.7101,-7.7101,-7.7062,-7.6594,-7.5891,-7.5032,-7.4173,-7.3354,-7.2534,-7.2143,-7.1987,-7.1987,-7.1987,-7.1987,-7.1987,-7.1987,-7.1987,-7.1987,-7.1987,-7.1987,-7.1987,-7.1987,-7.1987,-7.1987,-7.1987,-7.1987,-7.1987,-7.1987,-7.1987,-7.1987,-7.1987,-7.1987,-7.1987,-7.1987,-7.1987,-7.1987,-7.1987,-7.1987,-7.1987,-7.1987,-7.1987,-7.1987,-7.1987,-7.1987,-7.1987,-7.1987,-7.1987,-7.1987,-7.1987,-7.1987,-7.1987,-7.1987,-7.1987,-7.1987,-7.1987,-7.1987,-7.1987,-7.1987,-7.1987,-7.1987,-7.1987,-7.1987,-7.1987,-7.1987,-7.1987,-7.1987,-7.1987,-7.1987,-7.1987,-7.1987,-7.1987,-7.1993,-7.1997,-7.1997,-7.2004,-7.2014,-7.1981,-7.1986,-7.199,-7.1991,-7.1992,-7.1992,-7.1992,-7.1992,-7.1992]},{"header":{"parameterUnit":"m.s-1","parameterCategory":1,"la1":30.6,"la2":28.766,"lo1":-90.7593,"lo2":-88.6598,"dy":0.0162,"dx":0.0183,"nx":116,"ny":114,"refTime":"2023-03-20T18:00:00:Z","depth":0,"parameterNumber":3,"parameterNumberName":"V-component_of_WINDS"},"data":[0.0,0.0,0.0,0.0,0.0,0.0,0.0,0.0,0.0,0.0,0.0,0.0,0.0,0.0,0.0,0.0,0.0,0.0,0.0,0.0,0.0,0.0,0.0,0.0,0.0,0.0,0.0,0.0,0.0,0.0,0.0,0.0,0.0,0.0,0.0,0.0,0.0,0.0,0.0,0.0,0.0,0.0,0.0,0.0,0.0,0.0,0.0,0.0,0.0,0.0,0.0,0.0,0.0,0.0,0.0,0.0,0.0,0.0,0.0,0.0,0.0,0.0,0.0,0.0,0.0,0.0,0.0,0.0,0.0,0.0,0.0,0.0,0.0,0.0,0.0,0.0,0.0,0.0,0.0,0.0,0.0,0.0,0.0,0.0,0.0,0.0,0.0,0.0,0.0,0.0,0.0,0.0,0.0,0.0,0.0,0.0,0.0,0.0,0.0,0.0,0.0,0.0,0.0,0.0,0.0,0.0,0.0,0.0,0.0,0.0,0.0,0.0,0.0,0.0,0.0,0.0,0.0,0.0,0.0,0.0,0.0,0.0,0.0,0.0,0.0,0.0,0.0,0.0,0.0,0.0,0.0,0.0,0.0,0.0,0.0,0.0,0.0,0.0,0.0,0.0,0.0,0.0,0.0,0.0,0.0,0.0,0.0,0.0,0.0,0.0,0.0,0.0,0.0,0.0,0.0,0.0,0.0,0.0,0.0,0.0,0.0,0.0,0.0,0.0,0.0,0.0,0.0,0.0,0.0,0.0,0.0,0.0,0.0,0.0,0.0,0.0,0.0,0.0,0.0,0.0,0.0,0.0,0.0,0.0,0.0,0.0,0.0,0.0,0.0,0.0,0.0,0.0,0.0,0.0,0.0,0.0,0.0,0.0,0.0,0.0,0.0,0.0,0.0,0.0,0.0,0.0,0.0,0.0,0.0,0.0,0.0,0.0,0.0,0.0,0.0,0.0,0.0,0.0,0.0,0.0,0.0,0.0,0.0,0.0,0.0,0.0,0.0,0.0,0.0,0.0,0.0,0.0,0.0,0.0,0.0,0.0,0.0,0.0,0.0,0.0,0.0,0.0,0.0,0.0,0.0,0.0,0.0,0.0,0.0,0.0,0.0,0.0,0.0,0.0,0.0,0.0,0.0,0.0,0.0,0.0,0.0,0.0,0.0,0.0,0.0,0.0,0.0,0.0,0.0,0.0,0.0,0.0,0.0,0.0,0.0,0.0,0.0,0.0,0.0,0.0,0.0,0.0,0.0,0.0,0.0,0.0,0.0,0.0,0.0,0.0,0.0,0.0,0.0,0.0,0.0,0.0,0.0,0.0,0.0,0.0,0.0,0.0,0.0,0.0,0.0,0.0,0.0,0.0,0.0,0.0,0.0,0.0,0.0,0.0,0.0,0.0,0.0,0.0,0.0,0.0,0.0,0.0,0.0,0.0,0.0,0.0,0.0,0.0,0.0,0.0,0.0,0.0,0.0,0.0,0.0,0.0,0.0,0.0,0.0,0.0,0.0,0.0,0.0,0.0,0.0,0.0,0.0,0.0,0.0,0.0,0.0,0.0,0.0,0.0,0.0,0.0,0.0,0.0,0.0,0.0,0.0,0.0,0.0,0.0,0.0,0.0,0.0,0.0,0.0,0.0,0.0,0.0,0.0,0.0,0.0,0.0,0.0,0.0,0.0,0.0,0.0,0.0,0.0,0.0,0.0,0.0,0.0,0.0,0.0,0.0,0.0,0.0,0.0,0.0,0.0,0.0,0.0,0.0,0.0,0.0,0.0,0.0,0.0,0.0,0.0,0.0,0.0,0.0,0.0,0.0,0.0,0.0,0.0,0.0,0.0,0.0,0.0,0.0,0.0,0.0,0.0,0.0,0.0,0.0,0.0,0.0,0.0,0.0,0.0,0.0,0.0,0.0,0.0,0.0,0.0,0.0,0.0,0.0,0.0,0.0,0.0,0.0,0.0,0.0,0.0,0.0,0.0,0.0,0.0,0.0,0.0,0.0,0.0,0.0,0.0,0.0,0.0,0.0,0.0,0.0,0.0,0.0,0.0,0.0,0.0,0.0,0.0,0.0,0.0,0.0,0.0,0.0,0.0,0.0,0.0,0.0,0.0,0.0,0.0,0.0,0.0,0.0,0.0,0.0,0.0,0.0,0.0,0.0,0.0,0.0,0.0,0.0,0.0,0.0,0.0,0.0,0.0,0.0,0.0,0.0,0.0,0.0,0.0,0.0,0.0,0.0,0.0,0.0,0.0,0.0,0.0,0.0,0.0,0.0,0.0,0.0,0.0,0.0,0.0,0.0,0.0,0.0,0.0,0.0,0.0,0.0,0.0,0.0,0.0,0.0,0.0,0.0,0.0,0.0,0.0,0.0,0.0,0.0,0.0,0.0,0.0,0.0,0.0,0.0,0.0,0.0,0.0,0.0,0.0,0.0,0.0,0.0,0.0,0.0,0.0,0.0,0.0,0.0,0.0,0.0,0.0,0.0,0.0,0.0,0.0,0.0,0.0,0.0,0.0,0.0,0.0,0.0,0.0,0.0,0.0,0.0,0.0,0.0,0.0,0.0,0.0,0.0,0.0,0.0,0.0,0.0,0.0,0.0,0.0,0.0,0.0,0.0,0.0,0.0,0.0,0.0,0.0,0.0,0.0,0.0,0.0,0.0,0.0,0.0,0.0,0.0,0.0,0.0,0.0,0.0,0.0,0.0,0.0,0.0,0.0,0.0,0.0,0.0,0.0,0.0,0.0,0.0,0.0,0.0,0.0,0.0,0.0,0.0,0.0,0.0,0.0,0.0,0.0,0.0,0.0,0.0,0.0,0.0,0.0,0.0,0.0,0.0,0.0,0.0,0.0,0.0,0.0,0.0,0.0,0.0,0.0,0.0,0.0,0.0,0.0,0.0,0.0,0.0,0.0,0.0,0.0,0.0,0.0,0.0,0.0,0.0,0.0,0.0,0.0,0.0,0.0,0.0,0.0,0.0,0.0,0.0,0.0,0.0,0.0,0.0,0.0,0.0,0.0,0.0,0.0,0.0,0.0,0.0,0.0,0.0,0.0,0.0,0.0,0.0,0.0,0.0,0.0,0.0,0.0,0.0,0.0,0.0,0.0,0.0,0.0,0.0,0.0,0.0,0.0,0.0,0.0,0.0,0.0,0.0,0.0,0.0,0.0,0.0,0.0,0.0,0.0,0.0,0.0,0.0,0.0,0.0,0.0,0.0,0.0,0.0,0.0,0.0,0.0,0.0,0.0,0.0,0.0,0.0,0.0,0.0,0.0,0.0,0.0,0.0,0.0,0.0,0.0,0.0,0.0,0.0,0.0,0.0,0.0,0.0,0.0,0.0,0.0,0.0,0.0,0.0,0.0,0.0,0.0,0.0,0.0,0.0,0.0,0.0,0.0,0.0,0.0,0.0,0.0,0.0,0.0,0.0,0.0,0.0,0.0,0.0,0.0,0.0,0.0,0.0,0.0,0.0,0.0,0.0,0.0,0.0,0.0,0.0,0.0,0.0,0.0,0.0,0.0,0.0,0.0,0.0,0.0,0.0,0.0,0.0,0.0,0.0,0.0,0.0,0.0,0.0,0.0,0.0,0.0,0.0,0.0,0.0,0.0,0.0,0.0,0.0,0.0,0.0,0.0,0.0,0.0,0.0,0.0,0.0,0.0,0.0,0.0,0.0,0.0,0.0,0.0,0.0,0.0,0.0,0.0,0.0,0.0,0.0,0.0,0.0,0.0,0.0,0.0,0.0,0.0,0.0,0.0,0.0,0.0,0.0,0.0,0.0,0.0,0.0,0.0,0.0,0.0,0.0,0.0,0.0,0.0,0.0,0.0,0.0,0.0,0.0,0.0,0.0,0.0,0.0,0.0,0.0,0.0,0.0,0.0,0.0,0.0,0.0,0.0,0.0,0.0,0.0,0.0,0.0,0.0,0.0,0.0,0.0,0.0,0.0,0.0,0.0,0.0,0.0,0.0,0.0,0.0,0.0,0.0,0.0,0.0,0.0,0.0,0.0,0.0,0.0,0.0,0.0,0.0,0.0,0.0,0.0,0.0,0.0,0.0,0.0,0.0,0.0,0.0,0.0,0.0,0.0,0.0,0.0,0.0,0.0,0.0,0.0,0.0,0.0,0.0,0.0,0.0,0.0,0.0,0.0,0.0,0.0,0.0,0.0,0.0,0.0,0.0,0.0,0.0,0.0,0.0,0.0,0.0,0.0,0.0,0.0,0.0,0.0,0.0,0.0,0.0,0.0,0.0,0.0,0.0,0.0,0.0,0.0,0.0,0.0,0.0,0.0,0.0,0.0,0.0,0.0,0.0,0.0,0.0,0.0,0.0,0.0,0.0,0.0,0.0,0.0,0.0,0.0,0.0,0.0,0.0,0.0,0.0,0.0,0.0,0.0,0.0,0.0,0.0,0.0,0.0,0.0,0.0,0.0,0.0,0.0,0.0,0.0,0.0,0.0,0.0,0.0,0.0,0.0,0.0,0.0,0.0,0.0,0.0,0.0,0.0,0.0,0.0,0.0,0.0,0.0,0.0,0.0,0.0,0.0,0.0,0.0,0.0,0.0,0.0,0.0,0.0,0.0,0.0,0.0,0.0,0.0,0.0,0.0,0.0,0.0,0.0,0.0,0.0,0.0,0.0,0.0,0.0,0.0,0.0,0.0,0.0,0.0,0.0,0.0,0.0,0.0,0.0,0.0,0.0,0.0,0.0,0.0,0.0,0.0,0.0,0.0,0.0,0.0,0.0,0.0,0.0,0.0,0.0,0.0,0.0,0.0,0.0,0.0,0.0,0.0,0.0,0.0,0.0,0.0,0.0,0.0,0.0,0.0,0.0,0.0,0.0,0.0,0.0,0.0,0.0,0.0,0.0,0.0,0.0,0.0,0.0,0.0,0.0,0.0,0.0,0.0,0.0,0.0,0.0,0.0,0.0,0.0,0.0,0.0,0.0,0.0,0.0,0.0,0.0,0.0,0.0,0.0,0.0,0.0,0.0,0.0,0.0,0.0,0.0,0.0,0.0,0.0,0.0,0.0,0.0,0.0,0.0,0.0,0.0,0.0,0.0,0.0,0.0,0.0,0.0,0.0,0.0,0.0,0.0,0.0,0.0,0.0,0.0,0.0,0.0,0.0,0.0,0.0,0.0,0.0,0.0,0.0,0.0,0.0,0.0,0.0,0.0,0.0,0.0,0.0,0.0,0.0,0.0,0.0,0.0,0.0,0.0,0.0,0.0,0.0,0.0,0.0,0.0,0.0,0.0,0.0,0.0,0.0,0.0,0.0,0.0,0.0,0.0,0.0,0.0,0.0,0.0,0.0,0.0,0.0,0.0,0.0,0.0,0.0,0.0,0.0,0.0,0.0,0.0,0.0,0.0,0.0,0.0,0.0,0.0,0.0,0.0,0.0,0.0,0.0,0.0,0.0,0.0,0.0,0.0,0.0,0.0,0.0,0.0,0.0,0.0,0.0,0.0,0.0,0.0,0.0,0.0,0.0,0.0,0.0,0.0,0.0,0.0,0.0,0.0,0.0,0.0,0.0,0.0,0.0,0.0,0.0,0.0,0.0,0.0,0.0,0.0,0.0,0.0,0.0,0.0,0.0,0.0,0.0,0.0,0.0,0.0,0.0,0.0,0.0,0.0,0.0,0.0,0.0,0.0,0.0,0.0,0.0,0.0,0.0,0.0,0.0,0.0,0.0,0.0,0.0,0.0,0.0,0.0,0.0,0.0,0.0,0.0,0.0,0.0,0.0,0.0,0.0,0.0,0.0,0.0,0.0,0.0,0.0,0.0,0.0,0.0,0.0,0.0,0.0,0.0,0.0,0.0,0.0,0.0,0.0,0.0,0.0,0.0,0.0,0.0,0.0,0.0,0.0,0.0,0.0,0.0,0.0,0.0,0.0,0.0,0.0,0.0,0.0,0.0,0.0,0.0,0.0,0.0,0.0,0.0,0.0,0.0,0.0,0.0,0.0,0.0,0.0,0.0,0.0,0.0,0.0,0.0,0.0,0.0,0.0,0.0,0.0,0.0,0.0,0.0,0.0,0.0,0.0,0.0,0.0,0.0,0.0,0.0,0.0,0.0,0.0,0.0,0.0,-0.2527,0.0,0.0,0.0,0.0,0.0,0.0,0.0,0.0,0.0,0.0,0.0,0.0,0.0,0.0,0.0,0.0,0.0,0.0,0.0,0.0,0.0,0.0,0.0,0.0,0.0,0.0,0.0,0.0,0.0,0.0,0.0,0.0,0.0,0.0,0.0,0.0,0.0,0.0,-1.7662,-1.7148,-1.6885,-1.6706,-1.6519,-1.6341,-1.617,0.0,0.0,0.0,0.0,0.0,0.0,0.0,0.0,0.0,0.0,0.0,0.0,0.0,0.0,0.0,0.0,0.0,0.0,0.0,0.0,0.0,0.0,0.0,0.0,0.0,0.0,0.0,0.0,0.0,0.0,0.0,0.0,0.0,0.0,0.0,0.0,0.0,0.0,0.0,0.0,0.0,0.0,0.0,0.0,0.0,0.0,0.0,0.0,0.0,0.0,0.0,0.0,0.0,0.0,0.0,0.0,0.0,0.0,0.0,0.0,0.0,0.0,0.0,0.0,0.0,0.0,0.0,0.0,0.0,0.0,0.0,-0.2514,0.0,0.0,0.0,0.0,0.0,0.0,0.0,0.0,0.0,0.0,0.0,0.0,0.0,0.0,0.0,0.0,0.0,0.0,0.0,0.0,0.0,0.0,0.0,0.0,-3.0817,-3.0817,-3.0817,-3.0817,0.0,0.0,0.0,0.0,0.0,0.0,0.0,-2.0404,-1.8855,-1.7112,-1.7112,-1.7039,-1.6806,-1.6747,-1.6576,-1.6397,-1.6332,0.0,0.0,0.0,0.0,0.0,0.0,0.0,0.0,0.0,0.0,0.0,0.0,0.0,0.0,0.0,0.0,0.0,0.0,0.0,0.0,0.0,0.0,0.0,0.0,0.0,0.0,0.0,0.0,0.0,0.0,0.0,0.0,0.0,0.0,0.0,0.0,0.0,0.0,0.0,0.0,0.0,0.0,0.0,0.0,0.0,0.0,0.0,0.0,0.0,0.0,0.0,0.0,0.0,0.0,0.0,0.0,0.0,0.0,0.0,0.0,0.0,0.0,0.0,-0.2605,-0.2592,-0.2638,-0.2613,-0.2601,-0.2598,-0.2551,-0.253,-0.2452,-0.1357,0.0,0.0,0.0,0.0,0.0,0.0,0.0,0.0,0.0,0.0,0.0,0.0,0.0,0.0,0.0,0.0,0.0,0.0,0.0,0.0,0.0,-3.1316,-3.0817,-3.0817,-3.0817,-3.0817,0.0,0.0,0.0,0.0,0.0,0.0,-2.1932,-1.9805,-1.8164,-1.7112,-1.7112,-1.7096,-1.708,-1.7047,-1.695,-1.6677,-1.6446,-1.6211,-1.5966,0.0,0.0,0.0,0.0,0.0,0.0,0.0,0.0,0.0,0.0,0.0,0.0,0.0,0.0,0.0,0.0,0.0,0.0,0.0,0.0,0.0,0.0,0.0,0.0,0.0,0.0,0.0,0.0,0.0,0.0,0.0,0.0,0.0,0.0,0.0,0.0,0.0,0.0,0.0,0.0,0.0,-0.2592,-0.2596,0.0,0.0,0.0,0.0,0.0,0.0,0.0,0.0,0.0,0.0,0.0,0.0,0.0,-0.269,-0.2687,-0.2656,-0.2645,-0.2653,-0.2615,-0.26,-0.2608,-0.2604,-0.2601,-0.2601,-0.2593,0.0,-0.259,-0.2432,0.0,0.0,0.0,0.0,0.0,0.0,0.0,0.0,0.0,0.0,0.0,0.0,0.0,0.0,0.0,0.0,0.0,0.0,0.0,0.0,0.0,-3.1067,-3.0817,-3.0817,-3.0817,-3.0817,-3.0817,-2.9384,0.0,0.0,0.0,-2.2395,-2.0828,-1.9292,-1.8077,-1.7112,-1.7112,-1.7112,-1.7112,-1.7112,-1.7015,-1.6758,-1.6576,-1.6357,-1.6186,-1.6089,0.0,0.0,0.0,0.0,0.0,0.0,0.0,0.0,0.0,0.0,0.0,0.0,0.0,0.0,0.0,0.0,0.0,0.0,0.0,0.0,0.0,0.0,0.0,0.0,0.0,0.0,0.0,0.0,0.0,0.0,0.0,0.0,0.0,0.0,0.0,0.0,0.0,0.0,0.0,-0.2608,-0.2627,-0.2627,-0.2654,-0.2672,0.0,0.0,0.0,0.0,0.0,0.0,0.0,0.0,0.0,-0.2692,-0.2692,-0.2692,-0.2692,-0.2662,-0.2656,-0.2672,-0.2642,-0.2637,-0.2653,-0.2653,-0.2653,-0.2653,-0.2653,-0.2237,-0.1491,-0.0658,-0.041,-0.0411,0.0,0.0,0.0,0.0,0.3596,0.3576,0.0,0.0,0.0,0.0,0.0,0.0,0.0,0.0,0.0,0.0,0.0,0.0,-3.09,-3.0817,-3.0817,-3.0817,-3.0817,-3.0817,-3.0817,-2.8628,0.0,0.0,-2.3256,-2.0858,-1.9553,-1.8593,-1.7814,-1.7112,-1.7112,-1.7112,-1.7112,-1.7112,-1.7039,-1.6909,-1.673,-1.6519,-1.6292,-1.6121,-1.5966,-1.5966,0.0,0.0,0.0,0.0,0.0,0.0,0.0,0.0,0.0,0.0,0.0,0.0,0.0,0.0,0.0,0.0,0.0,0.0,0.0,0.0,0.0,0.0,0.0,0.0,0.0,0.0,0.0,0.0,0.0,0.0,0.0,0.0,0.0,0.0,0.0,0.0,0.0,-0.2645,-0.2658,-0.2658,-0.2679,-0.2692,0.0,0.0,0.0,0.0,0.0,0.0,-0.2692,-0.2692,-0.2692,-0.2692,-0.2692,-0.2692,-0.2692,-0.2671,-0.2671,-0.2692,-0.2669,-0.2671,-0.2692,-0.2692,-0.2692,-0.2692,-0.2692,-0.1934,-0.0588,0.0417,0.0664,0.0748,0.3688,0.4433,0.3984,0.4984,0.5289,0.5248,0.0,0.0,0.0,0.0,0.0,0.0,0.0,0.0,0.0,0.0,0.0,-3.0817,-3.0817,-3.0817,-3.0817,-3.0817,-3.0817,-3.0817,-3.0817,-2.9467,-2.7772,-2.5543,-2.3137,-2.0828,-1.8602,-1.7639,-1.7112,-1.7112,-1.7112,-1.7112,-1.7112,-1.7112,-1.7104,-1.7088,-1.6917,-1.6641,-1.6292,-1.6121,-1.5966,-1.5966,-1.5546,0.0,0.0,0.0,0.0,0.0,0.0,0.0,0.0,0.0,0.0,0.0,0.0,0.0,0.0,0.0,0.0,0.0,0.0,0.0,0.0,0.0,0.0,0.0,0.0,0.0,0.0,0.0,0.0,0.0,0.0,0.0,0.0,0.0,0.0,0.0,0.0,0.0,0.0,-0.269,-0.2691,0.0,0.0,0.0,0.0,-0.2692,-0.2692,-0.2692,-0.2692,-0.2692,-0.2692,-0.2692,-0.2692,-0.2692,-0.2692,-0.2691,-0.2691,-0.2692,-0.2691,-0.2691,-0.2692,-0.2692,-0.2692,-0.2692,-0.2692,-0.1934,-0.0673,-0.0588,0.0924,0.3191,0.3446,0.4201,0.5295,0.5379,0.5379,0.5376,0.0,0.0,0.0,0.0,0.0,0.0,0.0,0.0,0.0,-3.0817,-3.0817,-3.0817,-3.0817,-3.0817,-3.0817,-3.0817,-3.0817,-3.0817,-3.0817,-2.8712,-2.6914,-2.5458,-2.2288,-1.9709,-1.7639,-1.7288,-1.7112,-1.7112,-1.7112,-1.7112,-1.7112,-1.7112,-1.7112,-1.7104,-1.6933,-1.6714,-1.647,-1.6292,-1.6146,-1.5966,-1.5883,-1.5546,0.0,0.0,0.0,0.0,0.0,0.0,0.0,0.0,0.0,0.0,0.0,0.0,0.0,0.0,0.0,0.0,0.0,0.0,0.0,0.0,0.0,0.0,0.0,0.0,0.0,0.0,0.0,0.0,0.0,0.0,0.0,0.0,0.0,0.0,0.0,0.0,0.0,-0.2692,-0.2692,0.0,-0.2692,-0.2692,-0.2692,-0.2692,-0.2692,-0.2692,-0.2692,-0.2692,-0.2692,-0.2692,-0.2692,-0.2692,-0.2692,-0.2692,-0.2692,-0.2692,-0.2692,-0.2692,-0.2692,-0.2692,-0.2692,-0.2692,-0.2692,-0.1934,-0.0673,-0.0673,0.0925,0.3446,0.4372,0.4962,0.5384,0.5384,0.5384,0.5384,0.0,0.0,0.0,0.0,0.0,0.0,0.0,0.0,0.0,-3.0817,-3.0817,-3.0817,-3.0817,-3.0817,-3.0817,-3.0817,-3.0401,-3.015,-3.015,-2.7604,-2.5556,-2.4252,-2.0828,-1.8331,-1.7112,-1.7112,-1.7112,-1.7112,-1.7112,-1.7112,-1.7112,-1.7112,-1.7112,-1.7104,-1.699,-1.6803,-1.6568,-1.6446,-1.6259,-1.5966,-1.5966,-1.5793,-1.5381,0.0,0.0,0.0,0.0,0.0,0.0,0.0,0.0,0.0,0.0,0.0,0.0,0.0,0.0,0.0,0.0,0.0,0.0,0.0,0.0,0.0,0.0,0.0,0.0,0.0,0.0,0.0,0.0,0.0,0.0,0.0,0.0,0.0,0.0,-0.2692,-0.2692,-0.2692,-0.2692,-0.2692,-0.2692,-0.2692,-0.2692,-0.2692,-0.2692,-0.2692,-0.2692,-0.2692,-0.2692,-0.2692,-0.2692,-0.2692,-0.2692,-0.2692,-0.2692,-0.2692,-0.2692,-0.2692,-0.2692,-0.2692,-0.2692,-0.2692,-0.2692,-0.1934,-0.0673,-0.0673,0.0925,0.3446,0.4372,0.4962,0.5384,0.5384,0.5384,0.5384,0.0,0.0,0.0,0.0,0.0,0.0,0.0,-3.0817,-3.0817,-3.0817,-3.0817,-3.0817,-3.0817,-3.0817,-3.0817,-3.0817,-2.9635,-2.8867,-2.8796,-2.6248,-2.3846,-2.1846,-1.875,-1.7112,-1.7112,-1.7112,-1.7112,-1.7112,-1.7112,-1.7112,-1.7112,-1.7112,-1.7112,-1.7112,-1.7112,-1.6909,-1.6584,-1.6584,-1.6373,-1.5966,-1.5966,-1.5801,-1.5381,0.0,0.0,0.0,0.0,0.0,0.0,0.0,0.0,0.0,0.0,0.0,0.0,0.0,0.0,0.0,0.0,0.0,0.0,0.0,0.0,0.0,0.0,0.0,0.0,0.0,0.0,0.0,0.0,0.0,0.0,0.0,0.0,0.0,-0.2692,-0.2692,-0.2692,-0.2692,-0.2692,-0.2692,-0.2692,-0.2692,-0.2692,-0.2692,-0.2692,-0.2692,-0.2692,-0.2692,-0.2692,-0.2692,-0.2692,-0.2692,-0.2692,-0.2692,-0.2692,-0.2692,-0.2692,-0.2692,-0.2692,-0.2692,-0.2692,-0.2692,-0.2692,-0.1934,-0.0757,-0.0757,0.0925,0.3362,0.3362,0.4204,0.5384,0.5384,0.5384,0.5384,0.0,0.0,0.0,0.0,0.0,0.0,0.0,-3.0817,-3.0817,-3.0817,-3.0817,-3.0817,-3.0817,-3.0817,-3.0817,-3.0817,-3.0484,-2.9802,-2.888,-2.6575,-2.3492,-1.9631,-1.7981,-1.7112,-1.7112,-1.7112,-1.7112,-1.7112,-1.7112,-1.7112,-1.7112,-1.7112,-1.7112,-1.7112,-1.7112,-1.6909,-1.6584,-1.6584,-1.6373,-1.5966,-1.5966,-1.5966,-1.5793,0.0,0.0,0.0,0.0,0.0,0.0,0.0,0.0,0.0,0.0,0.0,0.0,0.0,0.0,0.0,0.0,0.0,0.0,0.0,0.0,0.0,0.0,0.0,0.0,0.0,0.0,0.0,0.0,0.0,0.0,0.0,-0.2692,-0.2692,-0.2692,-0.2692,-0.2692,-0.2692,-0.2692,-0.2692,-0.2692,-0.2692,-0.2692,-0.2692,-0.2692,-0.2692,-0.2692,-0.2692,-0.2692,-0.2692,-0.2692,-0.2692,-0.2692,-0.2692,-0.2692,-0.2692,-0.2692,-0.2692,-0.2692,-0.2692,-0.2692,-0.2692,-0.2692,-0.2524,-0.2103,-0.1093,0.0336,0.2016,0.3026,0.4204,0.5384,0.5384,0.5384,0.5384,0.0,0.0,0.0,0.0,0.0,0.0,0.0,-3.0817,-3.0817,-3.0817,-3.0817,-3.0817,-3.0817,-3.0817,-3.0567,-2.9983,-2.9969,-2.9132,-2.7181,-2.4605,-2.1694,-1.8602,-1.7639,-1.7112,-1.7112,-1.7112,-1.7112,-1.7112,-1.7112,-1.7112,-1.7112,-1.7112,-1.7112,-1.7112,-1.7112,-1.6909,-1.6584,-1.6584,-1.6373,-1.5966,-1.5966,-1.5966,-1.5966,-1.5711,-1.5546,-1.5381,-1.5133,-1.4878,-1.4631,-1.439,0.0,0.0,0.0,0.0,0.0,0.0,0.0,0.0,0.0,0.0,0.0,0.0,0.0,0.0,0.0,0.0,0.0,0.0,0.0,0.0,0.0,0.0,0.0,0.0,-0.2692,-0.2692,-0.2692,-0.2692,-0.2692,-0.2692,-0.2692,-0.2692,-0.2692,-0.2692,-0.2692,-0.2692,-0.2692,-0.2692,-0.2692,-0.2692,-0.2692,-0.2692,-0.2692,-0.2692,-0.2692,-0.2692,-0.2692,-0.2692,-0.2692,-0.2692,-0.2692,-0.2692,-0.2692,0.0,-0.2692,-0.2692,-0.2608,-0.1262,0.0084,0.0,0.0,0.0,0.0,0.0,0.5384,0.5384,0.0,0.0,0.0,0.0,0.0,0.0,0.0,-3.0817,-3.0817,-3.0817,-3.0817,-3.0817,-3.0817,-3.0817,-3.0234,-2.8964,-2.8796,-2.7519,-2.4543,-2.1445,-1.9292,-1.8339,-1.7551,-1.7112,-1.7112,-1.7112,-1.7112,-1.7112,-1.7112,-1.7112,-1.7112,-1.7112,-1.7112,-1.7112,-1.7088,-1.6893,-1.6576,-1.656,-1.6357,-1.5966,-1.5966,-1.5966,-1.5966,-1.5966,-1.5801,-1.5463,-1.5463,-1.5216,-1.4878,-1.4796,0.0,0.0,0.0,0.0,0.0,0.0,0.0,0.0,0.0,0.0,0.0,0.0,0.0,0.0,0.0,0.0,0.0,0.0,0.0,0.0,0.0,0.0,0.0,0.0,-0.2692,-0.2692,-0.2692,-0.2692,-0.2692,-0.2692,-0.2692,-0.2692,-0.2692,-0.2692,-0.2692,-0.2692,-0.2692,-0.2692,-0.2692,0.0,0.0,0.0,0.0,-0.2692,-0.2692,-0.2692,-0.2692,-0.2692,-0.2692,-0.2692,-0.2692,-0.2692,-0.2692,-0.2692,-0.2692,-0.2692,-0.2608,-0.1093,0.042,0.1848,0.311,0.4372,0.5384,0.5384,0.5384,0.5384,0.0,0.0,0.0,0.0,0.0,0.0,0.0,-3.0817,-3.0817,-3.0817,-3.0817,-3.0817,-3.0817,-3.0817,-3.0234,-2.8964,-2.8796,-2.6986,-2.2708,-2.0144,-1.8339,-1.7375,-1.72,-1.7112,-1.7112,-1.7112,-1.7112,-1.7112,-1.7112,-1.7112,-1.7112,-1.7112,-1.7112,-1.7104,-1.6966,-1.6779,-1.6568,-1.6422,-1.6235,-1.5966,-1.5966,-1.5966,-1.5966,-1.5966,-1.5966,-1.5883,-1.5883,-1.5801,-1.5711,-1.5381,-1.5216,-1.5051,-1.4293,-1.3045,0.0,0.0,0.0,0.0,0.0,0.0,0.0,0.0,0.0,0.0,0.0,0.0,0.0,0.0,0.0,0.0,0.0,0.0,0.0,-0.2692,-0.2692,-0.2692,-0.2692,-0.2692,-0.2692,-0.2692,-0.2692,-0.2692,-0.2692,-0.2692,-0.2692,-0.2692,-0.2692,-0.2692,-0.2692,-0.2692,-0.2692,-0.2692,-0.2692,-0.2692,-0.2692,-0.2692,-0.2692,-0.2692,0.0,0.0,-0.2692,-0.2692,-0.2692,-0.2692,-0.2692,-0.2692,-0.2524,-0.0084,0.2352,0.4626,0.4878,0.5132,0.5384,0.5384,0.5384,0.5384,0.0,0.0,0.0,0.0,0.0,0.0,0.0,-3.0817,-3.0817,-3.0817,-3.0817,-3.0817,-3.0817,-3.0817,-3.0234,-2.8964,-2.7084,-2.4861,-2.2105,-1.9796,-1.8077,-1.7112,-1.7112,-1.7112,-1.7112,-1.7112,-1.7112,-1.7112,-1.7112,-1.7112,-1.7112,-1.7112,-1.7112,-1.7104,-1.6933,-1.6755,-1.6568,-1.6381,-1.6202,-1.5966,-1.5966,-1.5966,-1.5966,-1.5966,-1.5966,-1.5966,-1.5966,-1.5966,-1.5966,-1.5801,-1.5381,-1.5051,-1.4796,-1.3631,-1.2216,0.0,0.0,0.0,0.0,0.0,0.0,0.0,0.0,0.0,0.0,0.0,0.0,0.0,0.0,-0.2692,-0.2692,0.0,-0.2692,-0.2692,-0.2692,-0.2692,-0.2692,-0.2692,-0.2692,-0.2692,-0.2692,-0.2692,-0.2692,-0.2692,-0.2692,-0.2692,-0.2692,-0.2692,-0.2692,-0.2692,-0.2692,-0.2692,-0.2692,-0.2692,-0.2692,-0.2692,-0.2692,-0.2692,-0.2692,-0.2692,-0.2692,-0.2692,-0.2692,-0.2692,-0.2692,-0.2692,-0.2524,0.0168,0.252,0.4458,0.5132,0.5384,0.5384,0.5384,0.5384,0.5384,0.0,0.0,0.0,0.0,0.0,0.0,0.0,0.0,0.0,-3.0817,-3.0817,-3.0817,-3.0817,-3.0817,-3.0067,-2.8278,-2.4788,-2.2212,-2.1338,-1.937,-1.7902,-1.7112,-1.7112,-1.7112,-1.7112,-1.7112,-1.7112,-1.7112,-1.7112,-1.7112,-1.7112,-1.708,-1.7063,-1.7047,-1.6844,-1.6665,-1.6511,-1.6332,-1.617,-1.5966,-1.5966,-1.5966,-1.5966,-1.5966,-1.5966,-1.5966,-1.5966,-1.5966,-1.5966,-1.5966,-1.5546,-1.4961,-1.4961,-1.439,-1.3397,-1.189,-1.1137,0.0,0.0,0.0,0.0,0.0,0.0,0.0,0.0,-0.2692,-0.2692,-0.2692,-0.2692,-0.2692,-0.2692,-0.2692,-0.2692,-0.2692,-0.2692,-0.2692,-0.2692,-0.2692,-0.2692,-0.2692,-0.2692,-0.2692,-0.2692,-0.2692,-0.2692,-0.2692,-0.2692,-0.2692,-0.2692,-0.2692,-0.2692,-0.2692,-0.2692,-0.2692,-0.2692,-0.2692,-0.2692,-0.2692,-0.2692,-0.2692,-0.2692,-0.2692,-0.2692,-0.2692,-0.2692,-0.2524,-0.2104,0.0,0.1932,0.353,0.4626,0.5132,0.5384,0.5384,0.5384,0.5384,0.0,0.0,0.0,0.0,0.0,0.0,0.0,0.0,0.0,-3.0817,-3.0817,-3.0817,-3.0817,-3.0817,-2.9453,-2.6054,-2.2385,-1.9892,-1.8943,-1.7893,-1.72,-1.7112,-1.7112,-1.7112,-1.7112,-1.7112,-1.7112,-1.7112,-1.7112,-1.7112,-1.7104,-1.6958,-1.6798,-1.6782,-1.6519,-1.6357,-1.6324,-1.6146,-1.5982,-1.5966,-1.5966,-1.5966,-1.5966,-1.5966,-1.5966,-1.5966,-1.5966,-1.5966,-1.5966,-1.5966,-1.5966,-1.5875,-1.5875,-1.5298,-1.4548,-1.43,-1.2554,-1.0221,-0.8215,-0.5373,-0.3363,-0.4787,-0.3866,-0.2692,0.0,-0.2692,-0.2692,-0.2692,-0.2692,-0.2692,-0.2692,-0.2692,-0.2692,-0.2692,-0.2692,-0.2692,-0.2692,-0.2692,-0.2692,-0.2692,-0.2692,-0.2692,-0.2692,-0.2692,-0.2692,-0.2692,-0.2692,-0.2692,-0.2692,-0.2692,-0.2692,-0.2692,-0.2692,-0.2692,-0.2692,-0.2692,-0.2692,-0.2692,-0.2692,-0.2692,-0.2692,-0.2692,-0.2692,-0.2692,-0.2692,-0.2018,-0.0925,-0.0589,0.1093,0.3446,0.353,0.4372,0.5384,0.5384,0.5384,0.5384,0.0,0.0,0.0,0.0,0.0,0.0,0.0,0.0,0.0,0.0,0.0,-3.0817,-3.0817,-3.0053,-2.8531,-2.5629,-2.2718,-2.0318,-1.8602,-1.7639,-1.7112,-1.7112,-1.7112,-1.7112,-1.7112,-1.7112,-1.7112,-1.7112,-1.7112,-1.7055,-1.6958,-1.6798,-1.6795,-1.6682,-1.6422,-1.63,-1.6292,-1.6121,-1.5966,-1.5966,-1.5966,-1.5966,-1.5966,-1.5966,-1.5966,-1.5966,-1.5966,-1.5883,0.0,-1.5883,-1.5628,-1.5298,-1.5546,-1.5051,-1.4307,-1.4307,-1.339,-1.1896,-1.0055,-0.7714,-0.5709,-0.5454,-0.4868,-0.4034,-0.2943,-0.2692,-0.2692,-0.2692,-0.2692,-0.2692,-0.2692,-0.2692,-0.2692,-0.2692,-0.2692,-0.2692,-0.2692,-0.2692,-0.2692,-0.2692,-0.2692,-0.2692,-0.2692,-0.2692,-0.2692,-0.2692,-0.2692,-0.2692,-0.2692,-0.2692,-0.2692,-0.2692,-0.2692,-0.2692,-0.2692,-0.2692,-0.2692,-0.2692,-0.2692,-0.2692,-0.2692,-0.2692,-0.2692,-0.2692,-0.2692,-0.2356,-0.1766,-0.1009,0.0,0.1177,0.2774,0.3784,0.4372,0.5132,0.5384,0.5384,0.0,0.0,0.0,0.0,0.0,0.0,0.0,0.0,0.0,0.0,0.0,0.0,0.0,-2.9384,-2.7591,-2.5032,-2.2891,-2.0742,-1.8243,-1.7463,-1.7112,-1.7112,-1.7112,-1.7112,-1.7112,-1.7063,-1.7039,-1.7039,-1.699,-1.6901,-1.6779,-1.673,-1.6633,-1.6495,-1.6316,-1.6235,-1.6227,-1.6097,-1.5966,-1.5966,-1.5966,-1.5966,-1.5966,-1.5966,-1.5966,-1.5966,-1.5966,-1.5711,-1.5463,-1.5711,-1.5298,-1.4796,-1.5133,-1.4721,-1.4066,-1.4066,-1.3397,-1.2478,-1.1641,-0.9721,-0.7797,-0.7045,-0.6124,-0.5036,-0.3782,-0.3027,-0.2692,-0.2692,-0.2692,-0.2692,-0.2692,-0.2692,-0.2692,-0.2692,-0.2692,-0.2692,-0.2692,-0.2692,-0.2692,-0.2692,-0.2692,-0.2692,-0.2692,-0.2692,-0.2692,-0.2692,-0.2692,-0.2692,-0.2692,-0.2692,-0.2692,-0.2692,-0.2692,-0.2692,-0.2692,-0.2692,-0.2692,-0.2692,-0.2692,-0.2692,-0.2692,-0.2692,-0.2692,-0.2692,-0.2692,-0.2692,-0.2608,-0.1682,-0.1009,-0.0505,0.1513,0.2774,0.353,0.4458,0.5046,0.5384,0.0,0.0,0.0,0.0,0.0,0.0,0.0,0.0,0.0,0.0,0.0,0.0,0.0,0.0,-2.6842,-2.3652,-2.2126,-2.0144,-1.7375,-1.7112,-1.7112,-1.7112,-1.7112,-1.7112,-1.7112,-1.695,-1.6774,-1.6774,-1.6682,-1.6592,-1.6584,-1.6405,-1.6316,-1.63,-1.6129,-1.5974,-1.5974,-1.5966,-1.5966,-1.5966,-1.5966,-1.5966,-1.5966,-1.5966,-1.5966,-1.5966,-1.5966,-1.5711,-1.5381,-1.5381,-1.5133,-1.4713,-1.4713,-1.4473,-1.4066,-1.4066,-1.2561,-1.1142,-1.2899,-1.0721,-0.8382,-1.0138,-0.796,-0.5371,-0.5371,-0.395,-0.2692,-0.2692,-0.2692,-0.2692,-0.2692,-0.2692,-0.2692,-0.2692,-0.2692,-0.2692,-0.2692,-0.2692,-0.2692,-0.2692,-0.2692,-0.2692,0.0,-0.2692,-0.2692,-0.2692,-0.2692,-0.2692,-0.2692,-0.2692,-0.2692,-0.2692,-0.2692,-0.2692,-0.2692,-0.2692,-0.2692,-0.2692,-0.2692,-0.2692,-0.2692,-0.2692,-0.2692,-0.2692,-0.2692,-0.2692,-0.2692,-0.2692,-0.185,-0.0673,-0.0589,0.1093,0.3446,0.3446,0.4288,0.5384,0.0,0.0,0.0,0.0,0.0,0.0,0.0,0.0,0.0,0.0,0.0,0.0,0.0,0.0,0.0,0.0,-2.2288,-2.0057,-1.7279,-1.7112,-1.7112,-1.7112,-1.7112,-1.7055,-1.6942,-1.6798,-1.6795,-1.6674,-1.6609,-1.6519,-1.6397,-1.6332,-1.6243,-1.6129,-1.599,-1.5966,-1.5966,-1.5966,-1.5966,-1.5966,-1.5966,-1.5966,-1.5966,-1.5966,-1.5966,-1.5966,0.0,-1.5711,-1.5381,-1.5381,-1.5133,-1.4713,-1.4713,-1.439,-1.4066,-1.3735,-1.3065,-1.265,-1.3231,-1.2478,-1.1142,-0.9388,-0.8048,-0.6543,-0.4117,-0.3111,-0.2692,-0.2692,-0.2692,-0.2692,-0.2692,-0.2692,-0.2692,-0.2692,-0.2692,-0.2692,-0.2692,-0.2692,-0.2692,-0.2692,-0.2692,0.0,0.0,0.0,0.0,-0.2692,-0.2692,-0.2692,-0.2692,-0.2692,-0.2692,-0.2692,-0.2692,-0.2692,-0.2692,-0.2692,-0.2692,-0.2692,-0.2692,-0.2692,-0.2692,-0.2692,-0.2692,-0.2692,-0.2692,-0.2692,-0.2692,-0.2692,-0.244,-0.1934,-0.1009,-0.0168,0.0925,0.269,0.3698,0.4204,0.0,0.0,0.0,0.0,0.0,0.0,0.0,0.0,0.0,0.0,0.0,0.0,0.0,0.0,0.0,0.0,0.0,-2.0404,-1.7279,-1.7112,-1.708,-1.7023,-1.7015,-1.6933,-1.6755,-1.669,-1.66,-1.6479,-1.6422,-1.6324,-1.6211,-1.6211,-1.6154,-1.5966,-1.5966,-1.5966,-1.5966,-1.5966,-1.5966,-1.5966,-1.5966,-1.5966,-1.5966,-1.5966,-1.5966,0.0,-1.5966,-1.5801,-1.5546,-1.5216,-1.4886,-1.4473,-1.4307,-1.4059,-1.3818,-1.3486,-1.3403,-1.3403,-1.3403,-1.3403,-1.2816,-1.0471,-0.8971,-0.7383,-0.5122,-0.3616,-0.2692,-0.2692,-0.2692,-0.2692,-0.2692,-0.2692,-0.2692,-0.2692,-0.2692,-0.2692,-0.2692,-0.2692,-0.2692,-0.2692,-0.2692,-0.2692,0.0,0.0,0.0,-0.2692,-0.2692,-0.2692,-0.2692,-0.2692,-0.2692,-0.2692,-0.2692,-0.2692,-0.2692,-0.2692,-0.2692,-0.2692,-0.2692,-0.2692,-0.2692,-0.2692,-0.2692,-0.2692,-0.2692,-0.2692,-0.2692,-0.2692,-0.2692,-0.2608,-0.1766,-0.1093,-0.0505,0.1261,0.2522,0.3614,0.0,0.0,0.0,0.0,0.0,0.0,0.0,0.0,0.0,0.0,0.0,0.0,0.0,0.0,0.0,0.0,0.0,0.0,-1.7367,-1.7112,-1.7031,-1.6774,-1.6766,-1.6763,-1.6568,-1.6389,-1.63,-1.6292,-1.6121,-1.5966,-1.5966,-1.5966,-1.5966,-1.5966,-1.5966,-1.5966,-1.5966,-1.5966,-1.5966,-1.5966,-1.5966,-1.5966,-1.5966,-1.5966,-1.5966,-1.5966,-1.5966,-1.5966,-1.5883,-1.4961,-1.439,-1.3983,-1.3569,-1.3403,-1.3403,-1.3403,-1.3403,-1.3403,-1.3403,-1.3403,-1.3403,-1.3314,-1.0637,-0.8052,-0.7885,-0.529,-0.2777,-0.2692,-0.2692,-0.2692,-0.2692,-0.2692,-0.2692,-0.2692,-0.2692,-0.2692,-0.2692,-0.2692,-0.2692,-0.2692,-0.2692,-0.2692,-0.2692,-0.2692,0.0,-0.2692,0.0,-0.2692,-0.2692,-0.2692,-0.2692,-0.2692,-0.2692,-0.2692,-0.2692,-0.2692,-0.2692,-0.2692,-0.2692,-0.2692,-0.2692,-0.2692,-0.2692,-0.2692,-0.2692,-0.2692,-0.2692,-0.2692,-0.2692,-0.2692,-0.2692,-0.1934,-0.0757,-0.0757,0.0925,0.3362,0.0,0.0,0.0,0.0,0.0,0.0,0.0,0.0,0.0,0.0,0.0,0.0,0.0,0.0,0.0,0.0,0.0,0.0,-1.7288,-1.7112,0.0,0.0,0.0,0.0,0.0,-1.6324,-1.6243,-1.6113,-1.6064,-1.5966,-1.5966,-1.5966,-1.5966,-1.5966,-1.5966,-1.5966,-1.5966,-1.5966,-1.5966,-1.5966,-1.5966,-1.5966,-1.5966,-1.5966,-1.5966,-1.5966,-1.5966,-1.5966,-1.5883,-1.4961,-1.4225,-1.3652,-1.3818,-1.3652,-1.3403,-1.3403,-1.3403,-1.3403,-1.3403,-1.3403,-1.3065,-1.1724,-1.0721,-0.93,-0.6627,-0.5371,-0.4367,-0.2943,-0.2692,-0.2692,-0.2692,-0.2692,-0.2692,-0.2692,-0.2692,-0.2692,-0.2692,-0.2692,-0.2692,-0.2692,-0.2692,-0.2692,-0.2692,-0.2692,0.0,0.0,-0.2692,-0.2692,-0.2692,-0.2692,-0.2692,-0.2692,-0.2692,-0.2692,-0.2692,-0.2692,-0.2692,-0.2692,-0.2692,-0.2692,-0.2692,-0.2692,-0.2692,-0.2692,-0.2692,-0.2692,-0.2692,-0.2692,-0.2692,-0.2692,-0.2692,-0.2524,-0.2103,-0.1093,-0.0252,0.0673,0.0,0.0,0.0,0.0,0.0,0.0,0.0,0.0,0.0,0.0,0.0,0.0,0.0,0.0,0.0,0.0,0.0,0.0,0.0,-1.7039,0.0,0.0,0.0,0.0,0.0,0.0,-1.6146,-1.5966,-1.5966,-1.5966,-1.5966,-1.5966,-1.5966,-1.5966,-1.5966,-1.5966,-1.5966,-1.5966,-1.5966,0.0,0.0,-1.5966,-1.5966,-1.5966,-1.5966,-1.5966,-1.5966,-1.5883,-1.5628,-1.5133,-1.439,-1.3735,-1.3983,-1.3818,-1.3403,-1.3403,-1.3403,-1.3403,-1.3403,-1.3403,-1.3148,-1.2146,-1.1309,-1.0221,-0.8215,-0.654,-0.5119,-0.4117,-0.3279,-0.2692,-0.2692,-0.2692,-0.2692,-0.2692,-0.2692,-0.2692,-0.2692,-0.2692,-0.2692,-0.2692,-0.2692,-0.2692,-0.2692,-0.2692,-0.2692,0.0,-0.2692,-0.2692,-0.2692,-0.2692,-0.2692,-0.2692,-0.2692,-0.2692,-0.2692,-0.2692,-0.2692,-0.2692,-0.2692,-0.2692,-0.2692,-0.2692,-0.2692,-0.2692,0.0,-0.2692,-0.2692,-0.2692,-0.2692,-0.2692,-0.2692,-0.2692,-0.2608,-0.185,-0.1178,-0.0505,0.0,0.0,0.0,0.0,0.0,0.0,0.0,0.0,0.0,0.0,0.0,0.0,0.0,0.0,0.0,0.0,0.0,0.0,0.0,0.0,0.0,0.0,0.0,0.0,-1.5966,-1.5966,-1.5966,-1.5966,-1.5966,-1.5966,-1.5966,-1.5966,-1.5966,-1.5966,-1.5966,-1.5966,-1.5966,-1.5966,-1.5966,-1.5966,-1.5966,-1.5966,-1.5966,0.0,0.0,-1.5966,-1.5966,-1.5801,-1.5463,-1.5381,-1.4803,-1.4066,-1.4066,-1.3818,-1.3403,-1.3403,-1.3403,-1.3403,-1.3403,-1.3403,-1.3403,-1.3403,-1.2229,-1.0976,-1.0721,-0.8131,-0.5706,-0.5454,-0.395,-0.2692,-0.2692,-0.2692,-0.2692,-0.2692,-0.2692,-0.2692,-0.2692,-0.2692,-0.2692,-0.2692,-0.2692,-0.2692,-0.2692,-0.2692,-0.2692,-0.2692,-0.2692,-0.2692,-0.2692,-0.2692,-0.2692,-0.2692,-0.2692,-0.2692,-0.2692,-0.2692,-0.2692,-0.2692,-0.2692,-0.2692,-0.2692,-0.2692,-0.2692,-0.2692,0.0,0.0,-0.2692,-0.2692,-0.2692,-0.2692,-0.2692,-0.2692,-0.2692,-0.2692,-0.1934,-0.0925,0.0,0.0,0.0,0.0,0.0,0.0,0.0,0.0,0.0,0.0,-2.5129,-2.4594,0.0,0.0,0.0,0.0,0.0,0.0,0.0,0.0,0.0,0.0,0.0,0.0,-1.5966,-1.5966,-1.5966,-1.5966,-1.5966,-1.5966,-1.5966,-1.5966,-1.5966,-1.5966,-1.5966,-1.5966,-1.5966,-1.5966,-1.5966,-1.5966,-1.5966,-1.5966,-1.5966,0.0,0.0,0.0,-1.5966,-1.5966,-1.5883,-1.5546,-1.4803,-1.4066,-1.4066,-1.3818,-1.3403,-1.3403,-1.3403,-1.3403,-1.3403,-1.3403,-1.3403,-1.3403,-1.3148,-1.2561,-1.1059,-0.9049,-0.7129,-0.5706,-0.395,-0.2692,-0.2692,-0.2692,-0.2692,-0.2692,-0.2692,-0.2692,-0.2692,-0.2692,-0.2692,-0.2692,-0.2692,-0.2692,-0.2692,-0.2692,0.0,0.0,0.0,-0.2692,-0.2692,-0.2692,-0.2692,-0.2692,-0.2692,-0.2692,-0.2692,-0.2692,-0.2692,-0.2692,-0.2692,-0.2692,-0.2692,-0.2692,-0.2692,-0.2692,-0.2692,0.0,-0.2692,-0.2692,-0.2692,-0.2692,-0.2692,-0.2692,-0.2692,-0.2692,-0.2524,-0.2188,0.0,0.0,0.0,0.0,0.0,0.0,0.0,-2.5312,-2.4189,-2.1791,-2.1694,-2.1175,-1.9622,-1.9012,-1.8322,0.0,0.0,0.0,0.0,0.0,0.0,0.0,0.0,0.0,0.0,-1.5966,-1.5966,-1.5966,0.0,-1.5966,-1.5966,-1.5966,-1.5966,-1.5966,-1.5966,-1.5966,-1.5966,-1.5966,-1.5966,-1.5966,-1.5966,-1.5966,0.0,0.0,0.0,0.0,0.0,-1.5966,-1.5966,-1.5546,-1.4968,-1.439,-1.4149,-1.3818,-1.3403,-1.3403,-1.3403,-1.3403,-1.3403,-1.3403,-1.3403,-1.3403,-1.3403,-1.3148,-1.2312,-0.9971,-0.7801,-0.6961,-0.4619,-0.2692,-0.2692,-0.2692,-0.2692,-0.2692,-0.2692,-0.2692,-0.2692,-0.2692,-0.2692,-0.2692,-0.2692,-0.2692,-0.2692,-0.2692,-0.2692,-0.2692,0.0,-0.2692,-0.2692,-0.2692,-0.2692,-0.2692,-0.2692,-0.2692,-0.2692,-0.2692,-0.2692,-0.2692,-0.2692,-0.2692,-0.2692,-0.2692,-0.2692,-0.2692,-0.2692,0.0,-0.2692,-0.2692,-0.2692,-0.2692,-0.2692,-0.2692,-0.2692,-0.2692,-0.2692,-0.2608,0.0,0.0,0.0,0.0,0.0,0.0,0.0,-2.3428,-2.2136,-2.0153,-1.9117,-1.8427,-1.8252,-1.7551,-1.7112,0.0,0.0,0.0,0.0,0.0,0.0,0.0,0.0,0.0,0.0,0.0,0.0,-1.5966,-1.5966,0.0,0.0,0.0,0.0,0.0,-1.5966,-1.5966,-1.5966,-1.5966,-1.5966,0.0,0.0,-1.5966,0.0,0.0,0.0,0.0,0.0,-1.5966,-1.5966,-1.5546,-1.5133,-1.4796,-1.4232,-1.3818,-1.3403,-1.3403,-1.3403,-1.3403,-1.3403,-1.3403,-1.3403,-1.3403,-1.3403,-1.3403,-1.3403,-1.0893,-0.847,-0.8052,-0.5457,-0.3195,-0.2777,-0.2692,-0.2692,-0.2692,-0.2692,-0.2692,-0.2692,-0.2692,-0.2692,-0.2692,-0.2692,-0.2692,-0.2692,-0.2692,0.0,-0.2692,0.0,0.0,-0.2692,-0.2692,-0.2692,-0.2692,-0.2692,-0.2692,-0.2692,-0.2692,-0.2692,-0.2692,-0.2692,-0.2692,-0.2692,-0.2692,-0.2692,-0.2692,-0.2692,0.0,0.0,-0.2692,-0.2692,-0.2692,-0.2692,-0.2692,-0.2692,-0.2692,-0.2692,-0.2692,0.0,0.0,0.0,0.0,0.0,0.0,0.0,-2.2071,-2.1118,-2.0076,-1.9117,-1.8164,-1.7288,-1.7112,-1.7112,0.0,0.0,0.0,0.0,0.0,0.0,0.0,0.0,0.0,0.0,0.0,0.0,-1.5966,-1.5966,0.0,0.0,0.0,0.0,0.0,0.0,-1.5966,-1.5966,-1.5966,0.0,0.0,0.0,0.0,0.0,0.0,0.0,0.0,0.0,-1.5966,-1.5966,-1.5546,-1.5381,-1.5216,-1.4397,-1.3818,-1.3403,-1.3403,-1.3403,-1.3403,-1.3403,-1.3403,-1.3403,-1.3403,-1.3403,-1.3403,-1.3403,-1.189,-0.9971,-0.8303,-0.6459,-0.4619,-0.3027,-0.2692,-0.2692,-0.2692,-0.2692,-0.2692,-0.2692,-0.2692,-0.2692,-0.2692,-0.2692,0.0,-0.2692,-0.2692,-0.2692,-0.2692,0.0,0.0,-0.2692,-0.2692,-0.2692,-0.2692,-0.2692,-0.2692,-0.2692,-0.2692,-0.2692,-0.2692,-0.2692,-0.2692,-0.2692,-0.2692,-0.2692,-0.2692,-0.2692,0.0,0.0,-0.2692,-0.2692,-0.2692,-0.2692,-0.2692,-0.2692,-0.2692,-0.2692,-0.2692,0.0,0.0,0.0,0.0,0.0,0.0,-2.2934,-2.1379,-2.0337,-1.9989,-1.8593,-1.7551,-1.7112,-1.7112,-1.7112,-1.7112,0.0,0.0,0.0,0.0,0.0,0.0,0.0,0.0,0.0,0.0,-1.5966,-1.5966,-1.5966,0.0,0.0,0.0,0.0,0.0,0.0,-1.5966,-1.5966,-1.5966,0.0,0.0,0.0,0.0,0.0,0.0,0.0,0.0,0.0,0.0,-1.5966,-1.5801,-1.5628,-1.5298,-1.4638,-1.4142,-1.3735,-1.3486,-1.3403,-1.3403,-1.3403,-1.3403,-1.3403,-1.3403,-1.3403,-1.3403,-1.3403,-1.1979,-1.0221,-0.8386,-0.6627,-0.487,-0.3027,-0.2692,-0.2692,-0.2692,-0.2692,-0.2692,-0.2692,-0.2692,-0.2692,-0.2692,-0.2692,-0.2692,0.0,0.0,-0.2692,0.0,0.0,0.0,-0.2692,-0.2692,-0.2692,-0.2692,-0.2692,-0.2692,-0.2692,-0.2692,-0.2692,-0.2692,-0.2692,-0.2692,-0.2692,-0.2692,-0.2692,-0.2692,-0.2692,0.0,0.0,-0.2692,-0.2692,-0.2692,-0.2692,-0.2692,-0.2692,-0.2692,-0.2692,-0.2692,0.0,0.0,0.0,0.0,0.0,-2.3783,-2.2848,-2.1118,-1.9892,-1.9892,-1.8243,-1.7112,-1.7112,-1.7112,-1.7112,-1.7112,-1.7112,0.0,0.0,0.0,0.0,0.0,0.0,0.0,0.0,0.0,-1.5966,-1.5966,-1.5966,-1.5966,0.0,0.0,-1.5966,-1.5966,0.0,0.0,0.0,0.0,0.0,0.0,0.0,0.0,0.0,0.0,0.0,0.0,0.0,0.0,0.0,0.0,0.0,-1.5463,-1.4878,-1.4473,-1.4149,-1.3569,-1.3403,-1.3403,-1.3403,-1.3403,-1.3403,-1.3403,-1.3403,-1.3403,-1.3403,-1.2395,-1.0976,-0.9137,-0.7379,-0.5622,-0.3866,-0.3027,-0.2692,-0.2692,-0.2692,-0.2692,-0.2692,-0.2692,-0.2692,-0.2692,0.0,-0.2692,0.0,-0.2692,-0.2692,0.0,0.0,0.0,-0.2692,-0.2692,-0.2692,-0.2692,-0.2692,-0.2692,-0.2692,-0.2692,-0.2692,-0.2692,-0.2692,-0.2692,-0.2692,-0.2692,-0.2692,-0.2692,0.0,0.0,0.0,-0.2692,-0.2692,-0.2692,-0.2692,-0.2692,-0.2692,-0.2692,-0.2692,-0.2692,0.0,0.0,0.0,0.0,0.0,0.0,-2.2686,-2.1118,-1.9892,-1.9892,-1.8243,-1.7112,-1.7112,-1.7112,-1.7112,-1.7112,-1.7112,0.0,0.0,0.0,0.0,0.0,0.0,0.0,0.0,0.0,-1.5966,-1.5966,-1.5966,-1.5966,-1.5966,-1.5966,-1.5966,-1.5966,0.0,0.0,0.0,0.0,0.0,0.0,0.0,0.0,0.0,0.0,0.0,0.0,0.0,0.0,0.0,0.0,0.0,0.0,0.0,-1.4713,-1.4548,-1.3645,-1.3403,-1.3403,-1.3403,-1.3403,-1.3403,-1.3403,-1.3403,-1.3403,-1.3403,-1.3403,-1.2899,-1.1059,-0.9221,-0.7463,-0.5706,-0.395,-0.2692,-0.2692,-0.2692,0.0,-0.2692,-0.2692,-0.2692,0.0,0.0,-0.2692,-0.2692,-0.2692,0.0,0.0,0.0,0.0,-0.2692,-0.2692,-0.2692,-0.2692,-0.2692,-0.2692,-0.2692,-0.2692,-0.2692,-0.2692,-0.2692,-0.2692,-0.2692,-0.2692,-0.2692,0.0,0.0,0.0,0.0,-0.2692,-0.2692,-0.2692,-0.2692,-0.2692,-0.2692,-0.2692,-0.2692,-0.2692,0.0,0.0,0.0,0.0,0.0,0.0,0.0,-2.1118,-1.9892,-1.9892,-1.8243,-1.7112,-1.7112,-1.7112,-1.7112,-1.7112,-1.7112,0.0,0.0,0.0,0.0,0.0,0.0,0.0,0.0,-1.5966,-1.5966,-1.5966,-1.5966,-1.5966,-1.5966,-1.5966,-1.5966,-1.5966,-1.5966,-1.5966,0.0,0.0,0.0,0.0,0.0,0.0,0.0,0.0,0.0,0.0,0.0,0.0,0.0,0.0,0.0,0.0,0.0,0.0,0.0,-1.3645,-1.3403,-1.3403,-1.3403,-1.3403,-1.3403,-1.3403,-1.3403,-1.3403,-1.3403,-1.3403,-1.2899,-1.1059,-1.0221,-0.8966,-0.5957,-0.4952,-0.4117,-0.2861,-0.2692,0.0,0.0,0.0,0.0,-0.2692,-0.2692,-0.2692,0.0,0.0,0.0,0.0,0.0,0.0,-0.2692,-0.2692,-0.2692,-0.2692,-0.2692,-0.2692,-0.2692,-0.2692,-0.2692,-0.2692,-0.2692,-0.2692,-0.2692,-0.2692,0.0,0.0,0.0,0.0,0.0,-0.2692,-0.2692,-0.2692,-0.2692,-0.2692,-0.2692,-0.2692,-0.2692,-0.2692,0.0,0.0,0.0,0.0,0.0,0.0,0.0,-2.1118,-1.9892,-1.9892,-1.8243,-1.7112,-1.7112,-1.7112,-1.7112,-1.7112,-1.7047,0.0,0.0,0.0,0.0,0.0,0.0,0.0,-1.5966,-1.5966,-1.5966,-1.5966,-1.5966,-1.5966,-1.5966,-1.5966,-1.5966,-1.5966,-1.5966,-1.5966,0.0,0.0,0.0,0.0,0.0,0.0,-1.5966,0.0,0.0,0.0,0.0,0.0,0.0,0.0,0.0,0.0,0.0,0.0,0.0,0.0,-1.3566,-1.3553,-1.3498,-1.3444,-1.3417,-1.3471,-1.3444,-1.3403,-1.3403,-1.3403,-1.3065,-1.1979,-1.1142,-0.9805,-0.6878,-0.5873,-0.4787,-0.3027,-0.2692,-0.2692,0.0,0.0,0.0,-0.2692,0.0,0.0,0.0,0.0,0.0,0.0,0.0,0.0,-0.2692,-0.2692,-0.2692,-0.2692,-0.2692,-0.2692,-0.2692,-0.2692,-0.2692,-0.2692,-0.2692,-0.2692,-0.2692,-0.2692,0.0,0.0,0.0,0.0,0.0,-0.2692,-0.2692,-0.2692,-0.2692,-0.2692,-0.2692,-0.2692,-0.2692,-0.2692,0.0,0.0,0.0,0.0,0.0,0.0,0.0,-2.1032,-1.9902,-1.9815,-1.8243,-1.7112,-1.7112,-1.7112,-1.7112,-1.7112,0.0,0.0,0.0,0.0,0.0,0.0,0.0,0.0,-1.5966,-1.5966,-1.5966,-1.5966,-1.5966,-1.5966,-1.5966,-1.5966,-1.5966,-1.5966,-1.5966,-1.5966,0.0,0.0,0.0,0.0,-1.5966,-1.5966,0.0,0.0,0.0,0.0,0.0,0.0,0.0,0.0,0.0,0.0,0.0,0.0,0.0,0.0,0.0,0.0,0.0,-1.3539,-1.3451,-1.3593,-1.3512,-1.3403,-1.3403,-1.3403,0.0,-1.3403,-1.2063,-1.0304,-0.8386,-0.671,-0.4952,-0.3029,-0.2692,0.0,0.0,-0.2692,0.0,0.0,-0.2692,0.0,-0.2692,0.0,0.0,0.0,0.0,0.0,0.0,-0.2692,-0.2692,-0.2692,-0.2692,-0.2692,-0.2692,-0.2692,-0.2692,-0.2692,-0.2692,-0.2692,-0.2692,-0.2692,0.0,0.0,0.0,0.0,0.0,-0.2692,-0.2692,-0.2692,-0.2692,-0.2692,-0.2692,-0.2692,-0.2692,-0.2692,0.0,0.0,0.0,0.0,0.0,0.0,0.0,0.0,0.0,0.0,-1.7814,-1.7112,-1.7112,-1.7112,-1.7112,0.0,0.0,0.0,0.0,0.0,0.0,0.0,0.0,0.0,-1.5966,-1.5966,-1.5966,-1.5966,-1.5966,-1.5966,-1.5966,-1.5966,-1.5966,-1.5966,-1.5966,-1.5966,0.0,0.0,0.0,0.0,-1.5966,-1.5966,0.0,0.0,0.0,0.0,-1.6194,-1.6243,0.0,0.0,0.0,0.0,0.0,0.0,0.0,0.0,-1.3838,-1.3858,-1.3946,0.0,-1.3587,-1.362,-1.3512,-1.3403,0.0,-1.3403,-1.3403,-1.3403,-1.3065,-1.1807,-0.8549,-0.7634,-0.6379,-0.3195,-0.2692,-0.2692,-0.2692,-0.2692,0.0,-0.2692,-0.2692,-0.2692,0.0,0.0,0.0,0.0,0.0,-0.2692,0.0,-0.2692,-0.2692,-0.2692,-0.2692,-0.2692,-0.2692,-0.2692,-0.2692,-0.2692,-0.2692,-0.2692,-0.2692,-0.2692,0.0,0.0,0.0,0.0,-0.2692,-0.2692,-0.2692,-0.2692,-0.2692,-0.2692,-0.2692,-0.2692,-0.2692,-0.2692,0.0,0.0,0.0,0.0,0.0,0.0,0.0,0.0,0.0,0.0,0.0,0.0,0.0,0.0,0.0,0.0,0.0,0.0,0.0,0.0,0.0,0.0,0.0,-1.5966,-1.5966,-1.5966,-1.5966,-1.5966,-1.5966,-1.5966,-1.5966,-1.5966,-1.5966,-1.5966,-1.5966,-1.5966,-1.5966,-1.5966,-1.5966,-1.5966,-1.5966,0.0,0.0,0.0,0.0,0.0,-1.6267,-1.6357,0.0,-1.6641,-1.6449,-1.5941,0.0,0.0,0.0,0.0,-1.4048,-1.4068,-1.4156,-1.3905,-1.3648,-1.3709,-1.3559,-1.3403,-1.3403,-1.3403,-1.3403,-1.3403,-1.3403,-1.2561,-0.9721,-0.8553,-0.7129,-0.4367,-0.3279,0.0,0.0,0.0,-0.2692,-0.2692,-0.2692,0.0,0.0,0.0,0.0,0.0,0.0,0.0,0.0,-0.2692,-0.2692,-0.2692,-0.2692,-0.2692,-0.2692,-0.2692,-0.2692,-0.2692,-0.2692,-0.2692,-0.2692,-0.2692,-0.2692,0.0,0.0,0.0,-0.2692,-0.2692,-0.2692,-0.2692,-0.2692,-0.2692,-0.2692,-0.2692,-0.2692,-0.2692,0.0,0.0,0.0,0.0,0.0,0.0,0.0,0.0,0.0,0.0,0.0,0.0,0.0,0.0,0.0,0.0,0.0,0.0,0.0,0.0,0.0,0.0,-1.5966,-1.5966,-1.5966,-1.5966,-1.5966,-1.5966,-1.5966,-1.5966,-1.5966,-1.5966,-1.5966,-1.5966,-1.5966,-1.5966,-1.5966,-1.5966,-1.5966,-1.5966,-1.5966,0.0,0.0,0.0,0.0,0.0,0.0,0.0,0.0,-1.6828,-1.6278,-1.5598,-1.566,0.0,0.0,0.0,0.0,0.0,-1.4299,-1.3987,-1.3688,-1.381,-1.3634,-1.3431,-1.3403,-1.3403,-1.3403,-1.3403,-1.3403,-1.2816,-1.1059,-0.9471,-0.7714,-0.5706,-0.3866,0.0,-0.2692,-0.2692,-0.2692,-0.2692,-0.2692,0.0,0.0,0.0,0.0,0.0,0.0,0.0,0.0,-0.2692,-0.2692,-0.2692,-0.2692,-0.2692,-0.2692,-0.2692,-0.2692,-0.2692,-0.2692,-0.2692,-0.2692,-0.2692,-0.2692,0.0,0.0,0.0,-0.2692,-0.2692,-0.2692,-0.2692,-0.2692,-0.2692,-0.2692,-0.2692,-0.2692,-0.2692,0.0,0.0,0.0,0.0,0.0,0.0,0.0,0.0,0.0,0.0,0.0,0.0,0.0,0.0,0.0,0.0,0.0,0.0,0.0,0.0,0.0,-1.5966,-1.5966,-1.5966,-1.5966,-1.5966,-1.5966,-1.5966,-1.5966,-1.5966,-1.5966,-1.5966,-1.5966,-1.5966,-1.5966,-1.5966,-1.5966,-1.5966,-1.5966,-1.5966,-1.5966,0.0,0.0,0.0,0.0,0.0,0.0,0.0,0.0,-1.7015,-1.6713,-1.6187,-1.5785,0.0,0.0,0.0,0.0,0.0,-1.4299,-1.4061,-1.3732,-1.3752,-1.3715,-1.3559,-1.3431,-1.3403,-1.3403,-1.3403,-1.3403,-1.2816,-1.1059,-1.0471,-0.9216,-0.5957,-0.3866,-0.2692,0.0,0.0,-0.2692,-0.2692,0.0,0.0,0.0,0.0,0.0,0.0,0.0,0.0,0.0,-0.2692,-0.2692,-0.2692,-0.2692,-0.2692,-0.2692,-0.2692,-0.2692,-0.2692,-0.2692,-0.2692,-0.2692,-0.2692,-0.2692,0.0,0.0,-0.2692,-0.2692,-0.2692,-0.2692,-0.2692,-0.2692,-0.2692,-0.2692,-0.2692,-0.2692,-0.2692,0.0,0.0,0.0,0.0,0.0,0.0,0.0,0.0,0.0,0.0,0.0,0.0,0.0,0.0,0.0,0.0,0.0,0.0,0.0,0.0,-1.6146,-1.5966,-1.5966,-1.5966,-1.5966,-1.5966,-1.5966,-1.5966,-1.5966,-1.5966,-1.5966,-1.5966,-1.5966,-1.5966,-1.5966,-1.5966,-1.5966,-1.5966,-1.5966,-1.5966,0.0,0.0,0.0,0.0,0.0,0.0,0.0,0.0,0.0,0.0,-1.6585,-1.5969,-1.5793,0.0,0.0,0.0,0.0,0.0,-1.4299,-1.4136,-1.3946,-1.3865,-1.3675,-1.3485,-1.3417,-1.3403,-1.3403,-1.3403,-1.3403,-1.2816,-1.1059,-0.9888,-0.8048,-0.4535,0.0,-0.2692,-0.2692,-0.2692,-0.2692,0.0,0.0,0.0,0.0,0.0,0.0,0.0,0.0,0.0,0.0,0.0,-0.2692,-0.2692,-0.2692,-0.2692,-0.2692,-0.2692,-0.2692,-0.2692,-0.2692,-0.2692,-0.2692,-0.2692,-0.2692,-0.2692,0.0,-0.2692,-0.2692,-0.2692,-0.2692,-0.2692,-0.2692,-0.2692,-0.2692,-0.2692,-0.2692,-0.2692,0.0,0.0,0.0,0.0,0.0,0.0,0.0,0.0,0.0,0.0,0.0,0.0,0.0,0.0,0.0,0.0,0.0,0.0,0.0,-1.6405,-1.6227,-1.5974,-1.5966,-1.5966,-1.5966,-1.5966,-1.5966,-1.5966,-1.5966,-1.5966,-1.5966,-1.5966,-1.5966,-1.5966,-1.5966,-1.5966,-1.5966,-1.5966,-1.5966,-1.5966,0.0,0.0,0.0,0.0,0.0,0.0,0.0,0.0,0.0,0.0,0.0,0.0,0.0,0.0,0.0,-1.4299,-1.4299,-1.4299,-1.4299,-1.4163,-1.3987,-1.3871,-1.3648,-1.3444,-1.341,-1.3403,-1.3403,-1.3403,-1.3403,-1.2982,-1.1558,-0.9471,-0.6961,-0.3866,-0.2943,-0.2692,-0.2692,-0.2692,-0.2692,0.0,0.0,0.0,0.0,0.0,0.0,0.0,0.0,0.0,0.0,0.0,-0.2692,-0.2692,-0.2692,-0.2692,-0.2692,-0.2692,-0.2692,-0.2692,-0.2692,-0.2692,-0.2692,-0.2692,-0.2692,-0.2692,-0.2692,-0.2692,-0.2692,-0.2692,-0.2692,-0.2692,-0.2692,-0.2692,-0.2692,-0.2692,-0.2692,-0.2692,0.0,0.0,0.0,0.0,0.0,0.0,0.0,0.0,0.0,0.0,0.0,0.0,0.0,0.0,0.0,0.0,0.0,0.0,0.0,-1.6405,-1.6227,-1.5974,-1.5966,-1.5966,-1.5966,-1.5966,-1.5966,-1.5966,-1.5966,-1.5966,-1.5966,-1.5966,-1.5966,-1.5966,-1.5966,-1.5966,-1.5966,-1.5966,-1.5966,-1.6064,-1.6219,0.0,0.0,0.0,0.0,0.0,0.0,0.0,0.0,0.0,0.0,0.0,0.0,0.0,-1.4299,-1.4299,-1.4299,-1.4299,-1.4299,-1.4082,-1.3858,-1.3759,-1.3729,-1.3573,-1.3431,-1.3403,-1.3403,-1.3403,-1.3403,-1.3397,-1.3231,-1.0388,-0.7379,-0.5538,-0.3782,-0.2692,-0.2692,0.0,0.0,0.0,0.0,0.0,0.0,0.0,0.0,0.0,0.0,0.0,0.0,0.0,0.0,-0.2692,-0.2692,-0.2692,-0.2692,-0.2692,-0.2692,-0.2692,-0.2692,-0.2692,-0.2692,-0.2692,-0.2692,-0.2692,-0.2692,-0.2692,-0.2692,-0.2692,-0.2692,-0.2692,-0.2692,-0.2692,-0.2692,-0.2692,-0.2692,-0.2692,0.0,0.0,0.0,0.0,0.0,0.0,0.0,0.0,0.0,0.0,0.0,0.0,0.0,0.0,0.0,0.0,0.0,0.0,0.0,-1.6511,-1.6349,-1.5974,-1.5966,-1.5966,-1.5966,-1.5966,-1.5966,-1.5966,-1.5966,-1.5966,-1.5966,-1.5966,-1.5966,-1.5966,-1.5966,-1.5966,-1.5966,-1.5966,-1.6105,-1.6211,-1.6276,-1.6438,0.0,0.0,0.0,0.0,0.0,0.0,0.0,0.0,-1.5881,-1.544,-1.5264,-1.4822,-1.4299,-1.4299,-1.4299,-1.4299,-1.4299,-1.4075,-1.3838,-1.3838,-1.3661,-1.3471,-1.3417,-1.3403,-1.3403,-1.3403,-1.3403,-1.3065,-1.189,-0.8799,-0.6208,-0.5538,-0.3866,-0.2692,0.0,0.0,0.0,0.0,0.0,0.0,0.0,0.0,0.0,0.0,0.0,0.0,0.0,0.0,0.0,-0.2692,-0.2692,-0.2692,-0.2692,-0.2692,-0.2692,-0.2692,-0.2692,-0.2692,-0.2692,-0.2692,-0.2692,-0.2692,-0.2692,-0.2692,-0.2692,-0.2692,-0.2692,-0.2692,-0.2692,-0.2692,-0.2692,-0.2692,-0.2692,-0.2692,0.0,0.0,0.0,0.0,0.0,0.0,0.0,0.0,0.0,0.0,0.0,0.0,0.0,0.0,0.0,0.0,0.0,0.0,-1.66,-1.6584,-1.6422,-1.6064,-1.5966,-1.5966,-1.5966,-1.5966,-1.5966,-1.5966,-1.5966,-1.5966,-1.5966,-1.5966,-1.5966,-1.5966,-1.5966,-1.5966,-1.5966,-1.6105,-1.6194,-1.6316,-1.643,-1.6633,0.0,0.0,0.0,0.0,0.0,0.0,0.0,0.0,-1.5528,-1.5264,-1.5087,-1.4646,-1.4299,-1.4299,-1.4299,-1.4292,-1.4238,-1.4041,-1.3831,-1.3783,-1.3587,-1.3403,-1.3403,-1.3403,-1.3403,-1.3403,-1.3403,-1.2644,-1.0304,-0.7881,-0.5873,0.0,-0.3532,0.0,0.0,0.0,0.0,0.0,0.0,0.0,0.0,0.0,0.0,0.0,0.0,0.0,0.0,0.0,0.0,0.0,-0.2692,-0.2692,-0.2692,-0.2692,-0.2692,-0.2692,-0.2692,-0.2692,-0.2692,-0.2692,-0.2692,-0.2692,-0.2692,-0.2692,-0.2692,-0.2692,-0.2692,-0.2692,-0.2692,-0.2692,-0.2692,-0.2692,-0.2692,-0.2692,0.0,0.0,0.0,0.0,0.0,0.0,0.0,0.0,0.0,0.0,0.0,0.0,0.0,0.0,0.0,0.0,0.0,0.0,-1.66,-1.6584,-1.6422,-1.6064,-1.5966,-1.5966,-1.5966,-1.5966,-1.5966,-1.5966,-1.5966,-1.5966,-1.5966,-1.5966,-1.5966,-1.5966,-1.5966,-1.5966,-1.6056,-1.6227,-1.6308,-1.6341,-1.6706,-1.6766,-1.679,0.0,0.0,0.0,0.0,0.0,0.0,0.0,-1.5087,-1.4387,-1.4822,-1.4646,-1.4299,-1.4299,-1.4299,-1.4265,-1.4116,-1.396,-1.3804,-1.3661,-1.3512,-1.3403,-1.3403,-1.3403,-1.3403,-1.3403,-1.3403,-1.2312,-0.8716,-0.7968,-0.6797,-0.3279,-0.2692,0.0,0.0,0.0,0.0,0.0,0.0,0.0,0.0,0.0,0.0,0.0,0.0,0.0,0.0,0.0,0.0,0.0,-0.2692,-0.2692,-0.2692,-0.2692,-0.2692,-0.2692,-0.2692,-0.2692,-0.2692,-0.2692,-0.2692,-0.2692,-0.2692,-0.2692,-0.2692,-0.2692,-0.2692,-0.2692,-0.2692,-0.2692,-0.2692,-0.2692,-0.2692,-0.2692,0.0,0.0,0.0,0.0,0.0,0.0,0.0,0.0,0.0,0.0,0.0,0.0,0.0,0.0,0.0,0.0,0.0,0.0,-1.66,-1.6584,-1.6422,-1.6064,-1.5966,-1.5966,-1.5966,-1.5966,-1.5966,-1.5966,-1.5966,-1.5966,-1.5966,-1.5966,-1.5966,-1.5966,-1.5966,-1.6113,-1.6227,-1.6284,-1.6454,-1.6698,-1.6725,-1.6838,-1.6952,0.0,0.0,0.0,0.0,0.0,0.0,0.0,0.0,0.0,-1.4557,-1.4387,-1.4299,-1.4299,-1.4299,-1.4265,-1.4116,-1.396,-1.3804,-1.3661,-1.3512,-1.3403,-1.3403,-1.3403,-1.3403,-1.3403,-1.2395,-1.1142,-1.0138,-0.7881,-0.579,-0.4787,-0.3532,0.0,0.0,0.0,0.0,0.0,0.0,0.0,0.0,0.0,0.0,0.0,0.0,0.0,0.0,0.0,0.0,0.0,-0.2692,-0.2692,-0.2692,-0.2692,-0.2692,-0.2692,-0.2692,-0.2692,-0.2692,-0.2692,-0.2692,-0.2692,-0.2692,-0.2692,-0.2692,-0.2692,-0.2692,-0.2692,-0.2692,-0.2692,-0.2692,-0.2692,-0.2692,-0.2692,0.0,0.0,0.0,0.0,0.0,0.0,0.0,0.0,0.0,0.0,-1.7112,-1.7112,0.0,0.0,0.0,0.0,0.0,0.0,0.0,-1.669,-1.6527,-1.6162,-1.6146,-1.6113,-1.5966,-1.5966,-1.5966,-1.5966,-1.5966,-1.5966,-1.5966,-1.5966,-1.5966,-1.5966,-1.6113,-1.6211,-1.6316,-1.6462,-1.6649,-1.6774,-1.6925,-1.7015,-1.7024,0.0,0.0,0.0,0.0,0.0,0.0,0.0,0.0,0.0,-1.4387,-1.4299,-1.4299,-1.4299,-1.4258,-1.4177,-1.4021,-1.3871,-1.3722,-1.3573,-1.3471,-1.3403,-1.3403,-1.3403,-1.3403,-1.3403,-1.1979,-1.0471,-0.9721,-0.7296,0.0,-0.4451,-0.3447,0.0,0.0,0.0,0.0,0.0,0.0,0.0,0.0,0.0,0.0,0.0,0.0,0.0,0.0,0.0,0.0,0.0,-0.2692,-0.2692,-0.2692,-0.2692,-0.2692,-0.2692,-0.2692,-0.2692,-0.2692,-0.2692,-0.2692,-0.2692,-0.2692,-0.2692,-0.2692,-0.2692,-0.2692,-0.2692,-0.2692,-0.2692,-0.2692,-0.2692,-0.2692,-0.2692,0.0,0.0,0.0,0.0,0.0,0.0,0.0,0.0,0.0,0.0,-1.7112,-1.7112,0.0,0.0,0.0,0.0,0.0,0.0,0.0,-1.6766,-1.6698,-1.6341,-1.6332,-1.6243,-1.599,-1.6073,-1.6064,-1.5966,-1.5966,-1.5966,-1.5966,-1.5966,-1.5974,-1.6073,-1.6235,-1.6324,-1.6373,-1.6714,-1.6774,-1.6806,-1.696,-1.7024,-1.7024,-1.6489,0.0,0.0,0.0,0.0,0.0,0.0,0.0,0.0,-1.4299,-1.4299,-1.4299,-1.4299,-1.419,-1.4041,-1.3885,-1.3736,-1.3593,-1.3437,-1.3403,-1.3403,-1.3403,-1.3403,-1.3321,-1.3148,-1.1724,-0.9888,-0.8131,-0.6376,-0.4619,-0.2943,0.0,0.0,0.0,0.0,0.0,0.0,0.0,0.0,0.0,0.0,0.0,0.0,0.0,0.0,0.0,0.0,0.0,-0.2692,-0.2692,-0.2692,-0.2692,-0.2692,-0.2692,0.0,-0.2692,-0.2692,-0.2692,-0.2692,-0.2692,-0.2692,-0.2692,-0.2692,-0.2692,-0.2692,-0.2692,-0.2692,-0.2692,-0.2692,-0.2692,-0.2692,-0.2692,-0.2692,0.0,0.0,0.0,0.0,0.0,0.0,0.0,0.0,0.0,0.0,0.0,0.0,0.0,0.0,0.0,0.0,0.0,0.0,0.0,-1.6766,-1.6755,-1.6527,-1.6519,-1.6438,-1.6251,-1.6251,-1.6178,-1.5966,-1.5966,-1.5966,-1.5966,-1.5966,-1.6121,-1.6251,-1.6284,-1.6462,-1.6738,-1.6733,-1.6933,-1.6968,-1.6649,-1.6577,-1.6489,-1.6057,-1.5793,0.0,0.0,0.0,0.0,0.0,0.0,0.0,-1.4299,-1.4299,-1.4299,-1.4299,-1.419,-1.4041,-1.3885,-1.3736,-1.3593,-1.3437,-1.3403,-1.3403,-1.3403,-1.3403,-1.2982,-1.1558,-0.9805,-0.8048,-0.6292,-0.4451,-0.3111,0.0,0.0,0.0,0.0,0.0,0.0,0.0,0.0,0.0,0.0,0.0,0.0,0.0,0.0,0.0,0.0,0.0,0.0,-0.2692,-0.2692,-0.2692,-0.2692,-0.2692,-0.2692,0.0,-0.2692,-0.2692,-0.2692,-0.2692,-0.2692,-0.2692,-0.2692,-0.2692,-0.2692,-0.2692,-0.2692,-0.2692,-0.2692,-0.2692,-0.2692,-0.2692,-0.2692,-0.2692,0.0,0.0,0.0,0.0,0.0,0.0,0.0,0.0,0.0,0.0,0.0,0.0,0.0,0.0,0.0,0.0,0.0,0.0,0.0,0.0,-1.6901,-1.6722,-1.6625,-1.6535,-1.6438,-1.6438,-1.6389,-1.63,-1.63,-1.6219,-1.5966,-1.6129,-1.6219,-1.6308,-1.6487,-1.6674,-1.6774,-1.6942,-1.6856,-1.6753,-1.6489,-1.6313,-1.6049,-1.5528,-1.5352,-1.5264,-1.4822,0.0,0.0,0.0,0.0,0.0,0.0,0.0,-1.4299,-1.4299,-1.419,-1.4041,-1.3885,-1.3736,-1.3593,-1.3437,-1.3403,-1.3403,-1.3403,-1.3403,-1.2644,-0.9971,-0.8637,-0.7463,-0.5706,-0.395,0.0,0.0,0.0,0.0,0.0,0.0,0.0,0.0,0.0,0.0,0.0,0.0,0.0,0.0,0.0,0.0,0.0,-0.2692,-0.2692,-0.2692,-0.2692,-0.2692,-0.2692,-0.2692,-0.2692,-0.2692,-0.2692,-0.2692,-0.2692,-0.2692,-0.2692,-0.2692,-0.2692,-0.2692,-0.2692,-0.2692,-0.2692,-0.2692,-0.2692,-0.2692,-0.2692,-0.2692,-0.2692,-0.2692,0.0,0.0,0.0,0.0,0.0,0.0,0.0,0.0,0.0,0.0,0.0,0.0,0.0,0.0,0.0,0.0,0.0,0.0,0.0,0.0,0.0,-1.6814,-1.6755,-1.6657,-1.6625,-1.6625,-1.6609,-1.6584,-1.6584,-1.643,-1.6146,-1.6284,-1.6365,-1.6414,-1.6714,-1.6782,-1.6822,-1.7047,-1.6841,-1.6401,-1.6313,-1.5961,-1.5528,-1.5087,-1.4911,-1.4822,-1.4476,-1.4299,-1.4299,-1.4299,0.0,0.0,0.0,0.0,-1.4299,-1.4299,-1.4177,-1.4007,-1.3878,-1.3715,-1.3559,-1.3431,-1.3403,-1.3403,-1.3403,-1.3148,-1.1979,-0.8716,-0.7968,-0.7379,-0.5287,0.0,0.0,0.0,0.0,0.0,0.0,0.0,0.0,0.0,0.0,0.0,0.0,0.0,0.0,0.0,0.0,0.0,-0.2692,-0.2692,-0.2692,-0.2692,-0.2692,-0.2692,-0.2692,-0.2692,-0.2692,-0.2692,-0.2692,-0.2692,-0.2692,-0.2692,-0.2692,-0.2692,-0.2692,-0.2692,-0.2692,-0.2692,-0.2692,-0.2692,-0.2692,-0.2692,-0.2692,-0.2692,-0.2692,-0.2692,0.0,0.0,0.0,0.0,0.0,0.0,0.0,0.0,0.0,0.0,-1.7112,-1.7112,0.0,0.0,0.0,0.0,0.0,0.0,0.0,0.0,0.0,-1.708,-1.7055,-1.6966,-1.682,-1.6733,-1.6738,-1.6584,-1.6584,-1.656,-1.6511,-1.6535,-1.6625,-1.6779,-1.675,-1.6933,-1.708,-1.7096,-1.6841,-1.6401,-1.5969,-1.5528,-1.5087,-1.4564,-1.4387,-1.4387,-1.4299,-1.4299,-1.4299,-1.4299,-1.4299,0.0,0.0,0.0,-1.4299,-1.4299,-1.4095,-1.3865,-1.3844,-1.3641,-1.3424,-1.3403,-1.3403,-1.3403,-1.3403,-1.2229,-1.0471,0.0,-0.7968,-0.6961,0.0,0.0,0.0,0.0,0.0,0.0,0.0,0.0,0.0,0.0,0.0,0.0,0.0,0.0,0.0,0.0,0.0,0.0,-0.2692,-0.2692,-0.2692,-0.2692,-0.2692,-0.2692,-0.2692,-0.2692,-0.2692,-0.2692,-0.2692,-0.2692,-0.2692,-0.2692,-0.2692,-0.2692,-0.2692,-0.2692,-0.2692,-0.2692,-0.2692,-0.2692,-0.2692,-0.2692,-0.2692,-0.2692,-0.2692,-0.2692,0.0,0.0,0.0,0.0,0.0,0.0,0.0,0.0,0.0,0.0,0.0,-1.7112,0.0,0.0,0.0,0.0,0.0,0.0,0.0,0.0,0.0,-1.7112,-1.7112,-1.7071,-1.6998,-1.6998,-1.6958,-1.6877,-1.6877,-1.6877,-1.6877,-1.6877,-1.6868,-1.6774,-1.6958,-1.7039,-1.7112,-1.7112,-1.6673,-1.6049,-1.6049,-1.5528,-1.4646,-1.4646,-1.4557,-1.4299,-1.4299,-1.4299,-1.4299,-1.4299,-1.4299,-1.4299,-1.4299,0.0,0.0,0.0,-1.4143,-1.3933,-1.377,-1.3566,-1.3403,-1.3403,-1.3403,-1.3148,-1.2146,-1.1309,-0.9888,-0.7129,-0.6543,0.0,0.0,0.0,0.0,0.0,0.0,0.0,0.0,0.0,0.0,0.0,0.0,0.0,0.0,0.0,0.0,0.0,0.0,-0.2692,-0.2692,-0.2692,-0.2692,-0.2692,-0.2692,-0.2692,-0.2692,-0.2692,-0.2692,-0.2692,-0.2692,-0.2692,-0.2692,-0.2692,-0.2692,-0.2692,-0.2692,-0.2692,-0.2692,-0.2692,-0.2692,-0.2692,-0.2692,-0.2692,-0.2692,-0.2692,-0.2692,-0.2692,0.0,0.0,0.0,0.0,0.0,0.0,0.0,0.0,0.0,0.0,0.0,0.0,0.0,0.0,0.0,0.0,0.0,0.0,0.0,0.0,0.0,0.0,0.0,-1.7112,-1.7112,-1.7112,-1.7112,-1.7112,-1.7112,-1.7112,-1.7112,-1.7112,-1.7039,-1.6838,-1.7055,-1.7112,-1.7112,-1.7112,-1.6673,-1.5881,-1.6225,-1.5609,-1.4564,-1.4911,-1.4734,-1.4299,-1.4299,-1.4299,-1.4299,-1.4299,-1.4299,-1.4299,-1.4299,-1.4299,0.0,0.0,0.0,-1.3946,-1.3648,-1.3492,-1.3403,-1.3403,-1.3065,-1.2395,0.0,0.0,-0.8632,0.0,0.0,0.0,0.0,0.0,0.0,0.0,0.0,0.0,0.0,0.0,0.0,0.0,0.0,0.0,0.0,0.0,0.0,0.0,0.0,-0.2692,-0.2692,-0.2692,-0.2692,-0.2692,-0.2692,-0.2692,-0.2692,-0.2692,-0.2692,-0.2692,-0.2692,-0.2692,-0.2692,-0.2692,-0.2692,-0.2692,-0.2692,-0.2692,-0.2692,-0.2692,-0.2692,-0.2692,-0.2692,-0.2692,-0.2692,-0.2692,-0.2692,-0.2692,0.0,0.0,0.0,0.0,0.0,0.0,0.0,0.0,0.0,0.0,0.0,0.0,-1.7112,-1.7112,-1.7112,-1.7112,0.0,0.0,0.0,0.0,0.0,0.0,0.0,0.0,-1.7112,-1.7112,-1.7112,-1.7112,-1.7112,-1.7112,-1.7112,-1.7112,-1.7104,-1.7096,-1.7104,-1.7112,-1.7112,-1.7112,-1.6841,-1.6401,-1.6401,-1.5785,-1.4992,-1.4992,-1.4734,-1.4299,-1.4299,-1.4299,-1.4299,-1.4299,-1.4299,-1.4299,-1.4299,-1.4299,-1.4299,0.0,0.0,0.0,-1.3492,-1.3403,-1.3403,-1.3403,-1.2146,-1.0809,0.0,0.0,0.0,0.0,0.0,0.0,0.0,0.0,0.0,0.0,0.0,0.0,0.0,0.0,0.0,0.0,0.0,0.0,0.0,0.0,0.0,0.0,0.0,-0.2692,-0.2692,-0.2692,-0.2692,-0.2692,-0.2692,-0.2692,-0.2692,-0.2692,-0.2692,-0.2692,-0.2692,-0.2692,-0.2692,-0.2692,-0.2692,-0.2692,-0.2692,-0.2692,-0.2692,-0.2692,-0.2692,-0.2692,-0.2692,-0.2692,-0.2692,-0.2692,-0.2692,-0.2692,0.0,0.0,0.0,0.0,0.0,0.0,0.0,0.0,0.0,0.0,0.0,0.0,0.0,-1.7112,-1.7112,-1.7112,-1.7112,0.0,0.0,0.0,0.0,0.0,0.0,0.0,-1.7112,-1.7112,-1.7112,-1.7112,-1.7112,-1.7112,-1.7112,-1.7112,-1.7112,-1.7112,-1.7112,-1.7112,-1.7112,-1.7112,-1.6673,-1.5969,-1.6577,-1.5969,-1.4646,-1.5264,-1.4999,-1.4299,-1.4299,-1.4299,-1.4299,-1.4299,-1.4299,-1.4299,-1.4299,-1.4299,-1.4258,-1.4061,-1.3865,-1.3661,-1.3458,-1.3403,-1.3403,-1.3403,-1.2063,-1.0388,-0.9221,-0.7129,0.0,0.0,0.0,0.0,0.0,0.0,0.0,0.0,0.0,0.0,0.0,0.0,0.0,0.0,0.0,0.0,0.0,0.0,0.0,0.0,0.0,0.0,-0.2692,-0.2692,-0.2692,-0.2692,-0.2692,-0.2692,-0.2692,-0.2692,-0.2692,-0.2692,-0.2692,-0.2692,-0.2692,-0.2692,-0.2692,-0.2692,-0.2692,-0.2692,-0.2692,-0.2692,-0.2692,-0.2692,-0.2692,-0.2692,-0.2692,-0.2692,-0.2692,-0.2692,0.0,0.0,0.0,0.0,0.0,0.0,0.0,0.0,-1.7112,-1.7112,0.0,0.0,0.0,0.0,-1.7112,-1.7112,-1.7112,-1.7112,-1.7112,-1.7112,0.0,0.0,0.0,0.0,-1.7112,-1.7055,-1.7055,-1.7112,-1.7055,-1.7055,-1.7112,-1.6928,-1.6928,-1.7112,-1.6928,-1.6928,-1.7104,-1.6872,-1.6442,-1.5961,-1.6522,-1.5916,-1.4653,-1.544,-1.5087,-1.4299,-1.4299,-1.4299,-1.4299,-1.4299,-1.4265,-1.4231,-1.4285,-1.4265,-1.4163,-1.3858,-1.3702,-1.3593,-1.3444,-1.3403,-1.3403,-1.3403,-1.2063,-1.0221,-0.8382,0.0,0.0,0.0,0.0,0.0,0.0,0.0,0.0,0.0,0.0,0.0,0.0,0.0,0.0,0.0,0.0,0.0,0.0,0.0,0.0,0.0,0.0,0.0,-0.2692,-0.2692,-0.2692,-0.2692,-0.2692,-0.2692,-0.2692,-0.2692,-0.2692,-0.2692,-0.2692,-0.2692,-0.2692,-0.2692,-0.2692,-0.2692,-0.2692,-0.2692,-0.2692,-0.2692,-0.2692,-0.2692,-0.2692,-0.2692,-0.2692,-0.2692,-0.2692,-0.2692,0.0,0.0,0.0,0.0,0.0,0.0,0.0,0.0,-1.7112,-1.7112,0.0,0.0,0.0,0.0,0.0,-1.7112,-1.7112,-1.7112,-1.7112,-1.7112,0.0,0.0,0.0,0.0,-1.7112,-1.6942,-1.6942,-1.7112,-1.6942,-1.6863,-1.7112,-1.6577,-1.6665,-1.7024,-1.6577,-1.6665,-1.7,-1.6483,-1.6245,-1.637,-1.6214,-1.5722,-1.4985,-1.5521,-1.5087,-1.4299,-1.4299,-1.4299,-1.4299,-1.4299,-1.4204,-1.4102,-1.4245,-1.4096,-1.3914,-1.3624,-1.3452,-1.3418,0.0,0.0,0.0,-1.3231,0.0,0.0,-0.8298,0.0,0.0,0.0,0.0,0.0,0.0,0.0,0.0,0.0,0.0,0.0,0.0,0.0,0.0,0.0,0.0,0.0,0.0,0.0,0.0,0.0,0.0,-0.2692,-0.2692,-0.2692,-0.2692,-0.2692,-0.2692,-0.2692,-0.2692,-0.2692,-0.2692,-0.2692,-0.2692,-0.2692,-0.2692,-0.2692,-0.2692,-0.2692,-0.2692,-0.2692,-0.2692,-0.2692,-0.2692,-0.2692,-0.2692,-0.2692,-0.2692,-0.2692,-0.2692,-0.2692,0.0,0.0,0.0,0.0,0.0,0.0,-1.7112,-1.7112,-1.7112,0.0,0.0,0.0,-1.7112,-1.7112,-1.7112,-1.7112,-1.7112,-1.7112,-1.7112,-1.7112,-1.7112,-1.7112,-1.7112,-1.7112,-1.7112,-1.7063,-1.7063,-1.7112,-1.7063,-1.6888,-1.6577,-1.6489,-1.6489,-1.6577,-1.6137,-1.6076,-1.6483,-1.6262,-1.594,-1.5519,-1.5559,-1.5038,-1.4391,-1.4835,-1.4731,-1.4299,-1.4299,-1.4299,-1.4299,-1.4299,-1.4272,-1.4224,-1.4156,-1.2211,-1.0124,-1.134,-1.0672,-0.951,-0.9476,0.0,0.0,0.0,0.0,0.0,0.0,0.0,0.0,0.0,0.0,0.0,0.0,0.0,0.0,0.0,0.0,0.0,0.0,0.0,0.0,0.0,0.0,0.0,0.0,0.0,0.0,0.0,-0.2692,-0.2692,-0.2692,-0.2692,-0.2692,-0.2692,-0.2692,-0.2692,-0.2692,-0.2692,-0.2692,-0.2692,-0.2692,-0.2692,-0.2692,-0.2692,-0.2692,-0.2692,-0.2692,-0.2692,-0.2692,-0.2692,-0.2692,-0.2692,-0.2692,-0.2692,-0.2692,-0.2692,-0.2692,-0.2692,0.0,0.0,0.0,0.0,0.0,-1.7112,-1.7112,-1.7112,-1.7112,0.0,0.0,0.0,-1.7112,-1.7112,-1.7112,-1.7112,-1.7112,-1.7112,-1.7112,-1.7112,-1.7112,-1.7112,-1.7112,-1.7112,-1.7112,-1.7039,-1.7039,-1.7112,-1.6864,-1.6594,-1.6401,-1.5961,-1.6049,-1.6393,-1.563,-1.5598,-1.6043,-1.5622,-1.5242,-1.4964,-1.4964,-1.4629,-1.4169,-1.4667,-1.4657,-1.4299,-1.4299,-1.4299,-1.4292,-1.4224,-1.3718,-1.2929,-1.273,-1.063,-0.8509,-0.9399,-0.8928,-0.7968,-0.7968,-0.7968,-0.7968,-0.7968,0.0,0.0,-0.5538,-0.4619,0.0,0.0,0.0,0.0,0.0,0.0,0.0,0.0,0.0,0.0,0.0,0.0,0.0,0.0,0.0,0.0,0.0,0.0,0.0,-0.2692,-0.2692,-0.2692,-0.2692,-0.2692,-0.2692,-0.2692,-0.2692,-0.2692,-0.2692,-0.2692,-0.2692,-0.2692,-0.2692,-0.2692,-0.2692,-0.2692,-0.2692,-0.2692,-0.2692,-0.2692,-0.2692,-0.2692,-0.2692,-0.2692,-0.2692,-0.2692,-0.2692,-0.2692,-0.2692,-0.2692,0.0,0.0,0.0,0.0,0.0,-1.7112,-1.7112,-1.7112,-1.7112,0.0,-1.7112,-1.7112,-1.7112,-1.7112,-1.7112,-1.7112,-1.7112,-1.7112,-1.7112,-1.7112,-1.7112,-1.7112,-1.7024,-1.7024,-1.7024,-1.6784,-1.6784,-1.6936,-1.634,-1.6079,-1.6225,-1.5433,-1.5433,-1.6217,-1.5206,-1.5125,-1.5709,-1.4626,-1.4302,-1.4508,-1.4508,-1.4342,-1.4148,-1.465,-1.4632,-1.4299,-1.4278,-1.4278,-1.4251,-1.3921,-1.2465,-1.0849,-1.0556,-0.9202,-0.7642,-0.7737,-0.755,-0.7383,-0.7383,-0.7383,-0.7383,-0.7383,-0.7383,0.0,-0.5454,-0.5119,-0.4619,0.0,0.0,0.0,0.0,0.0,0.0,0.0,0.0,0.0,0.0,0.0,0.0,0.0,0.0,0.0,0.0,-0.2692,-0.2692,-0.2692,-0.2692,-0.2692,-0.2692,-0.2692,-0.2692,-0.2692,-0.2692,-0.2692,-0.2692,-0.2692,-0.2692,-0.2692,-0.2692,-0.2692,-0.2692,-0.2692,-0.2692,-0.2692,-0.2692,-0.2692,-0.2692,-0.2692,-0.2692,-0.2692,-0.2692,-0.2692,-0.2692,-0.2692,-0.2692,-0.2692,0.0,0.0,0.0,0.0,0.0,0.0,-1.7112,-1.7112,-1.7112,-1.7112,-1.7112,-1.7112,-1.7112,-1.7112,-1.7112,-1.7112,-1.7112,-1.7112,-1.7112,-1.7112,-1.7112,-1.7112,-1.6753,-1.6577,-1.6577,-1.6114,-1.5938,-1.5969,-1.5851,-1.5579,-1.5256,-1.508,-1.508,-1.5256,-1.4618,-1.4538,-1.4785,-1.4152,-1.3834,-1.3837,-1.3837,-1.3841,-1.3905,-1.4142,-1.4278,-1.4285,-1.4163,-1.4116,-1.3914,-1.2286,-1.0431,-0.8879,-0.8759,-0.6515,-0.4044,-0.5457,-0.487,-0.37,-0.37,-0.37,-0.37,-0.37,-0.37,0.0,-0.3279,-0.3195,-0.3111,0.0,0.0,0.0,0.0,0.0,0.0,0.0,0.0,0.0,0.0,0.0,0.0,0.0,0.0,0.0,0.0,-0.2692,-0.2692,-0.2692,-0.2692,-0.2692,-0.2692,-0.2692,-0.2692,-0.2692,-0.2692,-0.2692,-0.2692,-0.2692,-0.2692,-0.2692,-0.2692,-0.2692,-0.2692,-0.2692,-0.2692,-0.2692,-0.2692,-0.2692,-0.2692,-0.2692,-0.2692,-0.2692,-0.2692,-0.2692,-0.2692,-0.2692,-0.2692,-0.2692,-1.7112,-1.7112,0.0,0.0,0.0,0.0,-1.7112,-1.7112,-1.7112,-1.7112,-1.7112,-1.7112,-1.7112,-1.7112,-1.7112,-1.7112,-1.7112,-1.7112,-1.7112,-1.7112,-1.7112,-1.7112,-1.6665,-1.6401,-1.6401,-1.5969,-1.5704,-1.5704,-1.544,-1.5264,-1.4992,-1.4734,-1.4911,-1.5344,-1.4569,-1.4496,-1.4871,-1.4025,-1.3648,-1.3526,-1.3675,-1.3824,-1.3973,-1.4129,-1.4183,-1.4089,-1.3129,-1.2056,-1.1069,-1.0063,-0.8442,-0.6849,-0.6849,-0.4977,-0.2861,-0.3782,-0.3447,-0.2692,-0.2692,-0.2692,-0.2692,-0.2692,-0.2692,0.0,0.0,-0.2692,-0.2692,0.0,0.0,0.0,0.0,0.0,0.0,0.0,0.0,0.0,0.0,0.0,0.0,0.0,0.0,0.0,0.0,-0.2692,-0.2692,-0.2692,-0.2692,-0.2692,-0.2692,-0.2692,-0.2692,-0.2692,-0.2692,-0.2692,-0.2692,-0.2692,-0.2692,-0.2692,-0.2692,-0.2692,-0.2692,-0.2692,-0.2692,-0.2692,-0.2692,-0.2692,-0.2692,-0.2692,-0.2692,-0.2692,-0.2692,-0.2692,-0.2692,-0.2692,-0.2692,-0.2692,-1.7112,-1.7112,-1.7112,0.0,0.0,0.0,0.0,0.0,-1.7112,-1.7112,-1.7112,-1.7112,-1.7112,-1.7112,-1.7112,-1.7112,-1.7112,-1.7112,-1.7112,-1.7112,-1.7112,-1.7112,-1.6665,-1.6401,-1.6313,-1.5793,-1.5528,-1.544,-1.5087,-1.4911,-1.4822,-1.4476,-1.4741,-1.5344,-1.452,-1.4447,-1.4956,-1.4062,-1.36,-1.3505,-1.3743,-1.3899,-1.4,-1.4156,-1.4136,-1.376,-1.1981,-1.0012,-0.8154,-0.7815,-0.6674,-0.5371,-0.4954,-0.3866,-0.2692,-0.2692,-0.2692,-0.2692,-0.2692,-0.2692,-0.2692,-0.2692,-0.2692,-0.2692,0.0,0.0,0.0,0.0,0.0,0.0,0.0,0.0,0.0,0.0,0.0,0.0,0.0,0.0,0.0,0.0,0.0,0.0,0.0,-0.2675,-0.2677,-0.2683,-0.2684,-0.2686,-0.2692,-0.2692,-0.2692,-0.2692,-0.2692,-0.2692,-0.2692,-0.2692,-0.2692,-0.2692,-0.2692,-0.2692,-0.2692,-0.2692,-0.2692,-0.2692,-0.2692,-0.2692,-0.2692,-0.2692,-0.2692,-0.2692,-0.2692,-0.2692,-0.2692,-0.2692,-0.2692,-0.2692,-1.7112,-1.7112,-1.7112,-1.7112,0.0,0.0,0.0,0.0,-1.7112,-1.7112,-1.7112,-1.7112,-1.7112,-1.7112,-1.7112,-1.7112,-1.7112,-1.7112,-1.7112,-1.7112,-1.7112,-1.7112,-1.6665,-1.6225,-1.5793,-1.5352,-1.4911,-1.4476,-1.4387,-1.4387,-1.4387,-1.4299,-1.4387,-1.4476,-1.4374,-1.4203,-1.3923,-1.3824,-1.3804,-1.379,-1.3824,-1.3777,-1.3695,-1.3838,-1.3878,-1.3587,-1.1657,-0.9666,-0.7813,0.0,-0.5544,-0.5119,0.0,-0.2861,-0.2692,-0.2692,-0.2692,-0.2692,-0.2692,-0.2692,-0.2692,-0.2692,-0.2692,-0.2692,-0.2692,0.0,-0.2692,-0.2692,0.0,0.0,0.0,0.0,0.0,0.0,0.0,0.0,0.0,0.0,0.0,0.0,0.0,0.0,0.0,0.0,-0.2623,-0.265,-0.2652,-0.2664,-0.2691,-0.2692,-0.2692,-0.2692,-0.2692,-0.2692,-0.2692,-0.2692,-0.2692,-0.2692,-0.2692,-0.2692,-0.2692,-0.2692,-0.2692,-0.2692,-0.2692,-0.2692,-0.2692,-0.2692,-0.2692,-0.2692,-0.2692,-0.2692,-0.2692,-0.2692,-0.2692,-0.2692,-1.7112,-1.7112,-1.7112,-1.7112,0.0,0.0,0.0,0.0,-1.7112,-1.7112,-1.7112,-1.7112,-1.7112,-1.7112,-1.7112,-1.7112,-1.7112,-1.7112,-1.7112,-1.7112,-1.7112,-1.7112,-1.6409,-1.5881,-1.5704,-1.4999,-1.4476,-1.4299,-1.4299,-1.4299,-1.4299,-1.4299,-1.4476,-1.4646,-1.4387,-1.4352,-1.4319,-1.3964,-1.379,-1.3715,-1.3715,-1.3627,0.0,-1.3851,-1.2564,-1.0359,-0.8383,-0.6482,-0.4787,0.0,-0.3866,0.0,0.0,0.0,0.0,-0.2692,0.0,0.0,0.0,0.0,0.0,0.0,0.0,0.0,-0.2692,0.0,-0.2692,0.0,0.0,0.0,0.0,0.0,0.0,0.0,0.0,0.0,0.0,0.0,0.0,0.0,0.0,0.0,0.0,0.0,0.0,0.0,0.0,-0.2634,-0.2664,-0.2667,-0.2675,-0.2691,-0.2692,-0.2692,-0.2692,-0.2692,-0.2692,-0.2692,-0.2692,-0.2692,-0.2692,-0.2692,-0.2692,-0.2692,-0.2692,-0.2692,-0.2692,-0.2692,-0.2692,-0.2692,-0.2692,-0.2692,-0.2692,-0.2692,-0.2692,-0.2692,-1.7112,-1.7112,-1.7112,-1.7112,0.0,0.0,0.0,0.0,-1.7112,-1.7112,-1.7112,-1.7112,-1.7112,-1.7112,-1.7112,-1.7112,-1.7112,-1.7112,-1.7112,-1.7161,-1.7161,-1.7112,-1.6367,-1.5926,-1.5704,-1.4911,-1.4476,-1.4299,-1.4299,-1.4299,-1.4299,-1.4299,-1.4476,-1.4822,-1.4476,-1.4393,-1.459,-1.4125,-1.3844,-1.3743,-1.3702,-1.3257,-1.2733,-1.3088,-1.0827,-0.7289,-0.5888,-0.4199,-0.2692,-0.2692,-0.2692,0.0,-0.2692,0.0,-0.2692,0.0,0.0,0.0,-0.2692,0.0,0.0,0.0,0.0,0.0,0.0,0.0,0.0,0.0,0.0,0.0,0.0,0.0,0.0,0.0,0.0,0.0,0.0,0.0,0.0,0.0,0.0,0.0,0.0,0.0,0.0,-0.2589,-0.259,-0.2602,-0.2632,-0.2559,-0.2657,-0.2679,-0.2688,-0.2692,-0.2692,-0.2692,-0.2692,-0.2692,-0.2692,-0.2692,-0.2692,-0.2692,-0.2692,-0.2692,-0.2692,-0.2692,-0.2692,-0.2692,-0.2692,-0.2692,-0.2692,-0.2692,-0.2692,-0.2692,-0.2692,-0.2692,-1.7112,-1.7112,-1.7112,-1.7112,-1.7112,0.0,0.0,-1.7112,-1.7112,-1.7112,-1.7112,-1.7112,-1.7112,-1.7112,-1.7112,-1.7112,-1.7112,-1.7112,-1.7112,-1.7283,-1.7299,-1.712,-1.6831,-1.6402,-1.5712,-1.5264,-1.4734,-1.4299,-1.4299,-1.4299,-1.4299,-1.4299,-1.4299,-1.4299,-1.4299,-1.4217,-1.4162,-1.4068,-1.4061,-1.4048,-1.3892,-1.2624,-1.0963,0.0,-0.8558,-0.5457,-0.5454,0.0,0.0,-0.2692,-0.2692,0.0,0.0,0.0,0.0,0.0,0.0,0.0,0.0,0.0,0.0,-0.2692,0.0,0.0,0.0,0.0,-0.2692,0.0,0.0,0.0,0.0,0.0,0.0,-0.2564,0.0,0.0,0.0,0.0,0.0,0.0,0.0,0.0,0.0,0.0,0.0,-0.2559,-0.2562,-0.2574,-0.2601,-0.2631,-0.2565,-0.2566,-0.2677,-0.2692,-0.2692,-0.2692,-0.2692,-0.2692,-0.2692,-0.2692,-0.2692,-0.2692,-0.2692,-0.2692,-0.2692,-0.2692,-0.2692,-0.2692,-0.2692,-0.2692,-0.2692,-0.2692,-0.2692,-0.2692,-0.2692,-0.2692,-1.7112,-1.7112,-1.7112,-1.7112,-1.7112,-1.7112,-1.7112,-1.7112,-1.7112,-1.7112,-1.7112,-1.7161,-1.7283,-1.7291,-1.7339,-1.7453,-1.7356,-1.7291,-1.7291,-1.7356,-1.7307,-1.712,-1.6565,-1.6046,-1.5712,-1.366,-1.2509,-1.242,-1.1172,-1.055,-1.0545,-1.0475,-1.0439,-1.0434,-1.0447,-1.1091,-1.2176,-1.2001,-1.2655,-1.3678,0.0,-1.0018,-0.7407,0.0,-0.6456,-0.5203,-0.4034,-0.3195,0.0,-0.2692,-0.2692,-0.2692,-0.2692,-0.2692,-0.2692,-0.2692,-0.2692,0.0,0.0,0.0,-0.2692,-0.2692,0.0,0.0,0.0,0.0,0.0,0.0,0.0,0.0,0.0,0.0,0.0,0.0,0.0,0.0,0.0,0.0,0.0,0.0,0.0,0.0,0.0,0.0,0.0,-0.2529,-0.253,-0.2542,0.0,-0.2583,-0.2607,-0.2563,-0.2657,-0.2672,-0.2692,-0.2692,-0.2692,-0.2692,-0.2692,-0.2692,-0.2692,-0.2692,-0.2692,-0.2692,-0.2692,-0.2692,-0.2692,-0.2692,-0.2692,-0.2692,-0.2692,-0.2692,-0.2692,-0.2692,-0.2692,-0.2692,-1.7112,-1.7112,-1.7112,-1.7112,-1.7112,-1.7112,-1.7112,-1.7112,-1.7136,-1.7201,-1.721,-1.7274,-1.7453,-1.7478,-1.7494,-1.7543,-1.7453,-1.7388,-1.7388,-1.7388,-1.7331,-1.7218,-1.6604,-1.6135,-1.5969,-1.3123,-1.161,-1.161,-0.9619,-0.8538,-0.8538,-0.8532,-0.849,-0.8486,-0.8515,-0.9525,-1.116,-1.1078,-1.1646,-1.2495,0.0,-0.752,0.0,0.0,-0.4451,-0.4283,0.0,-0.2692,-0.2692,-0.2692,-0.2692,-0.2692,-0.2692,-0.2692,-0.2692,-0.2692,-0.2692,-0.2692,-0.2692,-0.2692,0.0,-0.2692,-0.2692,0.0,-0.2692,0.0,0.0,0.0,0.0,0.0,0.0,0.0,0.0,0.0,0.0,0.0,0.0,-0.2514,0.0,0.0,0.0,0.0,0.0,0.0,-0.2514,-0.2514,-0.2514,-0.2523,0.0,0.0,-0.2577,-0.2615,-0.2626,-0.2646,-0.2676,-0.2676,-0.2682,-0.2692,-0.2692,-0.2692,-0.2692,-0.2692,-0.2692,-0.2692,-0.2692,-0.2692,-0.2692,-0.2692,-0.2692,-0.2692,-0.2692,-0.2692,-0.2692,-0.2692,-0.2692,-0.2692,-1.7112,-1.7112,-1.7112,-1.7112,-1.7112,-1.7112,-1.712,-1.712,-1.7193,-1.738,-1.7396,-1.7469,-1.764,-1.7648,-1.7583,-1.7429,-1.7396,-1.7388,-1.7388,-1.7388,-1.738,-1.7372,-1.6934,-1.658,-1.6401,-1.3464,-1.1954,-1.1954,-0.9462,-0.8189,0.0,0.0,-0.8223,-0.8223,-0.8219,-0.9248,-1.1058,-1.0972,-1.0886,-1.0618,-0.7014,-0.5422,-0.5119,-0.3363,-0.2692,-0.2692,-0.2692,-0.2692,-0.2692,-0.2692,-0.2692,-0.2692,-0.2692,-0.2692,-0.2692,-0.2692,-0.2692,-0.2692,-0.2692,-0.2692,-0.2692,-0.2692,0.0,0.0,0.0,0.0,-0.2692,0.0,0.0,0.0,0.0,0.0,0.0,0.0,0.0,0.0,0.0,0.0,0.0,0.0,0.0,0.0,0.0,-0.2514,-0.2514,-0.2514,-0.2514,-0.2514,0.0,0.0,-0.2559,-0.264,-0.2586,-0.2615,-0.2562,-0.2563,-0.2661,-0.269,-0.2691,-0.2692,-0.2692,-0.2692,-0.2692,-0.2692,-0.2692,-0.2692,-0.2692,-0.2692,-0.2692,-0.2692,-0.2692,-0.2691,-0.269,-0.2691,-0.2692,-0.2692,-1.7112,-1.7112,-1.7112,-1.7112,-1.7112,-1.7161,-1.7299,-1.7315,-1.738,-1.7551,-1.7575,-1.7648,-1.7827,-1.7721,-1.7681,-1.777,-1.7543,-1.7388,-1.7388,-1.7388,-1.7323,-1.7185,-1.6863,-1.658,-1.6401,-1.2219,-0.9997,-0.9997,-0.6113,-0.4238,-0.4236,0.0,0.0,0.0,0.0,-0.5924,-0.8707,-0.7439,-0.6849,-0.6765,-0.5819,-0.463,-0.3363,0.0,-0.2692,-0.2692,-0.2692,-0.2692,-0.2692,-0.2692,-0.2692,-0.2692,-0.2692,-0.2692,-0.2692,-0.2692,-0.2692,-0.2692,-0.2692,-0.2692,-0.2692,-0.2692,-0.2692,-0.2692,0.0,0.0,0.0,0.0,0.0,0.0,0.0,0.0,0.0,0.0,0.0,0.0,0.0,0.0,0.0,-0.2514,0.0,0.0,0.0,-0.2514,-0.2514,-0.2514,-0.2514,0.0,0.0,0.0,0.0,-0.2559,-0.2567,-0.2585,-0.2613,-0.2635,-0.2567,-0.2658,-0.2682,-0.2692,-0.2692,-0.2692,-0.2692,-0.2692,-0.2692,-0.2692,-0.2692,-0.2692,-0.2692,-0.2692,-0.2692,-0.2679,-0.2661,-0.2684,-0.2692,-0.2692,-1.7112,-1.7177,-1.7234,-1.7234,-1.7291,-1.7356,-1.738,-1.7453,-1.7559,-1.7737,-1.7762,-1.7802,-1.7908,-1.7827,-1.7737,-1.7689,-1.7502,-1.7388,-1.7388,-1.7307,-1.7258,-1.7234,-1.6445,-1.5875,-1.5778,-1.1511,-0.9091,-0.8606,-0.5107,-0.3152,-0.2788,0.0,0.0,0.0,0.0,-0.4285,-0.6794,-0.579,-0.5371,-0.5371,-0.4535,-0.3614,0.0,-0.2692,-0.2692,-0.2692,-0.2692,-0.2692,-0.2692,-0.2692,-0.2692,-0.2692,-0.2692,-0.2692,-0.2692,-0.2692,-0.2692,-0.2692,-0.2692,-0.2692,-0.2692,-0.2692,-0.2692,-0.2692,-0.2692,-0.2692,-0.2692,0.0,0.0,0.0,0.0,0.0,0.0,0.0,0.0,0.0,0.0,0.0,0.0,0.0,-0.2514,0.0,0.0,-0.2514,-0.2514,-0.2514,0.0,0.0,0.0,0.0,0.0,-0.254,-0.254,-0.2553,-0.2583,-0.26,-0.2622,-0.2565,-0.2664,-0.2679,-0.2692,-0.2692,-0.2692,-0.2692,-0.2692,-0.2692,-0.2692,-0.2692,-0.2684,-0.2671,-0.2658,-0.2642,-0.263,-0.2646,-0.2653,-0.2654,-1.7177,-1.7307,-1.7421,-1.7421,-1.7559,-1.7624,-1.7478,-1.7583,-1.7737,-1.79,-1.7916,-1.7908,-1.7884,-1.7859,-1.7721,-1.7413,-1.7364,-1.7348,-1.7348,-1.7201,-1.7185,-1.7348,-1.5853,-1.4977,-1.4977,-1.125,-0.8804,-0.783,-0.5409,0.0,0.0,0.0,0.0,0.0,0.0,0.0,0.0,-0.529,-0.5292,-0.4878,-0.3365,-0.2692,-0.2692,-0.2692,-0.2692,-0.2692,-0.2692,-0.2692,-0.2692,-0.2692,-0.2692,-0.2692,-0.2692,-0.2692,-0.2692,-0.2692,-0.2692,-0.2692,-0.2692,-0.2692,-0.2692,-0.2692,-0.2692,-0.2692,-0.2692,-0.2692,-0.2692,-0.2692,-0.2692,-0.2682,0.0,0.0,0.0,0.0,0.0,0.0,0.0,-0.2514,-0.2514,-0.2514,0.0,0.0,0.0,0.0,0.0,0.0,0.0,0.0,0.0,0.0,0.0,-0.2514,-0.2514,0.0,-0.2553,0.0,-0.2585,-0.2635,-0.2639,-0.2656,-0.268,-0.268,-0.268,-0.268,-0.268,-0.268,-0.268,-0.268,-0.2665,-0.2638,-0.2608,-0.2596,-0.2596,-0.2592,-0.259,-0.2594,-1.7518,-1.7575,-1.7599,-1.7599,-1.7746,-1.7859,-1.7827,-1.7851,-1.7884,-1.7916,-1.7916,-1.7859,-1.7705,-1.7567,-1.7453,-1.7396,-1.725,-1.7161,-1.7161,-1.7128,-1.7128,-1.7161,-1.5793,-1.4977,-1.4977,-1.125,-0.8804,-0.783,0.0,0.0,0.0,0.0,0.0,0.0,0.0,0.0,-0.3237,-0.4806,0.0,-0.3152,-0.2786,-0.2692,-0.2692,-0.2692,-0.2692,-0.2692,-0.2692,-0.2692,-0.2692,-0.2692,-0.2692,-0.2692,-0.2692,-0.2692,-0.2692,-0.2692,-0.2692,-0.2692,-0.2692,-0.2692,-0.2692,-0.2692,-0.2692,-0.2692,-0.2692,-0.2692,-0.2692,-0.2692,-0.2692,-0.2675,-0.262,0.0,0.0,0.0,0.0,0.0,0.0,0.0,-0.2514,-0.2514,0.0,-0.2514,0.0,0.0,0.0,0.0,0.0,0.0,0.0,0.0,0.0,0.0,-0.2514,0.0,0.0,0.0,-0.2564,-0.2575,-0.2598,-0.2612,-0.2617,-0.2617,-0.2617,-0.2617,-0.2617,-0.2617,-0.2617,-0.2617,-0.2615,-0.2607,-0.2578,-0.2567,-0.2564,-0.2538,-0.253,-0.2537,-1.7624,-1.7713,-1.7786,-1.7786,-1.7859,-1.7916,0.0,-1.7835,-1.7811,-1.7908,-1.7835,-1.7705,-1.7526,-1.7437,-1.7348,-1.725,-1.7161,-1.7112,-1.7112,-1.7112,-1.6753,-1.6042,-1.4625,-1.3565,-1.2762,-1.0229,-0.8125,-0.6641,0.0,0.0,0.0,0.0,0.0,0.0,0.0,-0.2716,0.0,0.0,0.0,-0.2713,-0.2698,-0.2692,-0.2692,-0.2692,-0.2692,-0.2692,-0.2692,-0.2692,-0.2692,-0.2692,-0.2692,-0.2692,-0.2692,-0.2692,-0.2692,-0.2692,-0.2692,-0.2692,-0.2692,-0.2692,-0.2692,-0.2692,-0.2692,-0.2692,-0.2692,-0.2692,-0.2692,-0.2692,-0.268,-0.265,-0.259,-0.2544,0.0,0.0,0.0,0.0,0.0,0.0,-0.2514,0.0,0.0,0.0,0.0,0.0,0.0,0.0,0.0,0.0,0.0,0.0,0.0,0.0,0.0,0.0,0.0,0.0,0.0,-0.264,-0.2574,-0.2587,-0.2601,-0.2601,-0.2601,-0.2601,-0.2601,-0.2601,-0.2601,-0.2586,-0.2579,-0.2577,-0.2548,-0.2536,-0.2534,-0.2519,-0.2514,-0.2521,-1.7754,-1.7867,-1.7957,-1.7924,-1.7916,-1.7908,-1.7867,-1.7705,-1.764,-1.7786,-1.7681,-1.7518,-1.7348,-1.7331,-1.7266,-1.712,-1.7112,-1.7112,-1.7112,-1.6841,-1.613,-1.5066,-1.3388,-1.1871,-1.0692,-0.9207,-0.7541,0.0,0.0,0.0,0.0,0.0,0.0,0.0,0.0,0.0,0.0,0.0,-0.2724,-0.2702,-0.2695,-0.2692,-0.2692,-0.2692,-0.2692,-0.2692,-0.2692,-0.2692,-0.2692,-0.2692,-0.2692,-0.2692,-0.2692,-0.2692,-0.2692,-0.2692,-0.2692,-0.2692,-0.2692,-0.2692,-0.2692,-0.2692,-0.2692,-0.2692,-0.2692,-0.2692,-0.2692,-0.2692,-0.2662,-0.2622,-0.257,-0.2534,0.0,0.0,0.0,0.0,0.0,0.0,-0.2514,0.0,0.0,0.0,-0.2514,0.0,0.0,0.0,0.0,0.0,0.0,0.0,0.0,0.0,0.0,-0.2514,-0.2514,0.0,-0.2526,0.0,-0.2549,-0.2562,-0.2583,-0.2583,-0.2583,-0.2583,-0.2583,-0.2583,-0.2582,-0.2559,-0.2549,-0.2548,-0.2523,-0.2514,-0.2514,-0.2514,-0.2514,-0.2518,-1.8127,-1.8135,-1.8103,-1.7949,0.0,-1.7859,-1.7689,-1.7518,-1.7421,-1.7437,-1.7421,-1.7339,-1.7161,-1.7136,-1.7128,-1.7112,-1.7112,-1.7112,-1.7112,-1.5954,-1.5154,-1.4977,-1.2408,-1.077,-1.058,-0.9259,-0.7512,0.0,0.0,-0.448,0.0,0.0,0.0,0.0,0.0,0.0,0.0,-0.2748,-0.2736,-0.2731,-0.2703,-0.2692,-0.2692,-0.2692,-0.2692,-0.2692,-0.2692,-0.2692,-0.2692,-0.2692,-0.2692,-0.2692,-0.2692,-0.2692,-0.2692,-0.2692,-0.2692,-0.2692,-0.2692,-0.2692,-0.2692,-0.2692,-0.2692,-0.2692,-0.2692,-0.2692,-0.2692,-0.2692,-0.2646,-0.2597,-0.2566,-0.2534,-0.2514,0.0,0.0,0.0,0.0,0.0,-0.2514,-0.2514,0.0,0.0,0.0,-0.2514,0.0,0.0,0.0,0.0,0.0,0.0,0.0,-0.2514,0.0,-0.2514,-0.2514,-0.2514,-0.2515,-0.2518,-0.2518,-0.2519,-0.2522,-0.2522,-0.2522,-0.2522,-0.2522,-0.2522,-0.2522,-0.2519,-0.2518,-0.2518,-0.2515,-0.2514,-0.2514,-0.2514,-0.2514,-0.2515,0.0,0.0,0.0,0.0,0.0,0.0,0.0,-1.7339,-1.7218,-1.7218,-1.7218,-1.7193,-1.712,-1.7112,-1.7112,-1.7112,-1.7112,-1.7112,-1.7112,-1.5778,-1.4625,-1.3742,-1.172,-1.0259,-0.9342,-0.8185,-0.6894,0.0,0.0,0.0,0.0,0.0,0.0,0.0,0.0,-0.2778,-0.2757,-0.2762,-0.2744,-0.271,-0.2698,-0.2692,-0.2692,-0.2692,-0.2692,-0.2692,-0.2692,-0.2692,-0.2692,-0.2692,-0.2692,-0.2692,-0.2692,-0.2692,-0.2692,-0.2692,-0.2692,-0.2692,-0.2692,-0.2692,-0.2692,-0.2692,-0.2692,-0.2692,-0.2692,-0.2692,-0.2687,-0.2669,-0.2617,-0.2567,-0.2538,-0.2522,-0.2514,0.0,0.0,0.0,0.0,0.0,0.0,-0.2514,0.0,-0.2514,0.0,0.0,0.0,0.0,0.0,0.0,0.0,0.0,0.0,-0.2514,0.0,-0.2514,-0.2514,-0.2514,-0.2514,-0.2514,-0.2514,-0.2514,-0.2514,-0.2514,-0.2514,-0.2514,-0.2514,-0.2514,-0.2514,-0.2514,-0.2514,-0.2514,-0.2514,-0.2514,-0.2514,-0.2514,-0.2514,-0.2514,-1.8176,0.0,-1.79,0.0,-1.7583,-1.7372,-1.7315,-1.7193,-1.7112,-1.7112,-1.7112,-1.7112,-1.7112,-1.7112,-1.7112,-1.7112,-1.7112,-1.7112,-1.7112,-1.5425,-1.3918,-1.2952,-1.106,0.0,-0.8432,-0.7417,-0.6397,-0.5442,-0.4471,0.0,0.0,0.0,0.0,0.0,-0.28,-0.2791,-0.2752,-0.2765,-0.274,-0.2692,-0.2692,-0.2692,-0.2692,-0.2692,-0.2692,-0.2692,-0.2692,-0.2692,-0.2692,-0.2692,-0.2692,-0.2692,-0.2692,-0.2692,-0.2692,-0.2692,-0.2692,-0.2692,-0.2692,-0.2692,-0.2692,-0.2692,-0.2692,-0.2692,-0.2692,-0.2686,-0.2668,-0.263,-0.2589,-0.2551,-0.2519,-0.2514,-0.2514,-0.2514,0.0,0.0,0.0,-0.2514,0.0,-0.2514,-0.2514,-0.2514,-0.2514,-0.2514,0.0,0.0,0.0,0.0,0.0,0.0,0.0,0.0,0.0,0.0,0.0,-0.2514,-0.2514,-0.2514,-0.2514,-0.2514,-0.2514,-0.2514,-0.2514,-0.2514,-0.2514,-0.2514,-0.2514,-0.2514,-0.2514,-0.2514,-0.2514,-0.2514,-0.2514,-0.2514,-0.2514,-0.2514,-1.8176,-1.8038,-1.7859,-1.7681,-1.7502,-1.7323,-1.7145,-1.7112,-1.7112,-1.7112,-1.7112,-1.7112,-1.7112,-1.7112,-1.7112,-1.7112,-1.7112,-1.7112,-1.7112,-1.4455,-1.2952,0.0,0.0,-0.8428,-0.8338,-0.7388,-0.6372,-0.5379,0.0,0.0,-0.2565,0.0,-0.274,-0.2826,-0.2797,-0.2784,-0.2781,-0.2751,-0.2721,-0.2692,-0.2692,-0.2692,-0.2692,-0.2692,-0.2692,-0.2692,-0.2692,-0.2692,-0.2692,-0.2692,-0.2692,-0.2692,-0.2692,-0.2692,-0.2692,-0.2692,-0.2692,-0.2692,-0.2692,-0.2692,-0.2692,-0.2692,-0.2692,-0.2692,-0.2692,-0.2669,-0.2631,-0.2572,-0.256,-0.2551,-0.2519,-0.2514,-0.2514,-0.2514,0.0,0.0,0.0,0.0,0.0,-0.2514,-0.2514,-0.2514,-0.2514,-0.2514,0.0,0.0,0.0,0.0,0.0,0.0,0.0,-0.2514,-0.2514,0.0,-0.2514,-0.2514,-0.2514,-0.2514,-0.2514,-0.2514,-0.2514,-0.2514,-0.2514,-0.2514,-0.2514,-0.2514,-0.2514,-0.2514,-0.2514,-0.2514,-0.2514,-0.2514,-0.2514,-0.2514,-0.2514,-0.2435,-1.8022,-1.7851,-1.7672,-1.7502,-1.7315,-1.7177,-1.712,-1.7112,-1.7112,-1.7112,-1.7112,-1.7112,-1.7112,-1.7112,-1.7112,0.0,-1.7112,-1.7112,0.0,-1.4455,-1.282,-1.2816,-0.9903,-0.8334,-0.8244,-0.6711,-0.5735,-0.5376,0.0,0.0,0.0,-0.2761,-0.28,-0.2829,-0.2818,-0.2803,-0.2781,-0.2751,-0.272,-0.2692,-0.2692,-0.2692,-0.2692,-0.2692,-0.2692,-0.2692,-0.2692,-0.2692,-0.2692,-0.2692,-0.2692,-0.2692,-0.2692,-0.2692,-0.2692,-0.2692,-0.2692,-0.2692,-0.2692,-0.2692,-0.2692,-0.2692,-0.2692,-0.2687,-0.2667,-0.2623,-0.2582,-0.2563,-0.2544,-0.2526,-0.2517,-0.2514,-0.2514,-0.2514,-0.2514,0.0,0.0,0.0,0.0,-0.2514,-0.2514,-0.2514,0.0,-0.2514,0.0,0.0,0.0,0.0,0.0,0.0,0.0,0.0,-0.2514,0.0,-0.2514,-0.2514,-0.2514,-0.2514,-0.2514,-0.2514,-0.2514,-0.2514,-0.2514,-0.2514,-0.2514,-0.2514,-0.2514,-0.2514,-0.2514,-0.2514,-0.2514,-0.2514,-0.2514,-0.2514,-0.2357,-0.2043,-1.794,-1.7713,-1.751,-1.7404,-1.7234,-1.7112,-1.7112,-1.7112,-1.7112,-1.7112,-1.7112,-1.7112,-1.7112,-1.7112,0.0,-1.7112,-1.7112,-1.6817,-1.6315,-1.4102,-1.2547,-1.1894,-0.9534,-0.8256,-0.8199,-0.6337,0.0,-0.5376,-0.3548,-0.2731,-0.2773,-0.2811,-0.2834,-0.2845,-0.2822,-0.2801,-0.2781,-0.2739,-0.271,-0.2692,-0.2692,-0.2692,-0.2692,-0.2692,-0.2692,-0.2692,-0.2692,-0.2692,-0.2692,-0.2692,-0.2692,-0.2692,-0.2692,-0.2692,-0.2692,-0.2692,-0.2692,-0.2692,-0.2692,-0.2692,-0.269,-0.2677,-0.2675,-0.2664,-0.2623,-0.2586,-0.2556,-0.2545,-0.2527,-0.2514,-0.2514,-0.2514,-0.2514,-0.2514,-0.2514,-0.2514,-0.2514,0.0,0.0,0.0,0.0,0.0,0.0,-0.2514,-0.2514,0.0,0.0,0.0,0.0,0.0,0.0,-0.2514,-0.2514,0.0,-0.2514,-0.2514,-0.2514,-0.2514,-0.2514,-0.2514,-0.2514,-0.2514,-0.2514,-0.2514,-0.2514,-0.2514,-0.2514,-0.2514,-0.2514,-0.2514,-0.2514,-0.2514,-0.2514,-0.2514,-0.2278,-0.1886,-1.7884,-1.7616,-1.738,0.0,-1.7226,0.0,-1.7112,-1.7112,-1.7112,-1.7112,-1.7112,-1.7112,-1.7112,-1.7112,-1.7104,-1.7096,0.0,0.0,0.0,-1.352,-1.2062,-1.0568,-0.9009,-0.8195,-0.8187,-0.6333,-0.5379,-0.5216,-0.3493,-0.2773,-0.2829,-0.283,-0.2845,-0.2868,-0.281,-0.2782,-0.2776,-0.2717,-0.2692,-0.2692,-0.2692,-0.2692,-0.2692,-0.2692,-0.2692,-0.2692,-0.2692,-0.2692,-0.2692,-0.2692,-0.2692,-0.2692,-0.2692,-0.2692,-0.2692,-0.2692,-0.2692,-0.2692,-0.269,-0.269,-0.2682,-0.2652,-0.2559,-0.2627,-0.2572,-0.2557,-0.2548,-0.2521,-0.2514,-0.2514,-0.2514,-0.2514,-0.2514,-0.2514,-0.2514,-0.2514,-0.2514,0.0,0.0,0.0,0.0,0.0,0.0,-0.2514,-0.2514,0.0,0.0,0.0,0.0,0.0,-0.2514,-0.2514,-0.2514,-0.2514,-0.2514,-0.2514,-0.2514,-0.2514,-0.2514,-0.2514,-0.2514,-0.2514,-0.2514,-0.2514,-0.2514,-0.2514,-0.2514,-0.2514,-0.2514,-0.2514,-0.2514,-0.2514,-0.2514,-0.2435,-0.22,-0.1807,0.0,0.0,-1.7339,-1.7201,-1.7136,-1.7112,-1.7112,-1.7112,-1.7112,-1.7112,-1.7112,-1.7112,-1.7112,-1.7112,-1.7055,-1.6838,-1.6917,-1.6285,-1.5024,-1.3428,-1.1927,-1.0444,-0.8973,-0.8166,-0.8097,-0.6308,-0.4726,-0.3323,-0.2955,-0.2815,-0.2829,-0.2852,-0.2855,-0.2838,-0.28,-0.277,-0.2746,-0.2709,-0.2692,-0.2692,-0.2692,-0.2692,-0.2692,-0.2692,-0.2692,-0.2692,-0.2692,-0.2692,-0.2692,-0.2692,-0.2692,-0.2692,-0.2692,-0.2692,-0.2692,-0.2692,-0.2692,-0.2687,-0.2664,-0.2658,-0.265,-0.262,-0.2597,-0.2577,-0.2563,-0.2542,-0.2523,-0.2515,-0.2514,-0.2514,-0.2514,-0.2514,-0.2514,-0.2514,-0.2514,-0.2514,-0.2514,-0.2514,0.0,0.0,-0.2514,-0.2514,-0.2514,-0.2514,-0.2514,0.0,0.0,0.0,0.0,-0.2514,-0.2514,-0.2514,-0.2514,-0.2514,-0.2514,-0.2514,-0.2514,-0.2514,-0.2514,-0.2514,-0.2514,-0.2514,-0.2514,-0.2514,-0.2514,-0.2514,-0.2514,-0.2514,-0.2514,-0.2514,-0.2514,-0.2514,-0.2435,-0.2121,-0.1807,-0.1414,-1.7429,-1.7323,-1.7226,-1.7128,-1.7112,-1.7112,-1.7112,-1.7112,-1.7112,-1.7112,-1.7112,-1.7112,-1.7112,-1.7039,-1.6958,-1.6774,-1.6766,-1.5917,-1.3865,-1.2917,-1.1453,-0.9403,-0.8556,-0.8113,-0.8064,-0.633,-0.4525,-0.278,-0.2812,-0.2836,-0.2849,-0.2867,-0.2857,-0.2827,-0.2797,-0.2766,-0.2736,-0.2705,-0.2692,-0.2692,-0.2692,-0.2692,-0.2692,-0.2692,-0.2692,-0.2692,-0.2692,-0.2692,-0.2692,-0.2692,-0.2692,-0.269,-0.2676,-0.2672,-0.2669,-0.2656,-0.2661,-0.2665,-0.2634,-0.2627,-0.2619,-0.259,-0.256,-0.254,-0.254,-0.2526,-0.2514,-0.2514,-0.2514,-0.2514,-0.2514,-0.2514,-0.2514,-0.2514,-0.2514,-0.2514,-0.2514,-0.2514,0.0,-0.2514,-0.2514,-0.2514,-0.2514,-0.2514,-0.2514,-0.2514,-0.2514,0.0,-0.2514,-0.2514,-0.2514,-0.2514,-0.2514,-0.2514,-0.2514,-0.2514,-0.2514,-0.2514,-0.2514,-0.2514,-0.2514,-0.2514,-0.2514,-0.2514,-0.2514,-0.2514,-0.2514,-0.2514,-0.2514,-0.2514,-0.2514,-0.2357,-0.22,-0.1964,-0.1493,-0.0942,-1.7348,-1.7218,-1.7112,-1.7112,-1.7112,-1.7112,-1.7112,-1.7112,-1.7112,-1.7112,-1.7088,-1.7071,-1.7071,-1.6917,-1.6803,-1.6771,-1.6513,-1.5265,-1.2445,-1.224,-1.1003,-0.8232,-0.806,-0.8068,-0.8081,-0.6312,-0.4682,-0.3005,-0.2921,-0.2848,-0.2874,-0.2874,-0.2855,-0.2821,-0.2795,-0.2763,-0.2729,-0.2703,-0.2692,-0.2692,-0.2692,-0.2692,-0.2692,-0.2692,-0.2692,-0.2692,-0.2692,-0.2692,-0.2691,-0.2687,-0.2686,-0.268,-0.265,-0.2641,-0.2634,-0.2604,-0.2613,-0.2628,-0.2602,-0.2592,-0.2583,-0.2559,-0.2533,-0.2514,-0.2514,-0.2514,-0.2514,-0.2514,-0.2514,-0.2514,-0.2514,-0.2514,-0.2514,-0.2514,-0.2514,-0.2514,-0.2514,0.0,-0.2514,-0.2514,-0.2514,-0.2514,-0.2514,-0.2514,-0.2514,-0.2514,-0.2514,-0.2514,-0.2514,-0.2514,-0.2514,-0.2514,-0.2514,-0.2514,-0.2514,-0.2514,-0.2514,-0.2514,-0.2514,-0.2514,-0.2514,-0.2514,-0.2514,-0.2514,-0.2514,-0.2514,-0.2514,-0.2514,-0.2514,-0.2514,-0.2514,-0.2278,-0.1886,-0.1807,-0.1256,-0.0628,-1.7185,-1.7128,-1.7112,-1.7112,-1.7112,-1.7112,-1.7112,-1.7112,-1.7112,-1.7112,-1.6982,-1.6806,-1.6806,-1.673,-1.656,-1.6405,-1.5379,-1.3999,-1.2433,-1.2148,-1.0909,-0.8232,-0.806,-0.8097,-0.8174,-0.6432,-0.5105,-0.4064,-0.3299,-0.287,-0.2874,-0.2874,-0.2844,-0.2791,-0.2785,-0.2752,-0.2699,-0.2695,-0.2692,-0.2692,-0.2692,-0.2692,-0.2692,-0.2692,-0.2692,-0.2692,-0.2692,-0.2692,-0.2688,-0.2662,-0.2654,-0.2649,-0.2619,-0.2608,-0.2602,-0.2575,-0.257,-0.2572,-0.2567,-0.2548,-0.2527,-0.2522,-0.2518,-0.2514,-0.2514,-0.2514,-0.2514,-0.2514,-0.2514,-0.2514,-0.2514,-0.2514,-0.2514,-0.2514,-0.2514,-0.2514,-0.2514,0.0,-0.2514,-0.2514,-0.2514,-0.2514,-0.2514,-0.2514,-0.2514,-0.2514,-0.2514,-0.2514,-0.2514,-0.2514,-0.2514,-0.2514,-0.2514,-0.2514,-0.2514,-0.2514,-0.2514,-0.2514,-0.2514,-0.2514,-0.2514,-0.2514,-0.2514,-0.2514,-0.2514,-0.2514,-0.2514,-0.2514,-0.2514,-0.2514,-0.2514,-0.2278,-0.1886,-0.1493,-0.1021,-0.055,-1.7128,-1.7112,-1.7112,-1.7112,-1.7112,-1.7112,-1.7112,-1.7112,-1.708,-1.6982,-1.6901,-1.6725,-1.6714,-1.6544,-1.6145,-1.5302,-1.4543,-1.3318,-1.1227,-1.1087,-1.0143,-0.8144,-0.806,-0.7872,-0.7492,-0.6217,-0.5135,-0.4277,-0.3404,-0.2874,-0.2874,-0.2874,-0.2841,-0.2784,-0.2784,-0.275,-0.2692,-0.2692,-0.2692,-0.2692,-0.2692,-0.2692,-0.2692,-0.2692,-0.2692,-0.269,-0.2673,-0.2668,-0.2664,-0.2632,-0.2623,-0.2617,-0.2589,-0.2579,-0.2574,-0.2544,-0.2536,-0.2536,-0.2536,-0.2525,-0.2514,-0.2514,-0.2514,-0.2514,-0.2514,-0.2514,-0.2514,-0.2514,-0.2514,-0.2514,-0.2514,-0.2514,-0.2514,-0.2514,-0.2514,0.0,0.0,-0.2514,-0.2514,-0.2514,-0.2514,-0.2514,-0.2514,-0.2514,-0.2514,-0.2514,-0.2514,-0.2514,-0.2514,-0.2514,-0.2514,-0.2514,-0.2514,-0.2514,-0.2514,-0.2514,-0.2514,-0.2514,-0.2514,-0.2514,-0.2514,-0.2514,-0.2514,-0.2514,-0.2514,-0.2514,-0.2514,-0.2514,-0.2514,-0.2514,-0.2278,-0.1964,-0.1493,-0.1099,-0.0628,-0.0236,-1.7112,-1.7112,-1.7112,-1.7112,-1.7112,-1.7112,-1.7112,-1.708,-1.7006,-1.6782,-1.6693,-1.6674,-1.6527,-1.6349,-1.5659,-1.4321,-1.3784,-1.2554,-1.0226,-0.981,-0.9142,-0.8144,-0.8081,-0.7742,-0.6942,-0.6057,-0.5147,-0.4307,-0.3323,-0.2874,-0.2874,-0.2867,-0.2834,-0.2782,-0.2776,-0.2743,-0.2692,-0.2692,-0.2692,-0.2692,-0.2692,-0.2692,-0.2692,-0.2692,-0.2688,-0.2679,-0.2656,-0.2559,-0.2632,-0.2602,-0.2592,-0.2587,-0.2559,-0.2549,-0.2545,-0.2521,-0.2514,-0.2514,-0.2514,-0.2514,-0.2514,-0.2514,-0.2514,-0.2514,-0.2514,-0.2514,-0.2514,-0.2514,-0.2514,-0.2514,-0.2514,-0.2514,-0.2514,-0.2514,0.0,0.0,0.0,-0.2514,-0.2514,-0.2514,-0.2514,-0.2514,-0.2514,-0.2514,-0.2514,-0.2514,-0.2514,-0.2514,-0.2514,-0.2514,-0.2514,-0.2514,-0.2514,-0.2514,-0.2514,-0.2514,-0.2514,-0.2514,-0.2514,-0.2514,-0.2514,-0.2514,-0.2514,-0.2514,-0.2514,-0.2514,-0.2514,-0.2514,-0.2514,-0.2435,-0.2043,-0.165,-0.1256,-0.0785,-0.0314,0.0,-1.7112,-1.7112,-1.7112,-1.7112,-1.7112,-1.7112,-1.7112,-1.6974,-1.6782,-1.6766,-1.6552,-1.6341,-1.6324,-1.617,-1.5479,-1.4149,-1.2893,-1.1641,-1.0226,-0.8975,-0.8227,-0.8144,-0.8142,-0.7804,-0.6945,-0.6057,-0.5147,-0.4307,-0.3323,-0.2874,-0.2874,-0.2845,-0.2815,-0.2782,-0.2754,-0.2722,-0.2692,-0.2692,-0.2692,-0.2692,-0.2692,-0.2692,-0.2692,-0.2692,-0.2675,-0.2567,-0.2565,-0.2628,-0.2601,-0.2572,-0.2563,-0.2557,-0.2527,-0.2518,-0.2517,-0.2515,-0.2514,-0.2514,-0.2514,-0.2514,-0.2514,-0.2514,-0.2514,-0.2514,-0.2514,-0.2514,-0.2514,-0.2514,-0.2514,-0.2514,-0.2514,-0.2514,-0.2514,-0.2514,0.0,0.0,-0.2514,-0.2514,-0.2514,-0.2514,-0.2514,-0.2514,-0.2514,-0.2514,-0.2514,-0.2514,-0.2514,-0.2514,-0.2514,-0.2514,-0.2514,-0.2514,-0.2514,-0.2514,-0.2514,-0.2514,-0.2514,-0.2514,-0.2514,-0.2514,-0.2514,-0.2514,-0.2514,-0.2514,-0.2514,-0.2514,-0.2514,-0.2514,-0.2514,-0.2435,-0.2043,-0.165,-0.1256,-0.0785,-0.0314,0.0,-1.7112,-1.7112,-1.7112,-1.7112,-1.7112,-1.7071,-1.6966,-1.6806,-1.6771,-1.6544,-1.6389,-1.6259,-1.6154,-1.6081,-1.5463,-1.4217,-1.2886,-1.1558,-1.0226,-0.8813,-0.806,-0.806,-0.815,-0.7812,-0.6945,-0.6057,-0.5147,-0.4307,-0.3323,-0.2874,-0.2874,-0.2842,-0.2812,-0.2782,-0.2751,-0.2721,-0.2692,-0.2692,-0.2692,-0.2692,-0.2692,-0.2682,-0.2664,-0.2664,-0.2645,-0.2616,-0.26,-0.2586,-0.2571,-0.2541,-0.2532,-0.253,-0.2518,-0.2514,-0.2514,-0.2514,-0.2514,-0.2514,-0.2514,-0.2514,-0.2514,-0.2514,-0.2514,-0.2514,-0.2514,-0.2514,-0.2514,-0.2514,-0.2514,-0.2514,-0.2514,-0.2514,-0.2514,-0.2514,0.0,-0.2514,-0.2514,-0.2514,-0.2514,-0.2514,-0.2514,-0.2514,-0.2514,-0.2514,-0.2514,-0.2514,-0.2514,-0.2514,-0.2514,-0.2514,-0.2514,-0.2514,-0.2514,-0.2514,-0.2514,-0.2514,-0.2514,-0.2514,-0.2514,-0.2514,-0.2514,-0.2514,-0.2514,-0.2514,-0.2514,-0.2514,-0.2514,-0.22,-0.2121,-0.2043,-0.1336,-0.1021,-0.0864,-0.0628,-0.0314,0.0,-1.7112,-1.7112,-1.7112,-1.7112,-1.7112,-1.7055,-1.679,-1.6717,-1.6657,-1.6341,-1.6259,-1.6178,-1.6056,-1.5966,-1.5298,-1.3631,-1.2637,-1.1386,-0.9559,-0.8645,-0.806,-0.806,-0.8121,-0.7599,-0.6477,-0.5833,-0.5017,-0.3841,-0.3216,-0.2864,-0.2872,-0.2833,-0.2803,-0.2781,-0.2742,-0.2712,-0.2692,-0.2692,-0.2692,-0.2691,-0.2682,-0.2665,-0.2563,-0.2637,-0.2615,-0.2586,-0.2567,-0.2553,-0.2542,-0.2521,-0.2514,-0.2514,-0.2514,-0.2514,-0.2514,-0.2514,-0.2514,-0.2514,-0.2514,-0.2514,-0.2514,-0.2514,-0.2514,-0.2514,-0.2514,-0.2514,-0.2514,-0.2514,-0.2514,-0.2514,-0.2514,-0.2514,-0.2514,-0.2514,-0.2514,-0.2514,-0.2514,-0.2514,-0.2514,-0.2514,-0.2514,-0.2514,-0.2514,-0.2514,-0.2514,-0.2514,-0.2514,-0.2514,-0.2514,-0.2514,-0.2514,-0.2514,-0.2514,-0.2514,-0.2514,-0.2514,-0.2514,-0.2514,-0.2514,-0.2514,-0.2514,-0.2514,-0.2514,-0.2514,-0.2357,-0.2278,-0.2278,-0.2043,-0.1886,-0.1807,-0.1256,-0.1021,-0.1021,-0.0864,-0.055,-0.0236,-1.7112,-1.7112,-1.7112,-1.7112,-1.7112,-1.7047,-1.679,-1.6698,-1.6511,-1.6324,-1.6154,-1.5966,-1.5966,-1.5966,-1.4961,-1.2305,-1.2139,-1.0976,-0.8311,-0.806,-0.806,-0.806,-0.806,-0.726,-0.5466,-0.5383,-0.458,-0.2829,-0.2829,-0.2844,-0.2872,-0.2811,-0.2784,-0.278,-0.272,-0.2692,-0.2692,-0.2692,-0.2692,-0.269,-0.266,-0.2563,-0.2561,-0.2613,-0.2583,-0.2559,-0.2559,-0.254,-0.2514,-0.2514,-0.2514,-0.2514,-0.2514,-0.2514,-0.2514,-0.2514,-0.2514,-0.2514,-0.2514,-0.2514,-0.2514,-0.2514,-0.2514,-0.2514,-0.2514,-0.2514,-0.2514,-0.2514,-0.2514,-0.2514,-0.2514,-0.2514,-0.2514,-0.2514,-0.2514,-0.2514,-0.2514,-0.2514,-0.2514,-0.2514,-0.2514,-0.2514,-0.2514,-0.2514,-0.2514,-0.2514,-0.2514,-0.2514,-0.2514,-0.2514,-0.2514,-0.2514,-0.2514,-0.2514,-0.2514,-0.2514,-0.2514,-0.2514,-0.2514,-0.2514,-0.2514,-0.2514,-0.2514,-0.2514,-0.2043,-0.1886,-0.1886,-0.1886,-0.1886,-0.1886,-0.1886,-0.1886,-0.1886,-0.1414,-0.1021,-0.0628,-1.7112,-1.7112,-1.7112,-1.7112,-1.7006,-1.6868,-1.669,-1.6503,-1.6324,-1.6146,-1.6081,-1.5966,-1.5966,-1.5133,-1.43,-1.3466,-1.1724,-0.9976,-0.8227,-0.806,-0.7809,-0.7139,-0.7139,-0.6586,-0.5466,-0.4786,-0.3962,-0.2797,-0.2818,-0.2822,-0.281,-0.2792,-0.2772,-0.275,-0.271,-0.2692,-0.2692,-0.2692,-0.268,-0.266,-0.2567,-0.2623,-0.2585,-0.2575,-0.2553,-0.2527,-0.2527,-0.2522,-0.2514,-0.2514,-0.2514,-0.2514,-0.2514,-0.2514,-0.2514,-0.2514,-0.2514,-0.2514,-0.2514,-0.2514,-0.2514,-0.2514,-0.2514,-0.2514,-0.2514,-0.2514,-0.2514,-0.2514,-0.2514,-0.2514,-0.2514,-0.2514,-0.2514,-0.2514,-0.2514,-0.2514,-0.2514,-0.2514,-0.2514,-0.2514,-0.2514,-0.2514,-0.2514,-0.2514,-0.2514,-0.2514,-0.2514,-0.2514,-0.2514,-0.2514,-0.2514,-0.2514,-0.2514,-0.2514,-0.2514,-0.2514,-0.2514,-0.2514,-0.2514,-0.2514,-0.2514,-0.2514,-0.2514,-0.2514,-0.2357,-0.2357,-0.2278,-0.2043,-0.1886,-0.1886,-0.1571,-0.1493,-0.1493,-0.1336,-0.1021,-0.0628,-1.7112,-1.7112,-1.7088,-1.7023,-1.6925,-1.6763,-1.6511,-1.6373,-1.6243,-1.6073,-1.5966,-1.5966,-1.5966,-1.5298,-1.4383,-1.33,-1.0809,-0.898,-0.8144,-0.806,-0.7642,-0.6721,-0.6385,-0.5732,-0.4837,-0.4331,-0.3672,-0.2765,-0.2784,-0.2789,-0.2782,-0.2772,-0.2755,-0.2736,-0.2706,-0.2692,-0.2692,-0.2692,-0.2675,-0.2563,-0.2634,-0.2601,-0.2559,-0.2547,-0.253,-0.2514,-0.2514,-0.2514,-0.2514,-0.2514,-0.2514,-0.2514,-0.2514,-0.2514,-0.2514,-0.2514,-0.2514,-0.2514,-0.2514,-0.2514,-0.2514,-0.2514,-0.2514,-0.2514,-0.2514,-0.2514,-0.2514,-0.2514,-0.2514,-0.2514,-0.2514,-0.2514,-0.2514,-0.2514,-0.2514,-0.2514,-0.2514,-0.2514,-0.2514,-0.2514,-0.2514,-0.2514,-0.2514,-0.2514,-0.2514,-0.2514,-0.2514,-0.2514,-0.2514,-0.2514,-0.2514,-0.2514,-0.2514,-0.2514,-0.2514,-0.2514,-0.2514,-0.2514,-0.2514,-0.2514,-0.2514,-0.2514,-0.2514,-0.2514,-0.2357,-0.2278,-0.2278,-0.1964,-0.1886,-0.1886,-0.165,-0.1571,-0.1493,-0.1336,-0.1021,-0.0628,-1.7112,-1.7112,-1.7055,-1.6798,-1.6758,-1.6706,-1.6357,-1.6292,-1.6227,-1.5982,-1.5966,-1.5966,-1.5966,-1.5793,-1.4713,-1.2305,-0.9643,-0.806,-0.806,-0.806,-0.7642,-0.6637,-0.5798,-0.4957,-0.3868,-0.3868,-0.3465,-0.2733,-0.2736,-0.2751,-0.2774,-0.275,-0.2736,-0.2732,-0.2705,-0.2692,-0.2692,-0.269,-0.2671,-0.2641,-0.2611,-0.2581,-0.2553,-0.2525,-0.2514,-0.2514,-0.2514,-0.2514,-0.2514,-0.2514,-0.2514,-0.2514,-0.2514,-0.2514,-0.2514,-0.2514,-0.2514,-0.2514,-0.2514,-0.2514,-0.2514,-0.2514,-0.2514,-0.2514,-0.2514,-0.2514,-0.2514,-0.2514,-0.2514,-0.2514,-0.2514,-0.2514,-0.2514,-0.2514,-0.2514,-0.2514,-0.2514,-0.2514,-0.2514,-0.2514,-0.2514,-0.2514,-0.2514,-0.2514,-0.2514,-0.2514,-0.2514,-0.2514,-0.2514,-0.2514,-0.2514,-0.2514,-0.2514,-0.2514,-0.2514,-0.2514,-0.2514,-0.2514,-0.2514,-0.2514,-0.2514,-0.2514,-0.2514,-0.2514,-0.2121,-0.1964,-0.1964,-0.1964,-0.1964,-0.1886,-0.1886,-0.1886,-0.1807,-0.1414,-0.0942,-0.0628,-1.7112,-1.7112,-1.7055,-1.6798,-1.6738,-1.656,-1.6341,-1.6186,-1.6089,-1.6048,-1.5966,-1.5966,-1.5966,-1.4135,-1.272,-1.2139,-0.9643,-0.806,-0.806,-0.806,-0.7391,-0.5712,-0.546,-0.4623,-0.3029,-0.2945,-0.2864,-0.2702,-0.2727,-0.2729,-0.2713,-0.2729,-0.2725,-0.2702,-0.2695,-0.2692,-0.2691,-0.2667,-0.2639,-0.2609,-0.2581,-0.2551,-0.2523,-0.2517,-0.2514,-0.2514,-0.2514,-0.2514,-0.2514,-0.2514,-0.2514,-0.2514,-0.2514,-0.2514,-0.2514,-0.2514,-0.2514,-0.2514,-0.2514,-0.2514,-0.2514,-0.2514,-0.2514,-0.2514,-0.2514,-0.2514,-0.2514,-0.2514,-0.2514,-0.2514,-0.2514,-0.2514,-0.2514,-0.2514,-0.2514,-0.2514,-0.2514,-0.2514,-0.2514,-0.2514,-0.2514,-0.2514,-0.2514,-0.2514,-0.2514,-0.2514,-0.2514,-0.2514,-0.2514,-0.2514,-0.2514,-0.2514,-0.2514,-0.2514,-0.2514,-0.2514,-0.2514,-0.2514,-0.2514,-0.2514,-0.2514,-0.2514,-0.2514,-0.2514,-0.2435,-0.2357,-0.2357,-0.2357,-0.22,-0.1886,-0.1886,-0.1728,-0.1414,-0.0942,-0.0707,-0.055,-1.7112,-1.7047,-1.6933,-1.6755,-1.6568,-1.6389,-1.6211,-1.6105,-1.5966,-1.5966,-1.5966,-1.5966,-1.5966,-1.4217,-1.2554,-1.1225,-0.9309,-0.806,-0.806,-0.806,-0.7307,-0.546,-0.5376,-0.4539,-0.2777,-0.2692,-0.2692,-0.2692,-0.2709,-0.2707,-0.2692,-0.2709,-0.2707,-0.2692,-0.2692,-0.2684,-0.2669,-0.2653,-0.2622,-0.2581,-0.2566,-0.2541,-0.2514,-0.2514,-0.2514,-0.2514,-0.2514,-0.2514,-0.2514,-0.2514,-0.2514,-0.2514,-0.2514,-0.2514,-0.2514,-0.2514,-0.2514,-0.2514,-0.2514,-0.2514,-0.2514,-0.2514,-0.2514,-0.2514,-0.2514,-0.2514,-0.2514,-0.2514,-0.2514,-0.2514,-0.2514,-0.2514,-0.2514,-0.2514,-0.2514,-0.2514,-0.2514,-0.2514,-0.2514,-0.2514,-0.2514,-0.2514,-0.2514,-0.2514,-0.2514,-0.2514,-0.2514,-0.2514,-0.2514,-0.2514,-0.2514,-0.2514,-0.2514,-0.2514,-0.2514,-0.2514,-0.2514,-0.2514,-0.2514,-0.2514,-0.2514,-0.2514,-0.2514,-0.2514,-0.2514,-0.2514,-0.2514,-0.2278,-0.2121,-0.1886,-0.1414,-0.1178,-0.0942,-0.0471,-0.0314,-0.0314,-1.7112,-1.6974,-1.6795,-1.6609,-1.643,-1.6243,-1.599,-1.5966,-1.5966,-1.5966,-1.5966,-1.5966,-1.5966,-1.4631,-1.272,-0.9976,-0.8729,-0.806,-0.806,-0.806,-0.7307,-0.546,-0.5376,-0.4539,-0.2777,-0.2692,-0.2692,-0.2692,-0.2692,-0.2692,-0.2692,-0.2692,-0.2692,-0.2692,-0.2692,-0.2676,-0.2563,-0.2559,-0.2608,-0.2559,-0.2555,-0.2537,-0.2514,-0.2514,-0.2514,-0.2514,-0.2514,-0.2514,-0.2514,-0.2514,-0.2514,-0.2514,-0.2514,-0.2514,-0.2514,-0.2514,-0.2514,-0.2514,-0.2514,-0.2514,-0.2514,-0.2514,-0.2514,-0.2514,-0.2514,-0.2514,-0.2514,-0.2514,-0.2514,-0.2514,-0.2514,-0.2514,-0.2514,-0.2514,-0.2514,-0.2514,-0.2514,-0.2514,-0.2514,-0.2514,-0.2514,-0.2514,-0.2514,-0.2514,-0.2514,-0.2514,-0.2514,-0.2514,-0.2514,-0.2514,-0.2514,-0.2514,-0.2514,-0.2514,-0.2514,-0.2514,-0.2514,-0.2514,-0.2514,-0.2514,-0.2514,-0.2514,-0.2514,-0.2514,-0.2514,-0.2435,-0.2357,-0.2043,-0.1807,-0.1571,-0.0864,-0.055,-0.0471,-0.0157,0.0,0.0,-1.7112,-1.6974,-1.6795,-1.6609,-1.643,-1.6243,-1.599,-1.5966,-1.5966,-1.5966,-1.5966,-1.5966,-1.5966,-1.3797,-1.1309,-0.8645,-0.8227,-0.806,-0.806,-0.806,-0.7307,-0.546,-0.5376,-0.4539,-0.2777,-0.2692,-0.2692,-0.2692,-0.2692,-0.2692,-0.2692,-0.2692,-0.2692,-0.2692,-0.2692,-0.2676,-0.2562,-0.2619,-0.2589,-0.2557,-0.2532,-0.2518,-0.2514,-0.2514,-0.2514,-0.2514,-0.2514,-0.2514,-0.2514,-0.2514,-0.2514,-0.2514,-0.2514,-0.2514,-0.2514,-0.2514,-0.2514,-0.2514,-0.2514,-0.2514,-0.2514,-0.2514,-0.2514,-0.2514,-0.2514,-0.2514,-0.2514,-0.2514,-0.2514,-0.2514,-0.2514,-0.2514,-0.2514,-0.2514,-0.2514,-0.2514,-0.2514,-0.2514,-0.2514,-0.2514,-0.2514,-0.2514,-0.2514,-0.2514,-0.2514,-0.2514,-0.2514,-0.2514,-0.2514,-0.2514,-0.2514,-0.2514,-0.2514,-0.2514,-0.2514,-0.2514,-0.2514,-0.2514,-0.2514,-0.2514,-0.2514,-0.2514,-0.2514,-0.2514,-0.2514,-0.2278,-0.1964,-0.1886,-0.1493,-0.0785,-0.0628,-0.0393,-0.0079,0.0,0.0,0.0,-1.6982,-1.682,-1.6641,-1.6462,-1.6276,-1.6137,-1.5974,-1.5966,-1.5966,-1.5966,-1.5966,-1.5711,-1.4961,-1.2554,-1.0226,-0.8227,-0.806,-0.806,-0.806,-0.806,-0.7307,-0.546,-0.5376,-0.4539,-0.2777,-0.2692,-0.2692,-0.2692,-0.2692,-0.2692,-0.2692,-0.2692,-0.2692,-0.2691,-0.2675,-0.265,-0.262,-0.259,-0.2562,-0.2533,-0.2519,-0.2514,-0.2514,-0.2514,-0.2514,-0.2514,-0.2514,-0.2514,-0.2514,-0.2514,-0.2514,-0.2514,-0.2514,-0.2514,-0.2514,-0.2514,-0.2514,-0.2514,-0.2514,-0.2514,-0.2514,-0.2514,-0.2514,-0.2514,-0.2514,-0.2514,-0.2514,-0.2514,-0.2514,-0.2514,-0.2514,-0.2514,-0.2514,-0.2514,-0.2514,-0.2514,-0.2514,-0.2514,-0.2514,-0.2514,-0.2514,-0.2514,-0.2514,-0.2514,-0.2514,-0.2514,-0.2514,-0.2514,-0.2514,-0.2514,-0.2514,-0.2514,-0.2514,-0.2514,-0.2514,-0.2514,-0.2514,-0.2514,-0.2514,-0.2514,-0.2514,-0.2514,-0.2357,-0.22,-0.22,-0.1964,-0.1571,-0.1256,-0.0942,-0.055,-0.0314,-0.0157,0.0,0.0,0.0,0.0]}]]